<?xml version="1.0" encoding="UTF-8" standalone="no" ?>
<gpx xmlns="http://www.topografix.com/GPX/1/1" xmlns:xsi="http://www.w3.org/2001/XMLSchema-instance" xsi:schemaLocation="http://www.topografix.com/GPX/1/1 http://www.topografix.com/GPX/1/1/gpx.xsd" version="1.1" creator="VisuGPX - https://www.visugpx.com">
  <metadata>
    <name>Forcalquier / Moustier sainte Marie</name>
    <desc><![CDATA[De Forcalquier à Moustier sainte Marie par Manosque, et sainte Croix du Verdon]]></desc>
  </metadata>
  <wpt lat="43.95919" lon="5.78079">
    <ele>557</ele>
    <name><![CDATA[Forcalquier - Moustiers]]></name>
    <type><![CDATA[Generic]]></type>
  </wpt>
  <trk>
    <name><![CDATA[Forcalquier - Moustiers on edp-parcours.com]]></name>
    <trkseg>
      <trkpt lat="43.95919" lon="5.78079">
        <ele>557</ele>
        <time>2017-03-26T16:59:22Z</time>
      </trkpt>
      <trkpt lat="43.95902" lon="5.78057">
        <ele>558</ele>
        <time>2017-03-26T16:59:40Z</time>
      </trkpt>
      <trkpt lat="43.95899" lon="5.78052">
        <ele>558</ele>
        <time>2017-03-26T16:59:59Z</time>
      </trkpt>
      <trkpt lat="43.95893" lon="5.7802">
        <ele>556</ele>
        <time>2017-03-26T17:00:18Z</time>
      </trkpt>
      <trkpt lat="43.95865" lon="5.77979">
        <ele>549</ele>
        <time>2017-03-26T17:00:37Z</time>
      </trkpt>
      <trkpt lat="43.95855" lon="5.7797">
        <ele>549</ele>
        <time>2017-03-26T17:00:45Z</time>
      </trkpt>
      <trkpt lat="43.95843" lon="5.77963">
        <ele>549</ele>
        <time>2017-03-26T17:01:02Z</time>
      </trkpt>
      <trkpt lat="43.95791" lon="5.77944">
        <ele>550</ele>
        <time>2017-03-26T17:01:06Z</time>
      </trkpt>
      <trkpt lat="43.95784" lon="5.77941">
        <ele>550</ele>
        <time>2017-03-26T17:01:17Z</time>
      </trkpt>
      <trkpt lat="43.95775" lon="5.77932">
        <ele>549</ele>
        <time>2017-03-26T17:01:27Z</time>
      </trkpt>
      <trkpt lat="43.95772" lon="5.77914">
        <ele>541</ele>
        <time>2017-03-26T17:01:41Z</time>
      </trkpt>
      <trkpt lat="43.95789" lon="5.77836">
        <ele>536</ele>
        <time>2017-03-26T17:01:56Z</time>
      </trkpt>
      <trkpt lat="43.95799" lon="5.77793">
        <ele>532</ele>
        <time>2017-03-26T17:02:16Z</time>
      </trkpt>
      <trkpt lat="43.95808" lon="5.77755">
        <ele>533</ele>
        <time>2017-03-26T17:02:20Z</time>
      </trkpt>
      <trkpt lat="43.9581" lon="5.77754">
        <ele>533</ele>
        <time>2017-03-26T17:02:28Z</time>
      </trkpt>
      <trkpt lat="43.95811" lon="5.77753">
        <ele>533</ele>
        <time>2017-03-26T17:02:37Z</time>
      </trkpt>
      <trkpt lat="43.95814" lon="5.77749">
        <ele>534</ele>
        <time>2017-03-26T17:02:46Z</time>
      </trkpt>
      <trkpt lat="43.95815" lon="5.77744">
        <ele>534</ele>
        <time>2017-03-26T17:02:49Z</time>
      </trkpt>
      <trkpt lat="43.95815" lon="5.77734">
        <ele>534</ele>
        <time>2017-03-26T17:03:02Z</time>
      </trkpt>
      <trkpt lat="43.95812" lon="5.7773">
        <ele>534</ele>
        <time>2017-03-26T17:03:14Z</time>
      </trkpt>
      <trkpt lat="43.95811" lon="5.77728">
        <ele>534</ele>
        <time>2017-03-26T17:03:25Z</time>
      </trkpt>
      <trkpt lat="43.95802" lon="5.77703">
        <ele>534</ele>
        <time>2017-03-26T17:03:33Z</time>
      </trkpt>
      <trkpt lat="43.95789" lon="5.77679">
        <ele>533</ele>
        <time>2017-03-26T17:03:43Z</time>
      </trkpt>
      <trkpt lat="43.95768" lon="5.77655">
        <ele>534</ele>
        <time>2017-03-26T17:03:58Z</time>
      </trkpt>
      <trkpt lat="43.95751" lon="5.77643">
        <ele>534</ele>
        <time>2017-03-26T17:04:01Z</time>
      </trkpt>
      <trkpt lat="43.9572" lon="5.77629">
        <ele>530</ele>
        <time>2017-03-26T17:04:09Z</time>
      </trkpt>
      <trkpt lat="43.95613" lon="5.77586">
        <ele>525</ele>
        <time>2017-03-26T17:04:15Z</time>
      </trkpt>
      <trkpt lat="43.95576" lon="5.77572">
        <ele>523</ele>
        <time>2017-03-26T17:04:18Z</time>
      </trkpt>
      <trkpt lat="43.95559" lon="5.77558">
        <ele>522</ele>
        <time>2017-03-26T17:04:26Z</time>
      </trkpt>
      <trkpt lat="43.95547" lon="5.77541">
        <ele>521</ele>
        <time>2017-03-26T17:04:39Z</time>
      </trkpt>
      <trkpt lat="43.95542" lon="5.77531">
        <ele>521</ele>
        <time>2017-03-26T17:04:46Z</time>
      </trkpt>
      <trkpt lat="43.95534" lon="5.77502">
        <ele>520</ele>
        <time>2017-03-26T17:05:03Z</time>
      </trkpt>
      <trkpt lat="43.95503" lon="5.77392">
        <ele>516</ele>
        <time>2017-03-26T17:05:17Z</time>
      </trkpt>
      <trkpt lat="43.95494" lon="5.7736">
        <ele>507</ele>
        <time>2017-03-26T17:05:26Z</time>
      </trkpt>
      <trkpt lat="43.95479" lon="5.77313">
        <ele>505</ele>
        <time>2017-03-26T17:05:32Z</time>
      </trkpt>
      <trkpt lat="43.95469" lon="5.77291">
        <ele>505</ele>
        <time>2017-03-26T17:05:52Z</time>
      </trkpt>
      <trkpt lat="43.95453" lon="5.77263">
        <ele>506</ele>
        <time>2017-03-26T17:05:59Z</time>
      </trkpt>
      <trkpt lat="43.95429" lon="5.77229">
        <ele>514</ele>
        <time>2017-03-26T17:06:02Z</time>
      </trkpt>
      <trkpt lat="43.9539" lon="5.7718">
        <ele>519</ele>
        <time>2017-03-26T17:06:12Z</time>
      </trkpt>
      <trkpt lat="43.95372" lon="5.77165">
        <ele>523</ele>
        <time>2017-03-26T17:06:17Z</time>
      </trkpt>
      <trkpt lat="43.95335" lon="5.77143">
        <ele>523</ele>
        <time>2017-03-26T17:06:27Z</time>
      </trkpt>
      <trkpt lat="43.95278" lon="5.77118">
        <ele>520</ele>
        <time>2017-03-26T17:06:41Z</time>
      </trkpt>
      <trkpt lat="43.95268" lon="5.77114">
        <ele>520</ele>
        <time>2017-03-26T17:06:56Z</time>
      </trkpt>
      <trkpt lat="43.9526" lon="5.77108">
        <ele>520</ele>
        <time>2017-03-26T17:07:12Z</time>
      </trkpt>
      <trkpt lat="43.9525" lon="5.77088">
        <ele>519</ele>
        <time>2017-03-26T17:07:20Z</time>
      </trkpt>
      <trkpt lat="43.95239" lon="5.7708">
        <ele>518</ele>
        <time>2017-03-26T17:07:27Z</time>
      </trkpt>
      <trkpt lat="43.95227" lon="5.77079">
        <ele>517</ele>
        <time>2017-03-26T17:07:39Z</time>
      </trkpt>
      <trkpt lat="43.95217" lon="5.77084">
        <ele>515</ele>
        <time>2017-03-26T17:07:56Z</time>
      </trkpt>
      <trkpt lat="43.95211" lon="5.77094">
        <ele>515</ele>
        <time>2017-03-26T17:08:08Z</time>
      </trkpt>
      <trkpt lat="43.95209" lon="5.77099">
        <ele>515</ele>
        <time>2017-03-26T17:08:26Z</time>
      </trkpt>
      <trkpt lat="43.95205" lon="5.77107">
        <ele>514</ele>
        <time>2017-03-26T17:08:33Z</time>
      </trkpt>
      <trkpt lat="43.95197" lon="5.77111">
        <ele>514</ele>
        <time>2017-03-26T17:08:38Z</time>
      </trkpt>
      <trkpt lat="43.95189" lon="5.77113">
        <ele>514</ele>
        <time>2017-03-26T17:08:50Z</time>
      </trkpt>
      <trkpt lat="43.95155" lon="5.77119">
        <ele>510</ele>
        <time>2017-03-26T17:09:03Z</time>
      </trkpt>
      <trkpt lat="43.9513" lon="5.77128">
        <ele>510</ele>
        <time>2017-03-26T17:09:18Z</time>
      </trkpt>
      <trkpt lat="43.95104" lon="5.77142">
        <ele>509</ele>
        <time>2017-03-26T17:09:22Z</time>
      </trkpt>
      <trkpt lat="43.95063" lon="5.77169">
        <ele>505</ele>
        <time>2017-03-26T17:09:34Z</time>
      </trkpt>
      <trkpt lat="43.95021" lon="5.77201">
        <ele>504</ele>
        <time>2017-03-26T17:09:37Z</time>
      </trkpt>
      <trkpt lat="43.95008" lon="5.77212">
        <ele>503</ele>
        <time>2017-03-26T17:09:49Z</time>
      </trkpt>
      <trkpt lat="43.94995" lon="5.7722">
        <ele>501</ele>
        <time>2017-03-26T17:09:58Z</time>
      </trkpt>
      <trkpt lat="43.94958" lon="5.7723">
        <ele>501</ele>
        <time>2017-03-26T17:10:00Z</time>
      </trkpt>
      <trkpt lat="43.94924" lon="5.77232">
        <ele>500</ele>
        <time>2017-03-26T17:10:08Z</time>
      </trkpt>
      <trkpt lat="43.94823" lon="5.77224">
        <ele>500</ele>
        <time>2017-03-26T17:10:21Z</time>
      </trkpt>
      <trkpt lat="43.9479" lon="5.77222">
        <ele>500</ele>
        <time>2017-03-26T17:10:38Z</time>
      </trkpt>
      <trkpt lat="43.94766" lon="5.77224">
        <ele>500</ele>
        <time>2017-03-26T17:10:57Z</time>
      </trkpt>
      <trkpt lat="43.94751" lon="5.77227">
        <ele>500</ele>
        <time>2017-03-26T17:11:04Z</time>
      </trkpt>
      <trkpt lat="43.94731" lon="5.77234">
        <ele>505</ele>
        <time>2017-03-26T17:11:18Z</time>
      </trkpt>
      <trkpt lat="43.94708" lon="5.77247">
        <ele>507</ele>
        <time>2017-03-26T17:11:26Z</time>
      </trkpt>
      <trkpt lat="43.9469" lon="5.77261">
        <ele>501</ele>
        <time>2017-03-26T17:11:40Z</time>
      </trkpt>
      <trkpt lat="43.94644" lon="5.77311">
        <ele>499</ele>
        <time>2017-03-26T17:11:59Z</time>
      </trkpt>
      <trkpt lat="43.94635" lon="5.7732">
        <ele>499</ele>
        <time>2017-03-26T17:12:16Z</time>
      </trkpt>
      <trkpt lat="43.94617" lon="5.77331">
        <ele>500</ele>
        <time>2017-03-26T17:12:35Z</time>
      </trkpt>
      <trkpt lat="43.94597" lon="5.77338">
        <ele>497</ele>
        <time>2017-03-26T17:12:39Z</time>
      </trkpt>
      <trkpt lat="43.94588" lon="5.77338">
        <ele>498</ele>
        <time>2017-03-26T17:12:51Z</time>
      </trkpt>
      <trkpt lat="43.94573" lon="5.77337">
        <ele>498</ele>
        <time>2017-03-26T17:12:54Z</time>
      </trkpt>
      <trkpt lat="43.94557" lon="5.77331">
        <ele>500</ele>
        <time>2017-03-26T17:13:07Z</time>
      </trkpt>
      <trkpt lat="43.94548" lon="5.77326">
        <ele>500</ele>
        <time>2017-03-26T17:13:12Z</time>
      </trkpt>
      <trkpt lat="43.94536" lon="5.77317">
        <ele>500</ele>
        <time>2017-03-26T17:13:18Z</time>
      </trkpt>
      <trkpt lat="43.94448" lon="5.77235">
        <ele>496</ele>
        <time>2017-03-26T17:13:25Z</time>
      </trkpt>
      <trkpt lat="43.94423" lon="5.77209">
        <ele>495</ele>
        <time>2017-03-26T17:13:34Z</time>
      </trkpt>
      <trkpt lat="43.94407" lon="5.77189">
        <ele>494</ele>
        <time>2017-03-26T17:13:40Z</time>
      </trkpt>
      <trkpt lat="43.94378" lon="5.77146">
        <ele>493</ele>
        <time>2017-03-26T17:13:56Z</time>
      </trkpt>
      <trkpt lat="43.94321" lon="5.77056">
        <ele>490</ele>
        <time>2017-03-26T17:14:09Z</time>
      </trkpt>
      <trkpt lat="43.94303" lon="5.77034">
        <ele>490</ele>
        <time>2017-03-26T17:14:12Z</time>
      </trkpt>
      <trkpt lat="43.94285" lon="5.77014">
        <ele>489</ele>
        <time>2017-03-26T17:14:24Z</time>
      </trkpt>
      <trkpt lat="43.94263" lon="5.76996">
        <ele>488</ele>
        <time>2017-03-26T17:14:27Z</time>
      </trkpt>
      <trkpt lat="43.94242" lon="5.76982">
        <ele>484</ele>
        <time>2017-03-26T17:14:43Z</time>
      </trkpt>
      <trkpt lat="43.94219" lon="5.7697">
        <ele>484</ele>
        <time>2017-03-26T17:15:03Z</time>
      </trkpt>
      <trkpt lat="43.94186" lon="5.76959">
        <ele>483</ele>
        <time>2017-03-26T17:15:14Z</time>
      </trkpt>
      <trkpt lat="43.94162" lon="5.76951">
        <ele>478</ele>
        <time>2017-03-26T17:15:19Z</time>
      </trkpt>
      <trkpt lat="43.94146" lon="5.76944">
        <ele>478</ele>
        <time>2017-03-26T17:15:26Z</time>
      </trkpt>
      <trkpt lat="43.94122" lon="5.76926">
        <ele>476</ele>
        <time>2017-03-26T17:15:29Z</time>
      </trkpt>
      <trkpt lat="43.93958" lon="5.76768">
        <ele>463</ele>
        <time>2017-03-26T17:15:38Z</time>
      </trkpt>
      <trkpt lat="43.93771" lon="5.76592">
        <ele>454</ele>
        <time>2017-03-26T17:15:57Z</time>
      </trkpt>
      <trkpt lat="43.93765" lon="5.76588">
        <ele>454</ele>
        <time>2017-03-26T17:16:01Z</time>
      </trkpt>
      <trkpt lat="43.93761" lon="5.76588">
        <ele>453</ele>
        <time>2017-03-26T17:16:12Z</time>
      </trkpt>
      <trkpt lat="43.93745" lon="5.76594">
        <ele>451</ele>
        <time>2017-03-26T17:16:14Z</time>
      </trkpt>
      <trkpt lat="43.9373" lon="5.766">
        <ele>451</ele>
        <time>2017-03-26T17:16:30Z</time>
      </trkpt>
      <trkpt lat="43.93723" lon="5.76601">
        <ele>450</ele>
        <time>2017-03-26T17:16:32Z</time>
      </trkpt>
      <trkpt lat="43.93718" lon="5.766">
        <ele>450</ele>
        <time>2017-03-26T17:16:36Z</time>
      </trkpt>
      <trkpt lat="43.93669" lon="5.76554">
        <ele>450</ele>
        <time>2017-03-26T17:16:39Z</time>
      </trkpt>
      <trkpt lat="43.93661" lon="5.76545">
        <ele>447</ele>
        <time>2017-03-26T17:16:46Z</time>
      </trkpt>
      <trkpt lat="43.93654" lon="5.7656">
        <ele>447</ele>
        <time>2017-03-26T17:16:57Z</time>
      </trkpt>
      <trkpt lat="43.9364" lon="5.76612">
        <ele>445</ele>
        <time>2017-03-26T17:17:15Z</time>
      </trkpt>
      <trkpt lat="43.93637" lon="5.76631">
        <ele>445</ele>
        <time>2017-03-26T17:17:23Z</time>
      </trkpt>
      <trkpt lat="43.93611" lon="5.76776">
        <ele>444</ele>
        <time>2017-03-26T17:17:36Z</time>
      </trkpt>
      <trkpt lat="43.93602" lon="5.76809">
        <ele>443</ele>
        <time>2017-03-26T17:17:41Z</time>
      </trkpt>
      <trkpt lat="43.93591" lon="5.76842">
        <ele>439</ele>
        <time>2017-03-26T17:18:01Z</time>
      </trkpt>
      <trkpt lat="43.93576" lon="5.76878">
        <ele>434</ele>
        <time>2017-03-26T17:18:11Z</time>
      </trkpt>
      <trkpt lat="43.93548" lon="5.76923">
        <ele>430</ele>
        <time>2017-03-26T17:18:26Z</time>
      </trkpt>
      <trkpt lat="43.93527" lon="5.76947">
        <ele>429</ele>
        <time>2017-03-26T17:18:42Z</time>
      </trkpt>
      <trkpt lat="43.9352" lon="5.76954">
        <ele>429</ele>
        <time>2017-03-26T17:18:51Z</time>
      </trkpt>
      <trkpt lat="43.93486" lon="5.76979">
        <ele>427</ele>
        <time>2017-03-26T17:19:06Z</time>
      </trkpt>
      <trkpt lat="43.93401" lon="5.77021">
        <ele>424</ele>
        <time>2017-03-26T17:19:23Z</time>
      </trkpt>
      <trkpt lat="43.93342" lon="5.77051">
        <ele>423</ele>
        <time>2017-03-26T17:19:35Z</time>
      </trkpt>
      <trkpt lat="43.93274" lon="5.77095">
        <ele>422</ele>
        <time>2017-03-26T17:19:52Z</time>
      </trkpt>
      <trkpt lat="43.93099" lon="5.77212">
        <ele>421</ele>
        <time>2017-03-26T17:19:55Z</time>
      </trkpt>
      <trkpt lat="43.93054" lon="5.7724">
        <ele>420</ele>
        <time>2017-03-26T17:19:59Z</time>
      </trkpt>
      <trkpt lat="43.93044" lon="5.77243">
        <ele>419</ele>
        <time>2017-03-26T17:20:06Z</time>
      </trkpt>
      <trkpt lat="43.93007" lon="5.77269">
        <ele>419</ele>
        <time>2017-03-26T17:20:17Z</time>
      </trkpt>
      <trkpt lat="43.92949" lon="5.77308">
        <ele>418</ele>
        <time>2017-03-26T17:20:23Z</time>
      </trkpt>
      <trkpt lat="43.9292" lon="5.77328">
        <ele>418</ele>
        <time>2017-03-26T17:20:26Z</time>
      </trkpt>
      <trkpt lat="43.92808" lon="5.77409">
        <ele>417</ele>
        <time>2017-03-26T17:20:31Z</time>
      </trkpt>
      <trkpt lat="43.92794" lon="5.77423">
        <ele>418</ele>
        <time>2017-03-26T17:20:40Z</time>
      </trkpt>
      <trkpt lat="43.92781" lon="5.77433">
        <ele>418</ele>
        <time>2017-03-26T17:20:53Z</time>
      </trkpt>
      <trkpt lat="43.92738" lon="5.77467">
        <ele>417</ele>
        <time>2017-03-26T17:21:01Z</time>
      </trkpt>
      <trkpt lat="43.92701" lon="5.77494">
        <ele>417</ele>
        <time>2017-03-26T17:21:16Z</time>
      </trkpt>
      <trkpt lat="43.92638" lon="5.77535">
        <ele>418</ele>
        <time>2017-03-26T17:21:34Z</time>
      </trkpt>
      <trkpt lat="43.92543" lon="5.77593">
        <ele>419</ele>
        <time>2017-03-26T17:21:40Z</time>
      </trkpt>
      <trkpt lat="43.92401" lon="5.77679">
        <ele>418</ele>
        <time>2017-03-26T17:21:45Z</time>
      </trkpt>
      <trkpt lat="43.9229" lon="5.77744">
        <ele>417</ele>
        <time>2017-03-26T17:21:57Z</time>
      </trkpt>
      <trkpt lat="43.92242" lon="5.77757">
        <ele>416</ele>
        <time>2017-03-26T17:22:06Z</time>
      </trkpt>
      <trkpt lat="43.92221" lon="5.77758">
        <ele>415</ele>
        <time>2017-03-26T17:22:10Z</time>
      </trkpt>
      <trkpt lat="43.92203" lon="5.77755">
        <ele>415</ele>
        <time>2017-03-26T17:22:21Z</time>
      </trkpt>
      <trkpt lat="43.92138" lon="5.77742">
        <ele>413</ele>
        <time>2017-03-26T17:22:36Z</time>
      </trkpt>
      <trkpt lat="43.92027" lon="5.77717">
        <ele>410</ele>
        <time>2017-03-26T17:22:49Z</time>
      </trkpt>
      <trkpt lat="43.92001" lon="5.77716">
        <ele>410</ele>
        <time>2017-03-26T17:22:59Z</time>
      </trkpt>
      <trkpt lat="43.91977" lon="5.77714">
        <ele>408</ele>
        <time>2017-03-26T17:23:08Z</time>
      </trkpt>
      <trkpt lat="43.91926" lon="5.77718">
        <ele>407</ele>
        <time>2017-03-26T17:23:25Z</time>
      </trkpt>
      <trkpt lat="43.91884" lon="5.77726">
        <ele>405</ele>
        <time>2017-03-26T17:23:43Z</time>
      </trkpt>
      <trkpt lat="43.91855" lon="5.77736">
        <ele>404</ele>
        <time>2017-03-26T17:23:51Z</time>
      </trkpt>
      <trkpt lat="43.91794" lon="5.77765">
        <ele>404</ele>
        <time>2017-03-26T17:23:56Z</time>
      </trkpt>
      <trkpt lat="43.91676" lon="5.77846">
        <ele>403</ele>
        <time>2017-03-26T17:23:59Z</time>
      </trkpt>
      <trkpt lat="43.91514" lon="5.77957">
        <ele>399</ele>
        <time>2017-03-26T17:24:08Z</time>
      </trkpt>
      <trkpt lat="43.91251" lon="5.78139">
        <ele>395</ele>
        <time>2017-03-26T17:24:13Z</time>
      </trkpt>
      <trkpt lat="43.91162" lon="5.78199">
        <ele>393</ele>
        <time>2017-03-26T17:24:24Z</time>
      </trkpt>
      <trkpt lat="43.91118" lon="5.78222">
        <ele>392</ele>
        <time>2017-03-26T17:24:41Z</time>
      </trkpt>
      <trkpt lat="43.91091" lon="5.78234">
        <ele>392</ele>
        <time>2017-03-26T17:24:58Z</time>
      </trkpt>
      <trkpt lat="43.91026" lon="5.7827">
        <ele>392</ele>
        <time>2017-03-26T17:25:10Z</time>
      </trkpt>
      <trkpt lat="43.90941" lon="5.78312">
        <ele>391</ele>
        <time>2017-03-26T17:25:15Z</time>
      </trkpt>
      <trkpt lat="43.9083" lon="5.78369">
        <ele>387</ele>
        <time>2017-03-26T17:25:32Z</time>
      </trkpt>
      <trkpt lat="43.90797" lon="5.78386">
        <ele>387</ele>
        <time>2017-03-26T17:25:43Z</time>
      </trkpt>
      <trkpt lat="43.90762" lon="5.78407">
        <ele>386</ele>
        <time>2017-03-26T17:25:48Z</time>
      </trkpt>
      <trkpt lat="43.9073" lon="5.78435">
        <ele>386</ele>
        <time>2017-03-26T17:26:03Z</time>
      </trkpt>
      <trkpt lat="43.90715" lon="5.78451">
        <ele>386</ele>
        <time>2017-03-26T17:26:09Z</time>
      </trkpt>
      <trkpt lat="43.90684" lon="5.78491">
        <ele>386</ele>
        <time>2017-03-26T17:26:27Z</time>
      </trkpt>
      <trkpt lat="43.90661" lon="5.78529">
        <ele>386</ele>
        <time>2017-03-26T17:26:36Z</time>
      </trkpt>
      <trkpt lat="43.90649" lon="5.78548">
        <ele>386</ele>
        <time>2017-03-26T17:26:56Z</time>
      </trkpt>
      <trkpt lat="43.90648" lon="5.78546">
        <ele>386</ele>
        <time>2017-03-26T17:27:03Z</time>
      </trkpt>
      <trkpt lat="43.90647" lon="5.78545">
        <ele>386</ele>
        <time>2017-03-26T17:27:06Z</time>
      </trkpt>
      <trkpt lat="43.90645" lon="5.78543">
        <ele>386</ele>
        <time>2017-03-26T17:27:13Z</time>
      </trkpt>
      <trkpt lat="43.90643" lon="5.78543">
        <ele>386</ele>
        <time>2017-03-26T17:27:27Z</time>
      </trkpt>
      <trkpt lat="43.90638" lon="5.78547">
        <ele>386</ele>
        <time>2017-03-26T17:27:37Z</time>
      </trkpt>
      <trkpt lat="43.90637" lon="5.7855">
        <ele>386</ele>
        <time>2017-03-26T17:27:55Z</time>
      </trkpt>
      <trkpt lat="43.90637" lon="5.78551">
        <ele>386</ele>
        <time>2017-03-26T17:28:09Z</time>
      </trkpt>
      <trkpt lat="43.90637" lon="5.78552">
        <ele>386</ele>
        <time>2017-03-26T17:28:21Z</time>
      </trkpt>
      <trkpt lat="43.90601" lon="5.78572">
        <ele>386</ele>
        <time>2017-03-26T17:28:36Z</time>
      </trkpt>
      <trkpt lat="43.90563" lon="5.78597">
        <ele>385</ele>
        <time>2017-03-26T17:28:47Z</time>
      </trkpt>
      <trkpt lat="43.90533" lon="5.78618">
        <ele>385</ele>
        <time>2017-03-26T17:28:57Z</time>
      </trkpt>
      <trkpt lat="43.90507" lon="5.78635">
        <ele>385</ele>
        <time>2017-03-26T17:29:17Z</time>
      </trkpt>
      <trkpt lat="43.90364" lon="5.78697">
        <ele>384</ele>
        <time>2017-03-26T17:29:23Z</time>
      </trkpt>
      <trkpt lat="43.90345" lon="5.78708">
        <ele>384</ele>
        <time>2017-03-26T17:29:43Z</time>
      </trkpt>
      <trkpt lat="43.90339" lon="5.787">
        <ele>384</ele>
        <time>2017-03-26T17:29:48Z</time>
      </trkpt>
      <trkpt lat="43.90322" lon="5.78686">
        <ele>385</ele>
        <time>2017-03-26T17:29:59Z</time>
      </trkpt>
      <trkpt lat="43.90302" lon="5.78679">
        <ele>385</ele>
        <time>2017-03-26T17:30:14Z</time>
      </trkpt>
      <trkpt lat="43.90281" lon="5.78674">
        <ele>386</ele>
        <time>2017-03-26T17:30:20Z</time>
      </trkpt>
      <trkpt lat="43.90247" lon="5.78659">
        <ele>389</ele>
        <time>2017-03-26T17:30:22Z</time>
      </trkpt>
      <trkpt lat="43.90237" lon="5.78655">
        <ele>389</ele>
        <time>2017-03-26T17:30:31Z</time>
      </trkpt>
      <trkpt lat="43.90214" lon="5.78657">
        <ele>390</ele>
        <time>2017-03-26T17:30:41Z</time>
      </trkpt>
      <trkpt lat="43.90205" lon="5.78656">
        <ele>390</ele>
        <time>2017-03-26T17:30:43Z</time>
      </trkpt>
      <trkpt lat="43.90142" lon="5.78625">
        <ele>392</ele>
        <time>2017-03-26T17:31:03Z</time>
      </trkpt>
      <trkpt lat="43.90116" lon="5.78617">
        <ele>393</ele>
        <time>2017-03-26T17:31:06Z</time>
      </trkpt>
      <trkpt lat="43.90069" lon="5.78604">
        <ele>394</ele>
        <time>2017-03-26T17:31:26Z</time>
      </trkpt>
      <trkpt lat="43.90033" lon="5.78588">
        <ele>393</ele>
        <time>2017-03-26T17:31:35Z</time>
      </trkpt>
      <trkpt lat="43.8999" lon="5.78557">
        <ele>402</ele>
        <time>2017-03-26T17:31:49Z</time>
      </trkpt>
      <trkpt lat="43.89929" lon="5.78524">
        <ele>405</ele>
        <time>2017-03-26T17:31:51Z</time>
      </trkpt>
      <trkpt lat="43.89829" lon="5.78477">
        <ele>411</ele>
        <time>2017-03-26T17:32:00Z</time>
      </trkpt>
      <trkpt lat="43.89805" lon="5.78463">
        <ele>412</ele>
        <time>2017-03-26T17:32:02Z</time>
      </trkpt>
      <trkpt lat="43.89786" lon="5.78445">
        <ele>412</ele>
        <time>2017-03-26T17:32:16Z</time>
      </trkpt>
      <trkpt lat="43.89772" lon="5.78422">
        <ele>412</ele>
        <time>2017-03-26T17:32:33Z</time>
      </trkpt>
      <trkpt lat="43.89771" lon="5.78393">
        <ele>420</ele>
        <time>2017-03-26T17:32:40Z</time>
      </trkpt>
      <trkpt lat="43.89765" lon="5.78371">
        <ele>422</ele>
        <time>2017-03-26T17:32:56Z</time>
      </trkpt>
      <trkpt lat="43.89757" lon="5.78334">
        <ele>419</ele>
        <time>2017-03-26T17:33:07Z</time>
      </trkpt>
      <trkpt lat="43.89735" lon="5.7826">
        <ele>415</ele>
        <time>2017-03-26T17:33:18Z</time>
      </trkpt>
      <trkpt lat="43.89696" lon="5.7816">
        <ele>410</ele>
        <time>2017-03-26T17:33:34Z</time>
      </trkpt>
      <trkpt lat="43.8968" lon="5.78101">
        <ele>406</ele>
        <time>2017-03-26T17:33:51Z</time>
      </trkpt>
      <trkpt lat="43.89669" lon="5.78037">
        <ele>410</ele>
        <time>2017-03-26T17:33:58Z</time>
      </trkpt>
      <trkpt lat="43.89657" lon="5.77991">
        <ele>403</ele>
        <time>2017-03-26T17:34:04Z</time>
      </trkpt>
      <trkpt lat="43.89642" lon="5.77955">
        <ele>401</ele>
        <time>2017-03-26T17:34:20Z</time>
      </trkpt>
      <trkpt lat="43.8958" lon="5.77844">
        <ele>395</ele>
        <time>2017-03-26T17:34:40Z</time>
      </trkpt>
      <trkpt lat="43.89548" lon="5.77781">
        <ele>397</ele>
        <time>2017-03-26T17:34:52Z</time>
      </trkpt>
      <trkpt lat="43.89534" lon="5.77736">
        <ele>398</ele>
        <time>2017-03-26T17:35:12Z</time>
      </trkpt>
      <trkpt lat="43.8952" lon="5.77682">
        <ele>396</ele>
        <time>2017-03-26T17:35:17Z</time>
      </trkpt>
      <trkpt lat="43.8951" lon="5.77638">
        <ele>393</ele>
        <time>2017-03-26T17:35:29Z</time>
      </trkpt>
      <trkpt lat="43.89493" lon="5.77608">
        <ele>387</ele>
        <time>2017-03-26T17:35:47Z</time>
      </trkpt>
      <trkpt lat="43.89491" lon="5.77627">
        <ele>387</ele>
        <time>2017-03-26T17:36:03Z</time>
      </trkpt>
      <trkpt lat="43.89472" lon="5.77667">
        <ele>388</ele>
        <time>2017-03-26T17:36:15Z</time>
      </trkpt>
      <trkpt lat="43.89447" lon="5.77712">
        <ele>387</ele>
        <time>2017-03-26T17:36:26Z</time>
      </trkpt>
      <trkpt lat="43.8944" lon="5.77723">
        <ele>386</ele>
        <time>2017-03-26T17:36:38Z</time>
      </trkpt>
      <trkpt lat="43.89422" lon="5.77742">
        <ele>385</ele>
        <time>2017-03-26T17:36:49Z</time>
      </trkpt>
      <trkpt lat="43.89407" lon="5.77751">
        <ele>384</ele>
        <time>2017-03-26T17:36:55Z</time>
      </trkpt>
      <trkpt lat="43.89389" lon="5.77758">
        <ele>384</ele>
        <time>2017-03-26T17:37:06Z</time>
      </trkpt>
      <trkpt lat="43.89359" lon="5.77766">
        <ele>384</ele>
        <time>2017-03-26T17:37:22Z</time>
      </trkpt>
      <trkpt lat="43.89334" lon="5.7777">
        <ele>385</ele>
        <time>2017-03-26T17:37:38Z</time>
      </trkpt>
      <trkpt lat="43.89282" lon="5.77766">
        <ele>386</ele>
        <time>2017-03-26T17:37:49Z</time>
      </trkpt>
      <trkpt lat="43.89233" lon="5.77762">
        <ele>387</ele>
        <time>2017-03-26T17:38:05Z</time>
      </trkpt>
      <trkpt lat="43.89162" lon="5.77754">
        <ele>393</ele>
        <time>2017-03-26T17:38:13Z</time>
      </trkpt>
      <trkpt lat="43.89139" lon="5.77749">
        <ele>397</ele>
        <time>2017-03-26T17:38:26Z</time>
      </trkpt>
      <trkpt lat="43.89075" lon="5.77733">
        <ele>399</ele>
        <time>2017-03-26T17:38:45Z</time>
      </trkpt>
      <trkpt lat="43.89038" lon="5.77731">
        <ele>400</ele>
        <time>2017-03-26T17:38:47Z</time>
      </trkpt>
      <trkpt lat="43.8901" lon="5.77725">
        <ele>399</ele>
        <time>2017-03-26T17:39:00Z</time>
      </trkpt>
      <trkpt lat="43.88981" lon="5.77711">
        <ele>401</ele>
        <time>2017-03-26T17:39:04Z</time>
      </trkpt>
      <trkpt lat="43.88968" lon="5.77703">
        <ele>402</ele>
        <time>2017-03-26T17:39:16Z</time>
      </trkpt>
      <trkpt lat="43.88954" lon="5.777">
        <ele>402</ele>
        <time>2017-03-26T17:39:24Z</time>
      </trkpt>
      <trkpt lat="43.88913" lon="5.77693">
        <ele>405</ele>
        <time>2017-03-26T17:39:31Z</time>
      </trkpt>
      <trkpt lat="43.88868" lon="5.7769">
        <ele>405</ele>
        <time>2017-03-26T17:39:45Z</time>
      </trkpt>
      <trkpt lat="43.88832" lon="5.77693">
        <ele>408</ele>
        <time>2017-03-26T17:39:56Z</time>
      </trkpt>
      <trkpt lat="43.88788" lon="5.777">
        <ele>407</ele>
        <time>2017-03-26T17:40:06Z</time>
      </trkpt>
      <trkpt lat="43.88781" lon="5.77708">
        <ele>406</ele>
        <time>2017-03-26T17:40:14Z</time>
      </trkpt>
      <trkpt lat="43.88757" lon="5.7772">
        <ele>405</ele>
        <time>2017-03-26T17:40:25Z</time>
      </trkpt>
      <trkpt lat="43.88723" lon="5.77727">
        <ele>406</ele>
        <time>2017-03-26T17:40:45Z</time>
      </trkpt>
      <trkpt lat="43.88686" lon="5.77732">
        <ele>405</ele>
        <time>2017-03-26T17:41:02Z</time>
      </trkpt>
      <trkpt lat="43.88654" lon="5.7773">
        <ele>407</ele>
        <time>2017-03-26T17:41:06Z</time>
      </trkpt>
      <trkpt lat="43.88636" lon="5.77733">
        <ele>407</ele>
        <time>2017-03-26T17:41:22Z</time>
      </trkpt>
      <trkpt lat="43.88619" lon="5.77743">
        <ele>407</ele>
        <time>2017-03-26T17:41:26Z</time>
      </trkpt>
      <trkpt lat="43.88589" lon="5.77762">
        <ele>404</ele>
        <time>2017-03-26T17:41:38Z</time>
      </trkpt>
      <trkpt lat="43.88573" lon="5.77769">
        <ele>405</ele>
        <time>2017-03-26T17:41:44Z</time>
      </trkpt>
      <trkpt lat="43.88568" lon="5.77768">
        <ele>405</ele>
        <time>2017-03-26T17:42:01Z</time>
      </trkpt>
      <trkpt lat="43.8856" lon="5.77764">
        <ele>405</ele>
        <time>2017-03-26T17:42:21Z</time>
      </trkpt>
      <trkpt lat="43.88536" lon="5.77746">
        <ele>407</ele>
        <time>2017-03-26T17:42:25Z</time>
      </trkpt>
      <trkpt lat="43.88458" lon="5.77682">
        <ele>408</ele>
        <time>2017-03-26T17:42:41Z</time>
      </trkpt>
      <trkpt lat="43.88431" lon="5.77659">
        <ele>409</ele>
        <time>2017-03-26T17:42:56Z</time>
      </trkpt>
      <trkpt lat="43.88379" lon="5.77616">
        <ele>415</ele>
        <time>2017-03-26T17:43:15Z</time>
      </trkpt>
      <trkpt lat="43.88324" lon="5.7757">
        <ele>416</ele>
        <time>2017-03-26T17:43:21Z</time>
      </trkpt>
      <trkpt lat="43.88296" lon="5.77551">
        <ele>417</ele>
        <time>2017-03-26T17:43:26Z</time>
      </trkpt>
      <trkpt lat="43.88284" lon="5.77546">
        <ele>417</ele>
        <time>2017-03-26T17:43:38Z</time>
      </trkpt>
      <trkpt lat="43.88267" lon="5.77544">
        <ele>418</ele>
        <time>2017-03-26T17:43:41Z</time>
      </trkpt>
      <trkpt lat="43.8826" lon="5.77539">
        <ele>418</ele>
        <time>2017-03-26T17:43:54Z</time>
      </trkpt>
      <trkpt lat="43.88253" lon="5.77531">
        <ele>418</ele>
        <time>2017-03-26T17:44:02Z</time>
      </trkpt>
      <trkpt lat="43.88241" lon="5.77514">
        <ele>422</ele>
        <time>2017-03-26T17:44:15Z</time>
      </trkpt>
      <trkpt lat="43.88232" lon="5.77506">
        <ele>422</ele>
        <time>2017-03-26T17:44:26Z</time>
      </trkpt>
      <trkpt lat="43.88202" lon="5.77495">
        <ele>424</ele>
        <time>2017-03-26T17:44:30Z</time>
      </trkpt>
      <trkpt lat="43.88174" lon="5.77488">
        <ele>425</ele>
        <time>2017-03-26T17:44:40Z</time>
      </trkpt>
      <trkpt lat="43.88138" lon="5.77481">
        <ele>433</ele>
        <time>2017-03-26T17:44:50Z</time>
      </trkpt>
      <trkpt lat="43.88121" lon="5.77483">
        <ele>434</ele>
        <time>2017-03-26T17:44:56Z</time>
      </trkpt>
      <trkpt lat="43.88097" lon="5.77491">
        <ele>434</ele>
        <time>2017-03-26T17:45:01Z</time>
      </trkpt>
      <trkpt lat="43.87988" lon="5.77528">
        <ele>439</ele>
        <time>2017-03-26T17:45:11Z</time>
      </trkpt>
      <trkpt lat="43.87976" lon="5.77534">
        <ele>440</ele>
        <time>2017-03-26T17:45:21Z</time>
      </trkpt>
      <trkpt lat="43.8796" lon="5.77545">
        <ele>440</ele>
        <time>2017-03-26T17:45:33Z</time>
      </trkpt>
      <trkpt lat="43.87924" lon="5.77589">
        <ele>440</ele>
        <time>2017-03-26T17:45:38Z</time>
      </trkpt>
      <trkpt lat="43.87894" lon="5.77623">
        <ele>447</ele>
        <time>2017-03-26T17:45:55Z</time>
      </trkpt>
      <trkpt lat="43.8786" lon="5.77653">
        <ele>448</ele>
        <time>2017-03-26T17:46:09Z</time>
      </trkpt>
      <trkpt lat="43.87778" lon="5.77717">
        <ele>445</ele>
        <time>2017-03-26T17:46:13Z</time>
      </trkpt>
      <trkpt lat="43.87753" lon="5.77734">
        <ele>444</ele>
        <time>2017-03-26T17:46:27Z</time>
      </trkpt>
      <trkpt lat="43.87734" lon="5.77745">
        <ele>451</ele>
        <time>2017-03-26T17:46:37Z</time>
      </trkpt>
      <trkpt lat="43.87724" lon="5.77753">
        <ele>448</ele>
        <time>2017-03-26T17:46:49Z</time>
      </trkpt>
      <trkpt lat="43.87703" lon="5.77779">
        <ele>450</ele>
        <time>2017-03-26T17:47:00Z</time>
      </trkpt>
      <trkpt lat="43.87692" lon="5.77796">
        <ele>450</ele>
        <time>2017-03-26T17:47:10Z</time>
      </trkpt>
      <trkpt lat="43.87674" lon="5.77827">
        <ele>449</ele>
        <time>2017-03-26T17:47:12Z</time>
      </trkpt>
      <trkpt lat="43.87665" lon="5.77839">
        <ele>450</ele>
        <time>2017-03-26T17:47:32Z</time>
      </trkpt>
      <trkpt lat="43.87651" lon="5.77853">
        <ele>452</ele>
        <time>2017-03-26T17:47:36Z</time>
      </trkpt>
      <trkpt lat="43.87626" lon="5.77874">
        <ele>454</ele>
        <time>2017-03-26T17:47:39Z</time>
      </trkpt>
      <trkpt lat="43.87606" lon="5.77892">
        <ele>454</ele>
        <time>2017-03-26T17:47:58Z</time>
      </trkpt>
      <trkpt lat="43.87586" lon="5.77911">
        <ele>453</ele>
        <time>2017-03-26T17:48:05Z</time>
      </trkpt>
      <trkpt lat="43.87527" lon="5.77971">
        <ele>455</ele>
        <time>2017-03-26T17:48:14Z</time>
      </trkpt>
      <trkpt lat="43.8751" lon="5.77998">
        <ele>456</ele>
        <time>2017-03-26T17:48:16Z</time>
      </trkpt>
      <trkpt lat="43.87503" lon="5.78012">
        <ele>457</ele>
        <time>2017-03-26T17:48:31Z</time>
      </trkpt>
      <trkpt lat="43.87506" lon="5.78038">
        <ele>458</ele>
        <time>2017-03-26T17:48:51Z</time>
      </trkpt>
      <trkpt lat="43.87523" lon="5.78071">
        <ele>459</ele>
        <time>2017-03-26T17:48:59Z</time>
      </trkpt>
      <trkpt lat="43.87533" lon="5.78094">
        <ele>468</ele>
        <time>2017-03-26T17:49:03Z</time>
      </trkpt>
      <trkpt lat="43.87534" lon="5.78107">
        <ele>469</ele>
        <time>2017-03-26T17:49:17Z</time>
      </trkpt>
      <trkpt lat="43.87518" lon="5.78135">
        <ele>471</ele>
        <time>2017-03-26T17:49:33Z</time>
      </trkpt>
      <trkpt lat="43.87472" lon="5.78206">
        <ele>479</ele>
        <time>2017-03-26T17:49:35Z</time>
      </trkpt>
      <trkpt lat="43.87447" lon="5.78251">
        <ele>484</ele>
        <time>2017-03-26T17:49:42Z</time>
      </trkpt>
      <trkpt lat="43.87436" lon="5.78277">
        <ele>484</ele>
        <time>2017-03-26T17:49:44Z</time>
      </trkpt>
      <trkpt lat="43.87426" lon="5.78312">
        <ele>483</ele>
        <time>2017-03-26T17:49:56Z</time>
      </trkpt>
      <trkpt lat="43.87424" lon="5.78332">
        <ele>479</ele>
        <time>2017-03-26T17:50:09Z</time>
      </trkpt>
      <trkpt lat="43.87416" lon="5.7837">
        <ele>477</ele>
        <time>2017-03-26T17:50:25Z</time>
      </trkpt>
      <trkpt lat="43.87402" lon="5.78376">
        <ele>477</ele>
        <time>2017-03-26T17:50:42Z</time>
      </trkpt>
      <trkpt lat="43.87374" lon="5.78382">
        <ele>477</ele>
        <time>2017-03-26T17:50:56Z</time>
      </trkpt>
      <trkpt lat="43.87349" lon="5.78383">
        <ele>477</ele>
        <time>2017-03-26T17:51:09Z</time>
      </trkpt>
      <trkpt lat="43.87323" lon="5.78387">
        <ele>480</ele>
        <time>2017-03-26T17:51:17Z</time>
      </trkpt>
      <trkpt lat="43.873" lon="5.78399">
        <ele>481</ele>
        <time>2017-03-26T17:51:34Z</time>
      </trkpt>
      <trkpt lat="43.87241" lon="5.78426">
        <ele>485</ele>
        <time>2017-03-26T17:51:54Z</time>
      </trkpt>
      <trkpt lat="43.87208" lon="5.78438">
        <ele>488</ele>
        <time>2017-03-26T17:52:05Z</time>
      </trkpt>
      <trkpt lat="43.8718" lon="5.78451">
        <ele>489</ele>
        <time>2017-03-26T17:52:15Z</time>
      </trkpt>
      <trkpt lat="43.87164" lon="5.78464">
        <ele>494</ele>
        <time>2017-03-26T17:52:20Z</time>
      </trkpt>
      <trkpt lat="43.87155" lon="5.78467">
        <ele>495</ele>
        <time>2017-03-26T17:52:28Z</time>
      </trkpt>
      <trkpt lat="43.87146" lon="5.78465">
        <ele>495</ele>
        <time>2017-03-26T17:52:43Z</time>
      </trkpt>
      <trkpt lat="43.87142" lon="5.7846">
        <ele>495</ele>
        <time>2017-03-26T17:52:53Z</time>
      </trkpt>
      <trkpt lat="43.87138" lon="5.78452">
        <ele>495</ele>
        <time>2017-03-26T17:53:09Z</time>
      </trkpt>
      <trkpt lat="43.87138" lon="5.78441">
        <ele>495</ele>
        <time>2017-03-26T17:53:28Z</time>
      </trkpt>
      <trkpt lat="43.87147" lon="5.7842">
        <ele>493</ele>
        <time>2017-03-26T17:53:34Z</time>
      </trkpt>
      <trkpt lat="43.87155" lon="5.78405">
        <ele>495</ele>
        <time>2017-03-26T17:53:50Z</time>
      </trkpt>
      <trkpt lat="43.87171" lon="5.78385">
        <ele>491</ele>
        <time>2017-03-26T17:53:57Z</time>
      </trkpt>
      <trkpt lat="43.87189" lon="5.78363">
        <ele>492</ele>
        <time>2017-03-26T17:54:13Z</time>
      </trkpt>
      <trkpt lat="43.87202" lon="5.78347">
        <ele>493</ele>
        <time>2017-03-26T17:54:32Z</time>
      </trkpt>
      <trkpt lat="43.8721" lon="5.7834">
        <ele>492</ele>
        <time>2017-03-26T17:54:50Z</time>
      </trkpt>
      <trkpt lat="43.87221" lon="5.78335">
        <ele>492</ele>
        <time>2017-03-26T17:55:05Z</time>
      </trkpt>
      <trkpt lat="43.87243" lon="5.78325">
        <ele>495</ele>
        <time>2017-03-26T17:55:13Z</time>
      </trkpt>
      <trkpt lat="43.87257" lon="5.7831">
        <ele>490</ele>
        <time>2017-03-26T17:55:19Z</time>
      </trkpt>
      <trkpt lat="43.8727" lon="5.78283">
        <ele>491</ele>
        <time>2017-03-26T17:55:36Z</time>
      </trkpt>
      <trkpt lat="43.87277" lon="5.78268">
        <ele>492</ele>
        <time>2017-03-26T17:55:46Z</time>
      </trkpt>
      <trkpt lat="43.87283" lon="5.78243">
        <ele>499</ele>
        <time>2017-03-26T17:55:56Z</time>
      </trkpt>
      <trkpt lat="43.87295" lon="5.78197">
        <ele>501</ele>
        <time>2017-03-26T17:56:08Z</time>
      </trkpt>
      <trkpt lat="43.87312" lon="5.78148">
        <ele>507</ele>
        <time>2017-03-26T17:56:18Z</time>
      </trkpt>
      <trkpt lat="43.87316" lon="5.78119">
        <ele>508</ele>
        <time>2017-03-26T17:56:35Z</time>
      </trkpt>
      <trkpt lat="43.87319" lon="5.78091">
        <ele>507</ele>
        <time>2017-03-26T17:56:48Z</time>
      </trkpt>
      <trkpt lat="43.87328" lon="5.78063">
        <ele>508</ele>
        <time>2017-03-26T17:57:04Z</time>
      </trkpt>
      <trkpt lat="43.8734" lon="5.78037">
        <ele>493</ele>
        <time>2017-03-26T17:57:23Z</time>
      </trkpt>
      <trkpt lat="43.87343" lon="5.78028">
        <ele>493</ele>
        <time>2017-03-26T17:57:38Z</time>
      </trkpt>
      <trkpt lat="43.87343" lon="5.78018">
        <ele>494</ele>
        <time>2017-03-26T17:57:54Z</time>
      </trkpt>
      <trkpt lat="43.8734" lon="5.7801">
        <ele>496</ele>
        <time>2017-03-26T17:57:59Z</time>
      </trkpt>
      <trkpt lat="43.87325" lon="5.78008">
        <ele>505</ele>
        <time>2017-03-26T17:58:17Z</time>
      </trkpt>
      <trkpt lat="43.87302" lon="5.78007">
        <ele>510</ele>
        <time>2017-03-26T17:58:28Z</time>
      </trkpt>
      <trkpt lat="43.87282" lon="5.78">
        <ele>514</ele>
        <time>2017-03-26T17:58:31Z</time>
      </trkpt>
      <trkpt lat="43.87264" lon="5.77985">
        <ele>510</ele>
        <time>2017-03-26T17:58:41Z</time>
      </trkpt>
      <trkpt lat="43.87246" lon="5.77962">
        <ele>519</ele>
        <time>2017-03-26T17:58:47Z</time>
      </trkpt>
      <trkpt lat="43.87222" lon="5.77938">
        <ele>518</ele>
        <time>2017-03-26T17:58:50Z</time>
      </trkpt>
      <trkpt lat="43.87212" lon="5.77925">
        <ele>518</ele>
        <time>2017-03-26T17:59:06Z</time>
      </trkpt>
      <trkpt lat="43.87203" lon="5.77917">
        <ele>520</ele>
        <time>2017-03-26T17:59:20Z</time>
      </trkpt>
      <trkpt lat="43.87196" lon="5.77914">
        <ele>508</ele>
        <time>2017-03-26T17:59:24Z</time>
      </trkpt>
      <trkpt lat="43.87184" lon="5.77917">
        <ele>522</ele>
        <time>2017-03-26T17:59:43Z</time>
      </trkpt>
      <trkpt lat="43.87173" lon="5.77918">
        <ele>523</ele>
        <time>2017-03-26T17:59:50Z</time>
      </trkpt>
      <trkpt lat="43.87158" lon="5.77916">
        <ele>519</ele>
        <time>2017-03-26T18:00:04Z</time>
      </trkpt>
      <trkpt lat="43.87133" lon="5.7791">
        <ele>512</ele>
        <time>2017-03-26T18:00:23Z</time>
      </trkpt>
      <trkpt lat="43.8712" lon="5.77909">
        <ele>512</ele>
        <time>2017-03-26T18:00:31Z</time>
      </trkpt>
      <trkpt lat="43.87108" lon="5.77911">
        <ele>512</ele>
        <time>2017-03-26T18:00:44Z</time>
      </trkpt>
      <trkpt lat="43.87099" lon="5.77918">
        <ele>524</ele>
        <time>2017-03-26T18:00:53Z</time>
      </trkpt>
      <trkpt lat="43.87086" lon="5.77932">
        <ele>525</ele>
        <time>2017-03-26T18:01:01Z</time>
      </trkpt>
      <trkpt lat="43.8708" lon="5.77945">
        <ele>521</ele>
        <time>2017-03-26T18:01:18Z</time>
      </trkpt>
      <trkpt lat="43.87073" lon="5.77956">
        <ele>523</ele>
        <time>2017-03-26T18:01:21Z</time>
      </trkpt>
      <trkpt lat="43.87064" lon="5.77968">
        <ele>524</ele>
        <time>2017-03-26T18:01:29Z</time>
      </trkpt>
      <trkpt lat="43.87041" lon="5.77992">
        <ele>523</ele>
        <time>2017-03-26T18:01:37Z</time>
      </trkpt>
      <trkpt lat="43.87029" lon="5.78008">
        <ele>533</ele>
        <time>2017-03-26T18:01:41Z</time>
      </trkpt>
      <trkpt lat="43.8701" lon="5.78036">
        <ele>535</ele>
        <time>2017-03-26T18:01:50Z</time>
      </trkpt>
      <trkpt lat="43.86988" lon="5.78072">
        <ele>530</ele>
        <time>2017-03-26T18:01:55Z</time>
      </trkpt>
      <trkpt lat="43.86982" lon="5.78091">
        <ele>534</ele>
        <time>2017-03-26T18:02:07Z</time>
      </trkpt>
      <trkpt lat="43.86977" lon="5.78108">
        <ele>532</ele>
        <time>2017-03-26T18:02:27Z</time>
      </trkpt>
      <trkpt lat="43.86969" lon="5.78141">
        <ele>532</ele>
        <time>2017-03-26T18:02:41Z</time>
      </trkpt>
      <trkpt lat="43.8696" lon="5.78162">
        <ele>531</ele>
        <time>2017-03-26T18:02:51Z</time>
      </trkpt>
      <trkpt lat="43.86957" lon="5.78178">
        <ele>534</ele>
        <time>2017-03-26T18:02:53Z</time>
      </trkpt>
      <trkpt lat="43.86958" lon="5.78205">
        <ele>534</ele>
        <time>2017-03-26T18:03:04Z</time>
      </trkpt>
      <trkpt lat="43.86959" lon="5.78234">
        <ele>535</ele>
        <time>2017-03-26T18:03:23Z</time>
      </trkpt>
      <trkpt lat="43.86956" lon="5.78251">
        <ele>536</ele>
        <time>2017-03-26T18:03:29Z</time>
      </trkpt>
      <trkpt lat="43.86951" lon="5.78262">
        <ele>535</ele>
        <time>2017-03-26T18:03:39Z</time>
      </trkpt>
      <trkpt lat="43.86945" lon="5.78271">
        <ele>534</ele>
        <time>2017-03-26T18:03:48Z</time>
      </trkpt>
      <trkpt lat="43.86926" lon="5.78289">
        <ele>534</ele>
        <time>2017-03-26T18:03:50Z</time>
      </trkpt>
      <trkpt lat="43.86917" lon="5.78296">
        <ele>535</ele>
        <time>2017-03-26T18:03:58Z</time>
      </trkpt>
      <trkpt lat="43.86908" lon="5.78311">
        <ele>535</ele>
        <time>2017-03-26T18:04:07Z</time>
      </trkpt>
      <trkpt lat="43.86897" lon="5.78333">
        <ele>536</ele>
        <time>2017-03-26T18:04:23Z</time>
      </trkpt>
      <trkpt lat="43.86892" lon="5.7835">
        <ele>542</ele>
        <time>2017-03-26T18:04:34Z</time>
      </trkpt>
      <trkpt lat="43.86888" lon="5.78363">
        <ele>543</ele>
        <time>2017-03-26T18:04:38Z</time>
      </trkpt>
      <trkpt lat="43.86879" lon="5.78376">
        <ele>544</ele>
        <time>2017-03-26T18:04:43Z</time>
      </trkpt>
      <trkpt lat="43.86861" lon="5.784">
        <ele>546</ele>
        <time>2017-03-26T18:04:49Z</time>
      </trkpt>
      <trkpt lat="43.86843" lon="5.78425">
        <ele>552</ele>
        <time>2017-03-26T18:05:06Z</time>
      </trkpt>
      <trkpt lat="43.86831" lon="5.7844">
        <ele>558</ele>
        <time>2017-03-26T18:05:18Z</time>
      </trkpt>
      <trkpt lat="43.86826" lon="5.78445">
        <ele>559</ele>
        <time>2017-03-26T18:05:33Z</time>
      </trkpt>
      <trkpt lat="43.8682" lon="5.78446">
        <ele>560</ele>
        <time>2017-03-26T18:05:43Z</time>
      </trkpt>
      <trkpt lat="43.86808" lon="5.78442">
        <ele>561</ele>
        <time>2017-03-26T18:05:58Z</time>
      </trkpt>
      <trkpt lat="43.86803" lon="5.78434">
        <ele>560</ele>
        <time>2017-03-26T18:06:08Z</time>
      </trkpt>
      <trkpt lat="43.86796" lon="5.78417">
        <ele>561</ele>
        <time>2017-03-26T18:06:15Z</time>
      </trkpt>
      <trkpt lat="43.86789" lon="5.78403">
        <ele>554</ele>
        <time>2017-03-26T18:06:20Z</time>
      </trkpt>
      <trkpt lat="43.86781" lon="5.7839">
        <ele>555</ele>
        <time>2017-03-26T18:06:39Z</time>
      </trkpt>
      <trkpt lat="43.86778" lon="5.78381">
        <ele>554</ele>
        <time>2017-03-26T18:06:48Z</time>
      </trkpt>
      <trkpt lat="43.86775" lon="5.78362">
        <ele>554</ele>
        <time>2017-03-26T18:07:05Z</time>
      </trkpt>
      <trkpt lat="43.86779" lon="5.78337">
        <ele>553</ele>
        <time>2017-03-26T18:07:19Z</time>
      </trkpt>
      <trkpt lat="43.8678" lon="5.78313">
        <ele>548</ele>
        <time>2017-03-26T18:07:23Z</time>
      </trkpt>
      <trkpt lat="43.86777" lon="5.78282">
        <ele>547</ele>
        <time>2017-03-26T18:07:29Z</time>
      </trkpt>
      <trkpt lat="43.8677" lon="5.78241">
        <ele>542</ele>
        <time>2017-03-26T18:07:35Z</time>
      </trkpt>
      <trkpt lat="43.86764" lon="5.78231">
        <ele>541</ele>
        <time>2017-03-26T18:07:46Z</time>
      </trkpt>
      <trkpt lat="43.86761" lon="5.7823">
        <ele>542</ele>
        <time>2017-03-26T18:08:06Z</time>
      </trkpt>
      <trkpt lat="43.86746" lon="5.78233">
        <ele>550</ele>
        <time>2017-03-26T18:08:14Z</time>
      </trkpt>
      <trkpt lat="43.86717" lon="5.78248">
        <ele>551</ele>
        <time>2017-03-26T18:08:28Z</time>
      </trkpt>
      <trkpt lat="43.86683" lon="5.78259">
        <ele>563</ele>
        <time>2017-03-26T18:08:45Z</time>
      </trkpt>
      <trkpt lat="43.86659" lon="5.78254">
        <ele>568</ele>
        <time>2017-03-26T18:08:55Z</time>
      </trkpt>
      <trkpt lat="43.86626" lon="5.78235">
        <ele>565</ele>
        <time>2017-03-26T18:09:00Z</time>
      </trkpt>
      <trkpt lat="43.8659" lon="5.78219">
        <ele>568</ele>
        <time>2017-03-26T18:09:07Z</time>
      </trkpt>
      <trkpt lat="43.86574" lon="5.78209">
        <ele>579</ele>
        <time>2017-03-26T18:09:26Z</time>
      </trkpt>
      <trkpt lat="43.86567" lon="5.782">
        <ele>579</ele>
        <time>2017-03-26T18:09:46Z</time>
      </trkpt>
      <trkpt lat="43.86564" lon="5.78194">
        <ele>579</ele>
        <time>2017-03-26T18:09:49Z</time>
      </trkpt>
      <trkpt lat="43.86564" lon="5.78178">
        <ele>576</ele>
        <time>2017-03-26T18:09:55Z</time>
      </trkpt>
      <trkpt lat="43.86569" lon="5.7816">
        <ele>573</ele>
        <time>2017-03-26T18:10:13Z</time>
      </trkpt>
      <trkpt lat="43.8658" lon="5.78121">
        <ele>577</ele>
        <time>2017-03-26T18:10:16Z</time>
      </trkpt>
      <trkpt lat="43.86584" lon="5.78083">
        <ele>570</ele>
        <time>2017-03-26T18:10:22Z</time>
      </trkpt>
      <trkpt lat="43.86579" lon="5.78055">
        <ele>577</ele>
        <time>2017-03-26T18:10:41Z</time>
      </trkpt>
      <trkpt lat="43.8656" lon="5.78028">
        <ele>578</ele>
        <time>2017-03-26T18:11:00Z</time>
      </trkpt>
      <trkpt lat="43.86551" lon="5.78017">
        <ele>579</ele>
        <time>2017-03-26T18:11:16Z</time>
      </trkpt>
      <trkpt lat="43.86546" lon="5.78007">
        <ele>580</ele>
        <time>2017-03-26T18:11:22Z</time>
      </trkpt>
      <trkpt lat="43.86543" lon="5.77993">
        <ele>581</ele>
        <time>2017-03-26T18:11:39Z</time>
      </trkpt>
      <trkpt lat="43.86548" lon="5.77926">
        <ele>580</ele>
        <time>2017-03-26T18:11:54Z</time>
      </trkpt>
      <trkpt lat="43.86541" lon="5.77887">
        <ele>584</ele>
        <time>2017-03-26T18:11:57Z</time>
      </trkpt>
      <trkpt lat="43.86538" lon="5.77859">
        <ele>584</ele>
        <time>2017-03-26T18:12:10Z</time>
      </trkpt>
      <trkpt lat="43.8654" lon="5.77828">
        <ele>582</ele>
        <time>2017-03-26T18:12:15Z</time>
      </trkpt>
      <trkpt lat="43.86535" lon="5.77804">
        <ele>582</ele>
        <time>2017-03-26T18:12:32Z</time>
      </trkpt>
      <trkpt lat="43.86528" lon="5.77787">
        <ele>582</ele>
        <time>2017-03-26T18:12:41Z</time>
      </trkpt>
      <trkpt lat="43.86517" lon="5.77771">
        <ele>583</ele>
        <time>2017-03-26T18:12:43Z</time>
      </trkpt>
      <trkpt lat="43.86494" lon="5.77751">
        <ele>588</ele>
        <time>2017-03-26T18:12:47Z</time>
      </trkpt>
      <trkpt lat="43.86474" lon="5.77743">
        <ele>582</ele>
        <time>2017-03-26T18:12:57Z</time>
      </trkpt>
      <trkpt lat="43.86461" lon="5.77742">
        <ele>581</ele>
        <time>2017-03-26T18:13:07Z</time>
      </trkpt>
      <trkpt lat="43.86456" lon="5.77743">
        <ele>581</ele>
        <time>2017-03-26T18:13:27Z</time>
      </trkpt>
      <trkpt lat="43.86449" lon="5.77746">
        <ele>582</ele>
        <time>2017-03-26T18:13:29Z</time>
      </trkpt>
      <trkpt lat="43.86434" lon="5.77763">
        <ele>591</ele>
        <time>2017-03-26T18:13:41Z</time>
      </trkpt>
      <trkpt lat="43.86383" lon="5.77823">
        <ele>601</ele>
        <time>2017-03-26T18:13:59Z</time>
      </trkpt>
      <trkpt lat="43.86367" lon="5.77846">
        <ele>605</ele>
        <time>2017-03-26T18:14:02Z</time>
      </trkpt>
      <trkpt lat="43.86352" lon="5.77889">
        <ele>605</ele>
        <time>2017-03-26T18:14:11Z</time>
      </trkpt>
      <trkpt lat="43.86344" lon="5.7791">
        <ele>603</ele>
        <time>2017-03-26T18:14:17Z</time>
      </trkpt>
      <trkpt lat="43.86331" lon="5.77927">
        <ele>599</ele>
        <time>2017-03-26T18:14:23Z</time>
      </trkpt>
      <trkpt lat="43.86312" lon="5.7795">
        <ele>598</ele>
        <time>2017-03-26T18:14:35Z</time>
      </trkpt>
      <trkpt lat="43.86305" lon="5.77954">
        <ele>597</ele>
        <time>2017-03-26T18:14:53Z</time>
      </trkpt>
      <trkpt lat="43.86295" lon="5.77962">
        <ele>597</ele>
        <time>2017-03-26T18:15:09Z</time>
      </trkpt>
      <trkpt lat="43.86283" lon="5.77967">
        <ele>596</ele>
        <time>2017-03-26T18:15:18Z</time>
      </trkpt>
      <trkpt lat="43.86255" lon="5.77971">
        <ele>595</ele>
        <time>2017-03-26T18:15:21Z</time>
      </trkpt>
      <trkpt lat="43.86227" lon="5.77965">
        <ele>596</ele>
        <time>2017-03-26T18:15:34Z</time>
      </trkpt>
      <trkpt lat="43.86215" lon="5.77964">
        <ele>596</ele>
        <time>2017-03-26T18:15:49Z</time>
      </trkpt>
      <trkpt lat="43.86203" lon="5.77969">
        <ele>595</ele>
        <time>2017-03-26T18:16:09Z</time>
      </trkpt>
      <trkpt lat="43.86177" lon="5.77981">
        <ele>592</ele>
        <time>2017-03-26T18:16:22Z</time>
      </trkpt>
      <trkpt lat="43.86133" lon="5.77994">
        <ele>591</ele>
        <time>2017-03-26T18:16:30Z</time>
      </trkpt>
      <trkpt lat="43.86121" lon="5.77996">
        <ele>590</ele>
        <time>2017-03-26T18:16:36Z</time>
      </trkpt>
      <trkpt lat="43.86111" lon="5.77994">
        <ele>590</ele>
        <time>2017-03-26T18:16:54Z</time>
      </trkpt>
      <trkpt lat="43.8609" lon="5.77981">
        <ele>589</ele>
        <time>2017-03-26T18:17:02Z</time>
      </trkpt>
      <trkpt lat="43.86071" lon="5.77969">
        <ele>586</ele>
        <time>2017-03-26T18:17:08Z</time>
      </trkpt>
      <trkpt lat="43.86045" lon="5.77957">
        <ele>586</ele>
        <time>2017-03-26T18:17:17Z</time>
      </trkpt>
      <trkpt lat="43.86012" lon="5.77946">
        <ele>586</ele>
        <time>2017-03-26T18:17:23Z</time>
      </trkpt>
      <trkpt lat="43.85988" lon="5.77938">
        <ele>577</ele>
        <time>2017-03-26T18:17:30Z</time>
      </trkpt>
      <trkpt lat="43.85975" lon="5.77933">
        <ele>576</ele>
        <time>2017-03-26T18:17:47Z</time>
      </trkpt>
      <trkpt lat="43.85956" lon="5.77922">
        <ele>574</ele>
        <time>2017-03-26T18:18:02Z</time>
      </trkpt>
      <trkpt lat="43.85936" lon="5.77904">
        <ele>583</ele>
        <time>2017-03-26T18:18:11Z</time>
      </trkpt>
      <trkpt lat="43.85916" lon="5.77896">
        <ele>571</ele>
        <time>2017-03-26T18:18:31Z</time>
      </trkpt>
      <trkpt lat="43.85895" lon="5.77886">
        <ele>570</ele>
        <time>2017-03-26T18:18:44Z</time>
      </trkpt>
      <trkpt lat="43.85889" lon="5.77878">
        <ele>570</ele>
        <time>2017-03-26T18:18:53Z</time>
      </trkpt>
      <trkpt lat="43.85887" lon="5.77868">
        <ele>571</ele>
        <time>2017-03-26T18:19:06Z</time>
      </trkpt>
      <trkpt lat="43.85884" lon="5.77816">
        <ele>581</ele>
        <time>2017-03-26T18:19:22Z</time>
      </trkpt>
      <trkpt lat="43.85877" lon="5.77783">
        <ele>581</ele>
        <time>2017-03-26T18:19:28Z</time>
      </trkpt>
      <trkpt lat="43.85868" lon="5.7776">
        <ele>581</ele>
        <time>2017-03-26T18:19:43Z</time>
      </trkpt>
      <trkpt lat="43.85861" lon="5.77751">
        <ele>580</ele>
        <time>2017-03-26T18:19:48Z</time>
      </trkpt>
      <trkpt lat="43.85848" lon="5.77738">
        <ele>583</ele>
        <time>2017-03-26T18:20:06Z</time>
      </trkpt>
      <trkpt lat="43.85814" lon="5.77716">
        <ele>572</ele>
        <time>2017-03-26T18:20:10Z</time>
      </trkpt>
      <trkpt lat="43.85791" lon="5.77698">
        <ele>571</ele>
        <time>2017-03-26T18:20:15Z</time>
      </trkpt>
      <trkpt lat="43.85781" lon="5.77689">
        <ele>571</ele>
        <time>2017-03-26T18:20:19Z</time>
      </trkpt>
      <trkpt lat="43.85769" lon="5.77672">
        <ele>570</ele>
        <time>2017-03-26T18:20:34Z</time>
      </trkpt>
      <trkpt lat="43.85765" lon="5.77662">
        <ele>571</ele>
        <time>2017-03-26T18:20:43Z</time>
      </trkpt>
      <trkpt lat="43.85765" lon="5.77652">
        <ele>572</ele>
        <time>2017-03-26T18:21:01Z</time>
      </trkpt>
      <trkpt lat="43.8577" lon="5.77631">
        <ele>573</ele>
        <time>2017-03-26T18:21:11Z</time>
      </trkpt>
      <trkpt lat="43.85784" lon="5.77606">
        <ele>574</ele>
        <time>2017-03-26T18:21:17Z</time>
      </trkpt>
      <trkpt lat="43.85795" lon="5.77589">
        <ele>575</ele>
        <time>2017-03-26T18:21:35Z</time>
      </trkpt>
      <trkpt lat="43.85811" lon="5.77557">
        <ele>571</ele>
        <time>2017-03-26T18:21:49Z</time>
      </trkpt>
      <trkpt lat="43.85818" lon="5.77531">
        <ele>570</ele>
        <time>2017-03-26T18:22:02Z</time>
      </trkpt>
      <trkpt lat="43.85837" lon="5.77444">
        <ele>583</ele>
        <time>2017-03-26T18:22:05Z</time>
      </trkpt>
      <trkpt lat="43.8584" lon="5.77428">
        <ele>579</ele>
        <time>2017-03-26T18:22:10Z</time>
      </trkpt>
      <trkpt lat="43.85839" lon="5.77413">
        <ele>577</ele>
        <time>2017-03-26T18:22:30Z</time>
      </trkpt>
      <trkpt lat="43.85832" lon="5.77387">
        <ele>572</ele>
        <time>2017-03-26T18:22:34Z</time>
      </trkpt>
      <trkpt lat="43.85821" lon="5.77365">
        <ele>573</ele>
        <time>2017-03-26T18:22:40Z</time>
      </trkpt>
      <trkpt lat="43.85806" lon="5.77347">
        <ele>574</ele>
        <time>2017-03-26T18:23:00Z</time>
      </trkpt>
      <trkpt lat="43.85795" lon="5.77339">
        <ele>573</ele>
        <time>2017-03-26T18:23:08Z</time>
      </trkpt>
      <trkpt lat="43.85773" lon="5.77328">
        <ele>580</ele>
        <time>2017-03-26T18:23:21Z</time>
      </trkpt>
      <trkpt lat="43.85763" lon="5.77329">
        <ele>577</ele>
        <time>2017-03-26T18:23:24Z</time>
      </trkpt>
      <trkpt lat="43.85748" lon="5.77338">
        <ele>572</ele>
        <time>2017-03-26T18:23:36Z</time>
      </trkpt>
      <trkpt lat="43.85729" lon="5.77358">
        <ele>571</ele>
        <time>2017-03-26T18:23:39Z</time>
      </trkpt>
      <trkpt lat="43.85712" lon="5.77376">
        <ele>570</ele>
        <time>2017-03-26T18:23:42Z</time>
      </trkpt>
      <trkpt lat="43.85681" lon="5.77413">
        <ele>567</ele>
        <time>2017-03-26T18:23:48Z</time>
      </trkpt>
      <trkpt lat="43.85664" lon="5.77425">
        <ele>562</ele>
        <time>2017-03-26T18:23:58Z</time>
      </trkpt>
      <trkpt lat="43.85643" lon="5.77435">
        <ele>558</ele>
        <time>2017-03-26T18:24:02Z</time>
      </trkpt>
      <trkpt lat="43.85586" lon="5.77452">
        <ele>556</ele>
        <time>2017-03-26T18:24:07Z</time>
      </trkpt>
      <trkpt lat="43.85562" lon="5.7746">
        <ele>552</ele>
        <time>2017-03-26T18:24:24Z</time>
      </trkpt>
      <trkpt lat="43.85539" lon="5.77463">
        <ele>550</ele>
        <time>2017-03-26T18:24:36Z</time>
      </trkpt>
      <trkpt lat="43.8553" lon="5.7746">
        <ele>550</ele>
        <time>2017-03-26T18:24:54Z</time>
      </trkpt>
      <trkpt lat="43.85521" lon="5.77455">
        <ele>550</ele>
        <time>2017-03-26T18:25:13Z</time>
      </trkpt>
      <trkpt lat="43.85504" lon="5.7744">
        <ele>552</ele>
        <time>2017-03-26T18:25:19Z</time>
      </trkpt>
      <trkpt lat="43.85493" lon="5.77422">
        <ele>549</ele>
        <time>2017-03-26T18:25:28Z</time>
      </trkpt>
      <trkpt lat="43.85487" lon="5.77409">
        <ele>553</ele>
        <time>2017-03-26T18:25:40Z</time>
      </trkpt>
      <trkpt lat="43.85477" lon="5.77387">
        <ele>553</ele>
        <time>2017-03-26T18:25:57Z</time>
      </trkpt>
      <trkpt lat="43.85466" lon="5.77371">
        <ele>553</ele>
        <time>2017-03-26T18:26:08Z</time>
      </trkpt>
      <trkpt lat="43.85447" lon="5.77354">
        <ele>551</ele>
        <time>2017-03-26T18:26:10Z</time>
      </trkpt>
      <trkpt lat="43.85427" lon="5.77342">
        <ele>548</ele>
        <time>2017-03-26T18:26:30Z</time>
      </trkpt>
      <trkpt lat="43.85406" lon="5.77333">
        <ele>545</ele>
        <time>2017-03-26T18:26:48Z</time>
      </trkpt>
      <trkpt lat="43.85386" lon="5.77325">
        <ele>543</ele>
        <time>2017-03-26T18:26:52Z</time>
      </trkpt>
      <trkpt lat="43.85378" lon="5.7732">
        <ele>542</ele>
        <time>2017-03-26T18:27:06Z</time>
      </trkpt>
      <trkpt lat="43.8537" lon="5.7731">
        <ele>541</ele>
        <time>2017-03-26T18:27:18Z</time>
      </trkpt>
      <trkpt lat="43.85362" lon="5.7729">
        <ele>541</ele>
        <time>2017-03-26T18:27:37Z</time>
      </trkpt>
      <trkpt lat="43.85356" lon="5.77251">
        <ele>541</ele>
        <time>2017-03-26T18:27:49Z</time>
      </trkpt>
      <trkpt lat="43.85356" lon="5.7722">
        <ele>545</ele>
        <time>2017-03-26T18:28:08Z</time>
      </trkpt>
      <trkpt lat="43.85359" lon="5.77188">
        <ele>545</ele>
        <time>2017-03-26T18:28:19Z</time>
      </trkpt>
      <trkpt lat="43.85364" lon="5.77154">
        <ele>547</ele>
        <time>2017-03-26T18:28:39Z</time>
      </trkpt>
      <trkpt lat="43.85364" lon="5.77129">
        <ele>548</ele>
        <time>2017-03-26T18:28:42Z</time>
      </trkpt>
      <trkpt lat="43.85338" lon="5.77025">
        <ele>548</ele>
        <time>2017-03-26T18:28:57Z</time>
      </trkpt>
      <trkpt lat="43.85325" lon="5.76986">
        <ele>535</ele>
        <time>2017-03-26T18:29:00Z</time>
      </trkpt>
      <trkpt lat="43.85312" lon="5.76958">
        <ele>531</ele>
        <time>2017-03-26T18:29:06Z</time>
      </trkpt>
      <trkpt lat="43.85307" lon="5.76932">
        <ele>531</ele>
        <time>2017-03-26T18:29:15Z</time>
      </trkpt>
      <trkpt lat="43.8531" lon="5.76909">
        <ele>533</ele>
        <time>2017-03-26T18:29:30Z</time>
      </trkpt>
      <trkpt lat="43.85319" lon="5.76887">
        <ele>532</ele>
        <time>2017-03-26T18:29:37Z</time>
      </trkpt>
      <trkpt lat="43.85336" lon="5.76855">
        <ele>545</ele>
        <time>2017-03-26T18:29:40Z</time>
      </trkpt>
      <trkpt lat="43.8535" lon="5.76826">
        <ele>543</ele>
        <time>2017-03-26T18:29:45Z</time>
      </trkpt>
      <trkpt lat="43.85352" lon="5.76818">
        <ele>545</ele>
        <time>2017-03-26T18:30:03Z</time>
      </trkpt>
      <trkpt lat="43.85352" lon="5.76809">
        <ele>546</ele>
        <time>2017-03-26T18:30:23Z</time>
      </trkpt>
      <trkpt lat="43.8535" lon="5.76802">
        <ele>547</ele>
        <time>2017-03-26T18:30:29Z</time>
      </trkpt>
      <trkpt lat="43.85343" lon="5.76797">
        <ele>546</ele>
        <time>2017-03-26T18:30:48Z</time>
      </trkpt>
      <trkpt lat="43.85321" lon="5.76797">
        <ele>536</ele>
        <time>2017-03-26T18:31:01Z</time>
      </trkpt>
      <trkpt lat="43.85293" lon="5.76793">
        <ele>535</ele>
        <time>2017-03-26T18:31:06Z</time>
      </trkpt>
      <trkpt lat="43.85275" lon="5.76791">
        <ele>534</ele>
        <time>2017-03-26T18:31:21Z</time>
      </trkpt>
      <trkpt lat="43.85261" lon="5.76791">
        <ele>533</ele>
        <time>2017-03-26T18:31:27Z</time>
      </trkpt>
      <trkpt lat="43.85237" lon="5.76794">
        <ele>531</ele>
        <time>2017-03-26T18:31:29Z</time>
      </trkpt>
      <trkpt lat="43.85228" lon="5.76797">
        <ele>531</ele>
        <time>2017-03-26T18:31:34Z</time>
      </trkpt>
      <trkpt lat="43.8522" lon="5.76804">
        <ele>530</ele>
        <time>2017-03-26T18:31:40Z</time>
      </trkpt>
      <trkpt lat="43.85201" lon="5.76816">
        <ele>530</ele>
        <time>2017-03-26T18:31:44Z</time>
      </trkpt>
      <trkpt lat="43.85181" lon="5.76821">
        <ele>530</ele>
        <time>2017-03-26T18:31:56Z</time>
      </trkpt>
      <trkpt lat="43.85168" lon="5.76824">
        <ele>529</ele>
        <time>2017-03-26T18:32:05Z</time>
      </trkpt>
      <trkpt lat="43.85159" lon="5.7683">
        <ele>532</ele>
        <time>2017-03-26T18:32:14Z</time>
      </trkpt>
      <trkpt lat="43.85155" lon="5.76845">
        <ele>530</ele>
        <time>2017-03-26T18:32:28Z</time>
      </trkpt>
      <trkpt lat="43.85155" lon="5.7687">
        <ele>530</ele>
        <time>2017-03-26T18:32:45Z</time>
      </trkpt>
      <trkpt lat="43.85154" lon="5.76892">
        <ele>528</ele>
        <time>2017-03-26T18:32:59Z</time>
      </trkpt>
      <trkpt lat="43.85149" lon="5.76914">
        <ele>526</ele>
        <time>2017-03-26T18:33:16Z</time>
      </trkpt>
      <trkpt lat="43.85141" lon="5.76931">
        <ele>522</ele>
        <time>2017-03-26T18:33:27Z</time>
      </trkpt>
      <trkpt lat="43.85128" lon="5.76948">
        <ele>523</ele>
        <time>2017-03-26T18:33:40Z</time>
      </trkpt>
      <trkpt lat="43.85116" lon="5.7696">
        <ele>523</ele>
        <time>2017-03-26T18:33:58Z</time>
      </trkpt>
      <trkpt lat="43.8511" lon="5.76973">
        <ele>523</ele>
        <time>2017-03-26T18:34:06Z</time>
      </trkpt>
      <trkpt lat="43.85104" lon="5.7701">
        <ele>517</ele>
        <time>2017-03-26T18:34:14Z</time>
      </trkpt>
      <trkpt lat="43.8509" lon="5.77046">
        <ele>515</ele>
        <time>2017-03-26T18:34:16Z</time>
      </trkpt>
      <trkpt lat="43.85079" lon="5.77077">
        <ele>520</ele>
        <time>2017-03-26T18:34:29Z</time>
      </trkpt>
      <trkpt lat="43.85074" lon="5.77095">
        <ele>516</ele>
        <time>2017-03-26T18:34:37Z</time>
      </trkpt>
      <trkpt lat="43.85075" lon="5.77117">
        <ele>515</ele>
        <time>2017-03-26T18:34:57Z</time>
      </trkpt>
      <trkpt lat="43.85076" lon="5.77139">
        <ele>513</ele>
        <time>2017-03-26T18:35:00Z</time>
      </trkpt>
      <trkpt lat="43.85074" lon="5.77168">
        <ele>505</ele>
        <time>2017-03-26T18:35:02Z</time>
      </trkpt>
      <trkpt lat="43.8506" lon="5.77225">
        <ele>501</ele>
        <time>2017-03-26T18:35:07Z</time>
      </trkpt>
      <trkpt lat="43.8505" lon="5.77246">
        <ele>500</ele>
        <time>2017-03-26T18:35:21Z</time>
      </trkpt>
      <trkpt lat="43.85042" lon="5.77253">
        <ele>491</ele>
        <time>2017-03-26T18:35:40Z</time>
      </trkpt>
      <trkpt lat="43.85029" lon="5.77252">
        <ele>492</ele>
        <time>2017-03-26T18:35:52Z</time>
      </trkpt>
      <trkpt lat="43.85018" lon="5.77244">
        <ele>502</ele>
        <time>2017-03-26T18:36:04Z</time>
      </trkpt>
      <trkpt lat="43.84989" lon="5.77203">
        <ele>509</ele>
        <time>2017-03-26T18:36:17Z</time>
      </trkpt>
      <trkpt lat="43.84973" lon="5.77185">
        <ele>510</ele>
        <time>2017-03-26T18:36:30Z</time>
      </trkpt>
      <trkpt lat="43.84965" lon="5.77176">
        <ele>511</ele>
        <time>2017-03-26T18:36:33Z</time>
      </trkpt>
      <trkpt lat="43.84954" lon="5.7717">
        <ele>511</ele>
        <time>2017-03-26T18:36:46Z</time>
      </trkpt>
      <trkpt lat="43.84946" lon="5.7717">
        <ele>511</ele>
        <time>2017-03-26T18:36:54Z</time>
      </trkpt>
      <trkpt lat="43.84942" lon="5.77172">
        <ele>511</ele>
        <time>2017-03-26T18:37:13Z</time>
      </trkpt>
      <trkpt lat="43.84933" lon="5.77185">
        <ele>511</ele>
        <time>2017-03-26T18:37:23Z</time>
      </trkpt>
      <trkpt lat="43.84919" lon="5.77221">
        <ele>506</ele>
        <time>2017-03-26T18:37:25Z</time>
      </trkpt>
      <trkpt lat="43.84903" lon="5.77264">
        <ele>498</ele>
        <time>2017-03-26T18:37:41Z</time>
      </trkpt>
      <trkpt lat="43.84889" lon="5.77292">
        <ele>496</ele>
        <time>2017-03-26T18:37:59Z</time>
      </trkpt>
      <trkpt lat="43.84876" lon="5.77306">
        <ele>494</ele>
        <time>2017-03-26T18:38:01Z</time>
      </trkpt>
      <trkpt lat="43.84863" lon="5.77311">
        <ele>494</ele>
        <time>2017-03-26T18:38:09Z</time>
      </trkpt>
      <trkpt lat="43.84847" lon="5.77311">
        <ele>493</ele>
        <time>2017-03-26T18:38:28Z</time>
      </trkpt>
      <trkpt lat="43.84843" lon="5.77309">
        <ele>493</ele>
        <time>2017-03-26T18:38:34Z</time>
      </trkpt>
      <trkpt lat="43.84829" lon="5.77296">
        <ele>497</ele>
        <time>2017-03-26T18:38:37Z</time>
      </trkpt>
      <trkpt lat="43.84812" lon="5.7728">
        <ele>500</ele>
        <time>2017-03-26T18:38:51Z</time>
      </trkpt>
      <trkpt lat="43.84795" lon="5.77264">
        <ele>501</ele>
        <time>2017-03-26T18:38:59Z</time>
      </trkpt>
      <trkpt lat="43.84781" lon="5.77254">
        <ele>502</ele>
        <time>2017-03-26T18:39:11Z</time>
      </trkpt>
      <trkpt lat="43.84775" lon="5.77254">
        <ele>503</ele>
        <time>2017-03-26T18:39:16Z</time>
      </trkpt>
      <trkpt lat="43.84765" lon="5.7726">
        <ele>503</ele>
        <time>2017-03-26T18:39:34Z</time>
      </trkpt>
      <trkpt lat="43.84752" lon="5.77289">
        <ele>498</ele>
        <time>2017-03-26T18:39:42Z</time>
      </trkpt>
      <trkpt lat="43.84727" lon="5.77345">
        <ele>481</ele>
        <time>2017-03-26T18:39:53Z</time>
      </trkpt>
      <trkpt lat="43.84715" lon="5.77363">
        <ele>478</ele>
        <time>2017-03-26T18:39:57Z</time>
      </trkpt>
      <trkpt lat="43.84709" lon="5.77367">
        <ele>478</ele>
        <time>2017-03-26T18:40:15Z</time>
      </trkpt>
      <trkpt lat="43.84702" lon="5.77369">
        <ele>478</ele>
        <time>2017-03-26T18:40:31Z</time>
      </trkpt>
      <trkpt lat="43.84689" lon="5.77367">
        <ele>479</ele>
        <time>2017-03-26T18:40:40Z</time>
      </trkpt>
      <trkpt lat="43.8466" lon="5.77361">
        <ele>481</ele>
        <time>2017-03-26T18:40:57Z</time>
      </trkpt>
      <trkpt lat="43.8465" lon="5.77356">
        <ele>482</ele>
        <time>2017-03-26T18:41:02Z</time>
      </trkpt>
      <trkpt lat="43.84557" lon="5.77305">
        <ele>485</ele>
        <time>2017-03-26T18:41:11Z</time>
      </trkpt>
      <trkpt lat="43.84533" lon="5.77291">
        <ele>484</ele>
        <time>2017-03-26T18:41:19Z</time>
      </trkpt>
      <trkpt lat="43.84523" lon="5.77287">
        <ele>484</ele>
        <time>2017-03-26T18:41:39Z</time>
      </trkpt>
      <trkpt lat="43.84505" lon="5.77284">
        <ele>483</ele>
        <time>2017-03-26T18:41:44Z</time>
      </trkpt>
      <trkpt lat="43.84481" lon="5.77284">
        <ele>477</ele>
        <time>2017-03-26T18:41:57Z</time>
      </trkpt>
      <trkpt lat="43.84457" lon="5.77289">
        <ele>476</ele>
        <time>2017-03-26T18:42:11Z</time>
      </trkpt>
      <trkpt lat="43.84431" lon="5.77294">
        <ele>475</ele>
        <time>2017-03-26T18:42:30Z</time>
      </trkpt>
      <trkpt lat="43.84422" lon="5.77301">
        <ele>475</ele>
        <time>2017-03-26T18:42:44Z</time>
      </trkpt>
      <trkpt lat="43.84412" lon="5.77318">
        <ele>472</ele>
        <time>2017-03-26T18:42:50Z</time>
      </trkpt>
      <trkpt lat="43.84407" lon="5.77329">
        <ele>471</ele>
        <time>2017-03-26T18:42:52Z</time>
      </trkpt>
      <trkpt lat="43.844" lon="5.77356">
        <ele>467</ele>
        <time>2017-03-26T18:43:08Z</time>
      </trkpt>
      <trkpt lat="43.84391" lon="5.77383">
        <ele>465</ele>
        <time>2017-03-26T18:43:18Z</time>
      </trkpt>
      <trkpt lat="43.84385" lon="5.77392">
        <ele>465</ele>
        <time>2017-03-26T18:43:31Z</time>
      </trkpt>
      <trkpt lat="43.84378" lon="5.77398">
        <ele>465</ele>
        <time>2017-03-26T18:43:37Z</time>
      </trkpt>
      <trkpt lat="43.8437" lon="5.77401">
        <ele>465</ele>
        <time>2017-03-26T18:43:54Z</time>
      </trkpt>
      <trkpt lat="43.84359" lon="5.77403">
        <ele>465</ele>
        <time>2017-03-26T18:44:11Z</time>
      </trkpt>
      <trkpt lat="43.84337" lon="5.77402">
        <ele>465</ele>
        <time>2017-03-26T18:44:24Z</time>
      </trkpt>
      <trkpt lat="43.84319" lon="5.77396">
        <ele>462</ele>
        <time>2017-03-26T18:44:26Z</time>
      </trkpt>
      <trkpt lat="43.84308" lon="5.77388">
        <ele>461</ele>
        <time>2017-03-26T18:44:28Z</time>
      </trkpt>
      <trkpt lat="43.843" lon="5.77376">
        <ele>461</ele>
        <time>2017-03-26T18:44:32Z</time>
      </trkpt>
      <trkpt lat="43.84291" lon="5.77351">
        <ele>461</ele>
        <time>2017-03-26T18:44:50Z</time>
      </trkpt>
      <trkpt lat="43.84283" lon="5.77292">
        <ele>462</ele>
        <time>2017-03-26T18:44:53Z</time>
      </trkpt>
      <trkpt lat="43.84272" lon="5.77226">
        <ele>461</ele>
        <time>2017-03-26T18:45:07Z</time>
      </trkpt>
      <trkpt lat="43.84266" lon="5.77205">
        <ele>462</ele>
        <time>2017-03-26T18:45:14Z</time>
      </trkpt>
      <trkpt lat="43.8426" lon="5.77194">
        <ele>461</ele>
        <time>2017-03-26T18:45:21Z</time>
      </trkpt>
      <trkpt lat="43.84245" lon="5.77177">
        <ele>457</ele>
        <time>2017-03-26T18:45:27Z</time>
      </trkpt>
      <trkpt lat="43.84212" lon="5.77165">
        <ele>456</ele>
        <time>2017-03-26T18:45:40Z</time>
      </trkpt>
      <trkpt lat="43.84174" lon="5.77147">
        <ele>453</ele>
        <time>2017-03-26T18:45:58Z</time>
      </trkpt>
      <trkpt lat="43.84163" lon="5.77139">
        <ele>449</ele>
        <time>2017-03-26T18:46:03Z</time>
      </trkpt>
      <trkpt lat="43.8412" lon="5.77118">
        <ele>448</ele>
        <time>2017-03-26T18:46:11Z</time>
      </trkpt>
      <trkpt lat="43.84093" lon="5.77105">
        <ele>448</ele>
        <time>2017-03-26T18:46:13Z</time>
      </trkpt>
      <trkpt lat="43.84075" lon="5.77101">
        <ele>445</ele>
        <time>2017-03-26T18:46:21Z</time>
      </trkpt>
      <trkpt lat="43.84067" lon="5.771">
        <ele>444</ele>
        <time>2017-03-26T18:46:40Z</time>
      </trkpt>
      <trkpt lat="43.84052" lon="5.77103">
        <ele>444</ele>
        <time>2017-03-26T18:46:53Z</time>
      </trkpt>
      <trkpt lat="43.84019" lon="5.77117">
        <ele>442</ele>
        <time>2017-03-26T18:47:13Z</time>
      </trkpt>
      <trkpt lat="43.83961" lon="5.77143">
        <ele>441</ele>
        <time>2017-03-26T18:47:20Z</time>
      </trkpt>
      <trkpt lat="43.83944" lon="5.77155">
        <ele>441</ele>
        <time>2017-03-26T18:47:22Z</time>
      </trkpt>
      <trkpt lat="43.83933" lon="5.7717">
        <ele>440</ele>
        <time>2017-03-26T18:47:29Z</time>
      </trkpt>
      <trkpt lat="43.83924" lon="5.77189">
        <ele>440</ele>
        <time>2017-03-26T18:47:34Z</time>
      </trkpt>
      <trkpt lat="43.8392" lon="5.77215">
        <ele>439</ele>
        <time>2017-03-26T18:47:51Z</time>
      </trkpt>
      <trkpt lat="43.83924" lon="5.77265">
        <ele>435</ele>
        <time>2017-03-26T18:48:01Z</time>
      </trkpt>
      <trkpt lat="43.8393" lon="5.7734">
        <ele>428</ele>
        <time>2017-03-26T18:48:04Z</time>
      </trkpt>
      <trkpt lat="43.83938" lon="5.77367">
        <ele>427</ele>
        <time>2017-03-26T18:48:18Z</time>
      </trkpt>
      <trkpt lat="43.83946" lon="5.77382">
        <ele>426</ele>
        <time>2017-03-26T18:48:30Z</time>
      </trkpt>
      <trkpt lat="43.83957" lon="5.77396">
        <ele>426</ele>
        <time>2017-03-26T18:48:45Z</time>
      </trkpt>
      <trkpt lat="43.83978" lon="5.77427">
        <ele>422</ele>
        <time>2017-03-26T18:49:01Z</time>
      </trkpt>
      <trkpt lat="43.83986" lon="5.77444">
        <ele>421</ele>
        <time>2017-03-26T18:49:20Z</time>
      </trkpt>
      <trkpt lat="43.83988" lon="5.77458">
        <ele>420</ele>
        <time>2017-03-26T18:49:24Z</time>
      </trkpt>
      <trkpt lat="43.83999" lon="5.77507">
        <ele>417</ele>
        <time>2017-03-26T18:49:27Z</time>
      </trkpt>
      <trkpt lat="43.84" lon="5.77536">
        <ele>416</ele>
        <time>2017-03-26T18:49:30Z</time>
      </trkpt>
      <trkpt lat="43.83994" lon="5.77569">
        <ele>414</ele>
        <time>2017-03-26T18:49:41Z</time>
      </trkpt>
      <trkpt lat="43.83975" lon="5.77629">
        <ele>411</ele>
        <time>2017-03-26T18:49:49Z</time>
      </trkpt>
      <trkpt lat="43.83964" lon="5.77687">
        <ele>408</ele>
        <time>2017-03-26T18:50:07Z</time>
      </trkpt>
      <trkpt lat="43.83964" lon="5.77716">
        <ele>407</ele>
        <time>2017-03-26T18:50:18Z</time>
      </trkpt>
      <trkpt lat="43.83969" lon="5.77752">
        <ele>405</ele>
        <time>2017-03-26T18:50:26Z</time>
      </trkpt>
      <trkpt lat="43.83974" lon="5.77793">
        <ele>404</ele>
        <time>2017-03-26T18:50:38Z</time>
      </trkpt>
      <trkpt lat="43.83975" lon="5.77821">
        <ele>404</ele>
        <time>2017-03-26T18:50:48Z</time>
      </trkpt>
      <trkpt lat="43.83973" lon="5.77894">
        <ele>404</ele>
        <time>2017-03-26T18:51:04Z</time>
      </trkpt>
      <trkpt lat="43.83972" lon="5.77908">
        <ele>404</ele>
        <time>2017-03-26T18:51:17Z</time>
      </trkpt>
      <trkpt lat="43.83967" lon="5.77924">
        <ele>404</ele>
        <time>2017-03-26T18:51:22Z</time>
      </trkpt>
      <trkpt lat="43.83957" lon="5.77938">
        <ele>404</ele>
        <time>2017-03-26T18:51:31Z</time>
      </trkpt>
      <trkpt lat="43.83946" lon="5.77945">
        <ele>403</ele>
        <time>2017-03-26T18:51:35Z</time>
      </trkpt>
      <trkpt lat="43.83895" lon="5.77978">
        <ele>399</ele>
        <time>2017-03-26T18:51:40Z</time>
      </trkpt>
      <trkpt lat="43.83824" lon="5.78027">
        <ele>395</ele>
        <time>2017-03-26T18:51:57Z</time>
      </trkpt>
      <trkpt lat="43.83787" lon="5.78057">
        <ele>395</ele>
        <time>2017-03-26T18:52:08Z</time>
      </trkpt>
      <trkpt lat="43.83742" lon="5.78095">
        <ele>395</ele>
        <time>2017-03-26T18:52:12Z</time>
      </trkpt>
      <trkpt lat="43.83716" lon="5.78109">
        <ele>394</ele>
        <time>2017-03-26T18:52:24Z</time>
      </trkpt>
      <trkpt lat="43.83681" lon="5.78122">
        <ele>394</ele>
        <time>2017-03-26T18:52:36Z</time>
      </trkpt>
      <trkpt lat="43.83642" lon="5.78134">
        <ele>393</ele>
        <time>2017-03-26T18:52:56Z</time>
      </trkpt>
      <trkpt lat="43.83607" lon="5.7814">
        <ele>393</ele>
        <time>2017-03-26T18:53:15Z</time>
      </trkpt>
      <trkpt lat="43.83579" lon="5.78148">
        <ele>392</ele>
        <time>2017-03-26T18:53:17Z</time>
      </trkpt>
      <trkpt lat="43.83537" lon="5.78154">
        <ele>391</ele>
        <time>2017-03-26T18:53:21Z</time>
      </trkpt>
      <trkpt lat="43.83505" lon="5.78152">
        <ele>390</ele>
        <time>2017-03-26T18:53:29Z</time>
      </trkpt>
      <trkpt lat="43.83456" lon="5.78147">
        <ele>387</ele>
        <time>2017-03-26T18:53:32Z</time>
      </trkpt>
      <trkpt lat="43.83423" lon="5.78138">
        <ele>387</ele>
        <time>2017-03-26T18:53:50Z</time>
      </trkpt>
      <trkpt lat="43.83406" lon="5.78131">
        <ele>385</ele>
        <time>2017-03-26T18:54:05Z</time>
      </trkpt>
      <trkpt lat="43.8337" lon="5.78119">
        <ele>385</ele>
        <time>2017-03-26T18:54:11Z</time>
      </trkpt>
      <trkpt lat="43.83361" lon="5.78116">
        <ele>384</ele>
        <time>2017-03-26T18:54:20Z</time>
      </trkpt>
      <trkpt lat="43.83348" lon="5.78118">
        <ele>384</ele>
        <time>2017-03-26T18:54:22Z</time>
      </trkpt>
      <trkpt lat="43.83322" lon="5.78115">
        <ele>382</ele>
        <time>2017-03-26T18:54:32Z</time>
      </trkpt>
      <trkpt lat="43.83294" lon="5.7812">
        <ele>381</ele>
        <time>2017-03-26T18:54:34Z</time>
      </trkpt>
      <trkpt lat="43.83274" lon="5.78126">
        <ele>381</ele>
        <time>2017-03-26T18:54:50Z</time>
      </trkpt>
      <trkpt lat="43.8325" lon="5.78136">
        <ele>381</ele>
        <time>2017-03-26T18:55:06Z</time>
      </trkpt>
      <trkpt lat="43.83227" lon="5.78152">
        <ele>377</ele>
        <time>2017-03-26T18:55:20Z</time>
      </trkpt>
      <trkpt lat="43.83207" lon="5.78169">
        <ele>381</ele>
        <time>2017-03-26T18:55:39Z</time>
      </trkpt>
      <trkpt lat="43.83187" lon="5.7819">
        <ele>380</ele>
        <time>2017-03-26T18:55:53Z</time>
      </trkpt>
      <trkpt lat="43.83169" lon="5.78214">
        <ele>381</ele>
        <time>2017-03-26T18:56:02Z</time>
      </trkpt>
      <trkpt lat="43.83157" lon="5.78241">
        <ele>378</ele>
        <time>2017-03-26T18:56:14Z</time>
      </trkpt>
      <trkpt lat="43.83147" lon="5.78282">
        <ele>379</ele>
        <time>2017-03-26T18:56:18Z</time>
      </trkpt>
      <trkpt lat="43.83142" lon="5.78347">
        <ele>381</ele>
        <time>2017-03-26T18:56:30Z</time>
      </trkpt>
      <trkpt lat="43.83146" lon="5.78369">
        <ele>380</ele>
        <time>2017-03-26T18:56:49Z</time>
      </trkpt>
      <trkpt lat="43.83156" lon="5.78399">
        <ele>380</ele>
        <time>2017-03-26T18:57:05Z</time>
      </trkpt>
      <trkpt lat="43.83162" lon="5.78414">
        <ele>381</ele>
        <time>2017-03-26T18:57:09Z</time>
      </trkpt>
      <trkpt lat="43.83141" lon="5.78426">
        <ele>378</ele>
        <time>2017-03-26T18:57:14Z</time>
      </trkpt>
      <trkpt lat="43.83118" lon="5.78441">
        <ele>377</ele>
        <time>2017-03-26T18:57:24Z</time>
      </trkpt>
      <trkpt lat="43.83097" lon="5.78445">
        <ele>376</ele>
        <time>2017-03-26T18:57:37Z</time>
      </trkpt>
      <trkpt lat="43.83083" lon="5.78454">
        <ele>374</ele>
        <time>2017-03-26T18:57:43Z</time>
      </trkpt>
      <trkpt lat="43.83066" lon="5.78463">
        <ele>374</ele>
        <time>2017-03-26T18:57:59Z</time>
      </trkpt>
      <trkpt lat="43.83065" lon="5.78462">
        <ele>374</ele>
        <time>2017-03-26T18:58:15Z</time>
      </trkpt>
      <trkpt lat="43.83064" lon="5.78461">
        <ele>374</ele>
        <time>2017-03-26T18:58:25Z</time>
      </trkpt>
      <trkpt lat="43.83062" lon="5.7846">
        <ele>374</ele>
        <time>2017-03-26T18:58:39Z</time>
      </trkpt>
      <trkpt lat="43.83059" lon="5.7846">
        <ele>373</ele>
        <time>2017-03-26T18:58:44Z</time>
      </trkpt>
      <trkpt lat="43.83057" lon="5.78463">
        <ele>373</ele>
        <time>2017-03-26T18:58:46Z</time>
      </trkpt>
      <trkpt lat="43.83057" lon="5.78469">
        <ele>373</ele>
        <time>2017-03-26T18:58:52Z</time>
      </trkpt>
      <trkpt lat="43.83051" lon="5.78476">
        <ele>373</ele>
        <time>2017-03-26T18:59:08Z</time>
      </trkpt>
      <trkpt lat="43.83042" lon="5.78486">
        <ele>373</ele>
        <time>2017-03-26T18:59:14Z</time>
      </trkpt>
      <trkpt lat="43.83009" lon="5.78507">
        <ele>372</ele>
        <time>2017-03-26T18:59:34Z</time>
      </trkpt>
      <trkpt lat="43.82983" lon="5.78528">
        <ele>370</ele>
        <time>2017-03-26T18:59:50Z</time>
      </trkpt>
      <trkpt lat="43.82911" lon="5.78572">
        <ele>367</ele>
        <time>2017-03-26T18:59:58Z</time>
      </trkpt>
      <trkpt lat="43.82816" lon="5.7863">
        <ele>361</ele>
        <time>2017-03-26T19:00:06Z</time>
      </trkpt>
      <trkpt lat="43.82801" lon="5.78638">
        <ele>361</ele>
        <time>2017-03-26T19:00:26Z</time>
      </trkpt>
      <trkpt lat="43.82785" lon="5.7865">
        <ele>360</ele>
        <time>2017-03-26T19:00:44Z</time>
      </trkpt>
      <trkpt lat="43.82737" lon="5.78676">
        <ele>358</ele>
        <time>2017-03-26T19:00:49Z</time>
      </trkpt>
      <trkpt lat="43.82691" lon="5.78704">
        <ele>355</ele>
        <time>2017-03-26T19:00:57Z</time>
      </trkpt>
      <trkpt lat="43.82656" lon="5.78722">
        <ele>349</ele>
        <time>2017-03-26T19:01:11Z</time>
      </trkpt>
      <trkpt lat="43.82629" lon="5.78739">
        <ele>348</ele>
        <time>2017-03-26T19:01:25Z</time>
      </trkpt>
      <trkpt lat="43.82599" lon="5.78757">
        <ele>346</ele>
        <time>2017-03-26T19:01:37Z</time>
      </trkpt>
      <trkpt lat="43.82577" lon="5.78767">
        <ele>343</ele>
        <time>2017-03-26T19:01:40Z</time>
      </trkpt>
      <trkpt lat="43.8257" lon="5.78768">
        <ele>342</ele>
        <time>2017-03-26T19:01:57Z</time>
      </trkpt>
      <trkpt lat="43.82565" lon="5.78766">
        <ele>342</ele>
        <time>2017-03-26T19:02:10Z</time>
      </trkpt>
      <trkpt lat="43.82562" lon="5.78763">
        <ele>342</ele>
        <time>2017-03-26T19:02:16Z</time>
      </trkpt>
      <trkpt lat="43.82558" lon="5.7876">
        <ele>342</ele>
        <time>2017-03-26T19:02:29Z</time>
      </trkpt>
      <trkpt lat="43.82551" lon="5.7876">
        <ele>341</ele>
        <time>2017-03-26T19:02:47Z</time>
      </trkpt>
      <trkpt lat="43.82544" lon="5.78765">
        <ele>341</ele>
        <time>2017-03-26T19:02:52Z</time>
      </trkpt>
      <trkpt lat="43.8254" lon="5.78774">
        <ele>341</ele>
        <time>2017-03-26T19:03:04Z</time>
      </trkpt>
      <trkpt lat="43.82539" lon="5.78783">
        <ele>341</ele>
        <time>2017-03-26T19:03:10Z</time>
      </trkpt>
      <trkpt lat="43.82541" lon="5.78791">
        <ele>341</ele>
        <time>2017-03-26T19:03:17Z</time>
      </trkpt>
      <trkpt lat="43.82542" lon="5.78802">
        <ele>341</ele>
        <time>2017-03-26T19:03:37Z</time>
      </trkpt>
      <trkpt lat="43.82539" lon="5.78818">
        <ele>341</ele>
        <time>2017-03-26T19:03:56Z</time>
      </trkpt>
      <trkpt lat="43.82536" lon="5.78826">
        <ele>341</ele>
        <time>2017-03-26T19:04:11Z</time>
      </trkpt>
      <trkpt lat="43.82528" lon="5.78841">
        <ele>341</ele>
        <time>2017-03-26T19:04:25Z</time>
      </trkpt>
      <trkpt lat="43.82479" lon="5.78908">
        <ele>338</ele>
        <time>2017-03-26T19:04:39Z</time>
      </trkpt>
      <trkpt lat="43.82367" lon="5.79058">
        <ele>332</ele>
        <time>2017-03-26T19:04:45Z</time>
      </trkpt>
      <trkpt lat="43.82334" lon="5.79095">
        <ele>331</ele>
        <time>2017-03-26T19:04:59Z</time>
      </trkpt>
      <trkpt lat="43.8232" lon="5.79112">
        <ele>330</ele>
        <time>2017-03-26T19:05:03Z</time>
      </trkpt>
      <trkpt lat="43.82301" lon="5.79127">
        <ele>330</ele>
        <time>2017-03-26T19:05:05Z</time>
      </trkpt>
      <trkpt lat="43.8229" lon="5.79134">
        <ele>330</ele>
        <time>2017-03-26T19:05:10Z</time>
      </trkpt>
      <trkpt lat="43.82279" lon="5.79144">
        <ele>329</ele>
        <time>2017-03-26T19:05:25Z</time>
      </trkpt>
      <trkpt lat="43.82267" lon="5.79157">
        <ele>329</ele>
        <time>2017-03-26T19:05:27Z</time>
      </trkpt>
      <trkpt lat="43.82266" lon="5.79156">
        <ele>329</ele>
        <time>2017-03-26T19:05:31Z</time>
      </trkpt>
      <trkpt lat="43.82263" lon="5.79155">
        <ele>329</ele>
        <time>2017-03-26T19:05:49Z</time>
      </trkpt>
      <trkpt lat="43.82254" lon="5.79154">
        <ele>329</ele>
        <time>2017-03-26T19:05:51Z</time>
      </trkpt>
      <trkpt lat="43.82244" lon="5.79162">
        <ele>328</ele>
        <time>2017-03-26T19:05:56Z</time>
      </trkpt>
      <trkpt lat="43.82242" lon="5.79166">
        <ele>328</ele>
        <time>2017-03-26T19:06:10Z</time>
      </trkpt>
      <trkpt lat="43.82227" lon="5.79169">
        <ele>328</ele>
        <time>2017-03-26T19:06:24Z</time>
      </trkpt>
      <trkpt lat="43.8221" lon="5.79179">
        <ele>328</ele>
        <time>2017-03-26T19:06:37Z</time>
      </trkpt>
      <trkpt lat="43.82166" lon="5.79211">
        <ele>326</ele>
        <time>2017-03-26T19:06:43Z</time>
      </trkpt>
      <trkpt lat="43.82063" lon="5.79326">
        <ele>323</ele>
        <time>2017-03-26T19:06:52Z</time>
      </trkpt>
      <trkpt lat="43.8203" lon="5.79371">
        <ele>322</ele>
        <time>2017-03-26T19:07:05Z</time>
      </trkpt>
      <trkpt lat="43.82011" lon="5.79402">
        <ele>322</ele>
        <time>2017-03-26T19:07:24Z</time>
      </trkpt>
      <trkpt lat="43.82001" lon="5.79425">
        <ele>321</ele>
        <time>2017-03-26T19:07:26Z</time>
      </trkpt>
      <trkpt lat="43.81997" lon="5.79426">
        <ele>320</ele>
        <time>2017-03-26T19:07:30Z</time>
      </trkpt>
      <trkpt lat="43.81991" lon="5.79435">
        <ele>320</ele>
        <time>2017-03-26T19:07:47Z</time>
      </trkpt>
      <trkpt lat="43.81991" lon="5.79447">
        <ele>320</ele>
        <time>2017-03-26T19:07:59Z</time>
      </trkpt>
      <trkpt lat="43.81992" lon="5.79449">
        <ele>320</ele>
        <time>2017-03-26T19:08:12Z</time>
      </trkpt>
      <trkpt lat="43.81987" lon="5.79453">
        <ele>320</ele>
        <time>2017-03-26T19:08:29Z</time>
      </trkpt>
      <trkpt lat="43.81969" lon="5.79479">
        <ele>319</ele>
        <time>2017-03-26T19:08:43Z</time>
      </trkpt>
      <trkpt lat="43.81934" lon="5.79543">
        <ele>318</ele>
        <time>2017-03-26T19:09:00Z</time>
      </trkpt>
      <trkpt lat="43.81883" lon="5.79634">
        <ele>317</ele>
        <time>2017-03-26T19:09:07Z</time>
      </trkpt>
      <trkpt lat="43.81824" lon="5.79731">
        <ele>316</ele>
        <time>2017-03-26T19:09:21Z</time>
      </trkpt>
      <trkpt lat="43.81784" lon="5.79794">
        <ele>317</ele>
        <time>2017-03-26T19:09:37Z</time>
      </trkpt>
      <trkpt lat="43.81769" lon="5.79815">
        <ele>317</ele>
        <time>2017-03-26T19:09:47Z</time>
      </trkpt>
      <trkpt lat="43.8176" lon="5.79823">
        <ele>317</ele>
        <time>2017-03-26T19:10:06Z</time>
      </trkpt>
      <trkpt lat="43.81752" lon="5.79835">
        <ele>317</ele>
        <time>2017-03-26T19:10:20Z</time>
      </trkpt>
      <trkpt lat="43.8175" lon="5.79834">
        <ele>317</ele>
        <time>2017-03-26T19:10:25Z</time>
      </trkpt>
      <trkpt lat="43.81746" lon="5.79833">
        <ele>317</ele>
        <time>2017-03-26T19:10:43Z</time>
      </trkpt>
      <trkpt lat="43.8174" lon="5.79834">
        <ele>316</ele>
        <time>2017-03-26T19:10:50Z</time>
      </trkpt>
      <trkpt lat="43.81734" lon="5.7984">
        <ele>316</ele>
        <time>2017-03-26T19:11:02Z</time>
      </trkpt>
      <trkpt lat="43.8173" lon="5.79853">
        <ele>315</ele>
        <time>2017-03-26T19:11:04Z</time>
      </trkpt>
      <trkpt lat="43.8173" lon="5.79857">
        <ele>315</ele>
        <time>2017-03-26T19:11:21Z</time>
      </trkpt>
      <trkpt lat="43.81723" lon="5.79877">
        <ele>315</ele>
        <time>2017-03-26T19:11:33Z</time>
      </trkpt>
      <trkpt lat="43.81717" lon="5.79891">
        <ele>315</ele>
        <time>2017-03-26T19:11:52Z</time>
      </trkpt>
      <trkpt lat="43.81691" lon="5.79923">
        <ele>313</ele>
        <time>2017-03-26T19:11:56Z</time>
      </trkpt>
      <trkpt lat="43.81666" lon="5.79954">
        <ele>311</ele>
        <time>2017-03-26T19:12:08Z</time>
      </trkpt>
      <trkpt lat="43.81617" lon="5.80012">
        <ele>310</ele>
        <time>2017-03-26T19:12:26Z</time>
      </trkpt>
      <trkpt lat="43.81566" lon="5.8007">
        <ele>309</ele>
        <time>2017-03-26T19:12:31Z</time>
      </trkpt>
      <trkpt lat="43.81506" lon="5.80154">
        <ele>308</ele>
        <time>2017-03-26T19:12:34Z</time>
      </trkpt>
      <trkpt lat="43.81439" lon="5.80267">
        <ele>305</ele>
        <time>2017-03-26T19:12:49Z</time>
      </trkpt>
      <trkpt lat="43.81404" lon="5.80329">
        <ele>304</ele>
        <time>2017-03-26T19:13:02Z</time>
      </trkpt>
      <trkpt lat="43.81377" lon="5.80385">
        <ele>303</ele>
        <time>2017-03-26T19:13:05Z</time>
      </trkpt>
      <trkpt lat="43.8134" lon="5.80481">
        <ele>302</ele>
        <time>2017-03-26T19:13:24Z</time>
      </trkpt>
      <trkpt lat="43.81268" lon="5.80679">
        <ele>300</ele>
        <time>2017-03-26T19:13:38Z</time>
      </trkpt>
      <trkpt lat="43.81218" lon="5.80812">
        <ele>299</ele>
        <time>2017-03-26T19:13:49Z</time>
      </trkpt>
      <trkpt lat="43.81179" lon="5.80896">
        <ele>298</ele>
        <time>2017-03-26T19:13:55Z</time>
      </trkpt>
      <trkpt lat="43.81114" lon="5.8102">
        <ele>296</ele>
        <time>2017-03-26T19:14:10Z</time>
      </trkpt>
      <trkpt lat="43.81069" lon="5.81108">
        <ele>295</ele>
        <time>2017-03-26T19:14:13Z</time>
      </trkpt>
      <trkpt lat="43.81036" lon="5.81153">
        <ele>295</ele>
        <time>2017-03-26T19:14:21Z</time>
      </trkpt>
      <trkpt lat="43.81026" lon="5.81161">
        <ele>295</ele>
        <time>2017-03-26T19:14:31Z</time>
      </trkpt>
      <trkpt lat="43.81005" lon="5.81176">
        <ele>295</ele>
        <time>2017-03-26T19:14:51Z</time>
      </trkpt>
      <trkpt lat="43.80996" lon="5.8118">
        <ele>295</ele>
        <time>2017-03-26T19:14:54Z</time>
      </trkpt>
      <trkpt lat="43.80994" lon="5.81179">
        <ele>295</ele>
        <time>2017-03-26T19:15:12Z</time>
      </trkpt>
      <trkpt lat="43.80992" lon="5.81177">
        <ele>295</ele>
        <time>2017-03-26T19:15:19Z</time>
      </trkpt>
      <trkpt lat="43.80987" lon="5.81175">
        <ele>295</ele>
        <time>2017-03-26T19:15:29Z</time>
      </trkpt>
      <trkpt lat="43.80978" lon="5.81175">
        <ele>295</ele>
        <time>2017-03-26T19:15:34Z</time>
      </trkpt>
      <trkpt lat="43.80968" lon="5.8118">
        <ele>295</ele>
        <time>2017-03-26T19:15:46Z</time>
      </trkpt>
      <trkpt lat="43.80964" lon="5.81185">
        <ele>295</ele>
        <time>2017-03-26T19:15:48Z</time>
      </trkpt>
      <trkpt lat="43.80958" lon="5.81198">
        <ele>295</ele>
        <time>2017-03-26T19:15:59Z</time>
      </trkpt>
      <trkpt lat="43.80957" lon="5.8121">
        <ele>295</ele>
        <time>2017-03-26T19:16:03Z</time>
      </trkpt>
      <trkpt lat="43.80959" lon="5.81225">
        <ele>295</ele>
        <time>2017-03-26T19:16:23Z</time>
      </trkpt>
      <trkpt lat="43.80966" lon="5.81237">
        <ele>295</ele>
        <time>2017-03-26T19:16:39Z</time>
      </trkpt>
      <trkpt lat="43.80973" lon="5.8125">
        <ele>296</ele>
        <time>2017-03-26T19:16:48Z</time>
      </trkpt>
      <trkpt lat="43.80975" lon="5.8126">
        <ele>296</ele>
        <time>2017-03-26T19:17:08Z</time>
      </trkpt>
      <trkpt lat="43.80975" lon="5.81271">
        <ele>296</ele>
        <time>2017-03-26T19:17:19Z</time>
      </trkpt>
      <trkpt lat="43.80973" lon="5.8128">
        <ele>296</ele>
        <time>2017-03-26T19:17:21Z</time>
      </trkpt>
      <trkpt lat="43.80886" lon="5.81452">
        <ele>295</ele>
        <time>2017-03-26T19:17:23Z</time>
      </trkpt>
      <trkpt lat="43.80818" lon="5.81573">
        <ele>294</ele>
        <time>2017-03-26T19:17:36Z</time>
      </trkpt>
      <trkpt lat="43.8077" lon="5.81671">
        <ele>294</ele>
        <time>2017-03-26T19:17:47Z</time>
      </trkpt>
      <trkpt lat="43.80756" lon="5.81701">
        <ele>294</ele>
        <time>2017-03-26T19:18:06Z</time>
      </trkpt>
      <trkpt lat="43.80749" lon="5.8172">
        <ele>294</ele>
        <time>2017-03-26T19:18:20Z</time>
      </trkpt>
      <trkpt lat="43.80736" lon="5.81748">
        <ele>294</ele>
        <time>2017-03-26T19:18:23Z</time>
      </trkpt>
      <trkpt lat="43.80716" lon="5.81792">
        <ele>294</ele>
        <time>2017-03-26T19:18:33Z</time>
      </trkpt>
      <trkpt lat="43.80678" lon="5.81889">
        <ele>294</ele>
        <time>2017-03-26T19:18:39Z</time>
      </trkpt>
      <trkpt lat="43.80668" lon="5.81911">
        <ele>295</ele>
        <time>2017-03-26T19:18:59Z</time>
      </trkpt>
      <trkpt lat="43.80661" lon="5.8192">
        <ele>295</ele>
        <time>2017-03-26T19:19:19Z</time>
      </trkpt>
      <trkpt lat="43.80659" lon="5.8192">
        <ele>295</ele>
        <time>2017-03-26T19:19:21Z</time>
      </trkpt>
      <trkpt lat="43.80651" lon="5.81922">
        <ele>294</ele>
        <time>2017-03-26T19:19:36Z</time>
      </trkpt>
      <trkpt lat="43.80647" lon="5.81927">
        <ele>294</ele>
        <time>2017-03-26T19:19:50Z</time>
      </trkpt>
      <trkpt lat="43.80643" lon="5.81935">
        <ele>294</ele>
        <time>2017-03-26T19:19:52Z</time>
      </trkpt>
      <trkpt lat="43.80641" lon="5.81945">
        <ele>294</ele>
        <time>2017-03-26T19:19:59Z</time>
      </trkpt>
      <trkpt lat="43.80645" lon="5.81964">
        <ele>294</ele>
        <time>2017-03-26T19:20:14Z</time>
      </trkpt>
      <trkpt lat="43.80639" lon="5.81995">
        <ele>294</ele>
        <time>2017-03-26T19:20:26Z</time>
      </trkpt>
      <trkpt lat="43.80627" lon="5.82026">
        <ele>294</ele>
        <time>2017-03-26T19:20:40Z</time>
      </trkpt>
      <trkpt lat="43.80621" lon="5.82043">
        <ele>294</ele>
        <time>2017-03-26T19:20:51Z</time>
      </trkpt>
      <trkpt lat="43.80618" lon="5.82056">
        <ele>294</ele>
        <time>2017-03-26T19:20:59Z</time>
      </trkpt>
      <trkpt lat="43.80539" lon="5.82237">
        <ele>296</ele>
        <time>2017-03-26T19:21:03Z</time>
      </trkpt>
      <trkpt lat="43.80493" lon="5.82342">
        <ele>292</ele>
        <time>2017-03-26T19:21:16Z</time>
      </trkpt>
      <trkpt lat="43.80453" lon="5.82433">
        <ele>288</ele>
        <time>2017-03-26T19:21:20Z</time>
      </trkpt>
      <trkpt lat="43.80421" lon="5.82506">
        <ele>290</ele>
        <time>2017-03-26T19:21:27Z</time>
      </trkpt>
      <trkpt lat="43.80356" lon="5.82644">
        <ele>294</ele>
        <time>2017-03-26T19:21:46Z</time>
      </trkpt>
      <trkpt lat="43.80272" lon="5.82833">
        <ele>293</ele>
        <time>2017-03-26T19:21:56Z</time>
      </trkpt>
      <trkpt lat="43.80182" lon="5.8303">
        <ele>292</ele>
        <time>2017-03-26T19:22:03Z</time>
      </trkpt>
      <trkpt lat="43.80092" lon="5.83233">
        <ele>294</ele>
        <time>2017-03-26T19:22:17Z</time>
      </trkpt>
      <trkpt lat="43.80068" lon="5.83281">
        <ele>294</ele>
        <time>2017-03-26T19:22:30Z</time>
      </trkpt>
      <trkpt lat="43.80051" lon="5.83306">
        <ele>294</ele>
        <time>2017-03-26T19:22:44Z</time>
      </trkpt>
      <trkpt lat="43.80041" lon="5.83318">
        <ele>294</ele>
        <time>2017-03-26T19:22:53Z</time>
      </trkpt>
      <trkpt lat="43.80035" lon="5.83323">
        <ele>294</ele>
        <time>2017-03-26T19:22:59Z</time>
      </trkpt>
      <trkpt lat="43.80033" lon="5.83322">
        <ele>294</ele>
        <time>2017-03-26T19:23:10Z</time>
      </trkpt>
      <trkpt lat="43.80024" lon="5.83316">
        <ele>294</ele>
        <time>2017-03-26T19:23:13Z</time>
      </trkpt>
      <trkpt lat="43.80004" lon="5.83284">
        <ele>294</ele>
        <time>2017-03-26T19:23:21Z</time>
      </trkpt>
      <trkpt lat="43.79989" lon="5.83257">
        <ele>294</ele>
        <time>2017-03-26T19:23:25Z</time>
      </trkpt>
      <trkpt lat="43.79952" lon="5.83197">
        <ele>293</ele>
        <time>2017-03-26T19:23:27Z</time>
      </trkpt>
      <trkpt lat="43.79915" lon="5.83156">
        <ele>292</ele>
        <time>2017-03-26T19:23:30Z</time>
      </trkpt>
      <trkpt lat="43.79891" lon="5.83137">
        <ele>292</ele>
        <time>2017-03-26T19:23:38Z</time>
      </trkpt>
      <trkpt lat="43.79844" lon="5.83109">
        <ele>291</ele>
        <time>2017-03-26T19:23:41Z</time>
      </trkpt>
      <trkpt lat="43.79811" lon="5.83096">
        <ele>291</ele>
        <time>2017-03-26T19:23:57Z</time>
      </trkpt>
      <trkpt lat="43.79761" lon="5.83084">
        <ele>290</ele>
        <time>2017-03-26T19:24:01Z</time>
      </trkpt>
      <trkpt lat="43.79736" lon="5.83079">
        <ele>290</ele>
        <time>2017-03-26T19:24:08Z</time>
      </trkpt>
      <trkpt lat="43.79729" lon="5.83075">
        <ele>290</ele>
        <time>2017-03-26T19:24:13Z</time>
      </trkpt>
      <trkpt lat="43.79648" lon="5.83056">
        <ele>290</ele>
        <time>2017-03-26T19:24:23Z</time>
      </trkpt>
      <trkpt lat="43.79584" lon="5.83028">
        <ele>289</ele>
        <time>2017-03-26T19:24:34Z</time>
      </trkpt>
      <trkpt lat="43.7958" lon="5.83025">
        <ele>289</ele>
        <time>2017-03-26T19:24:37Z</time>
      </trkpt>
      <trkpt lat="43.7958" lon="5.83034">
        <ele>289</ele>
        <time>2017-03-26T19:24:53Z</time>
      </trkpt>
      <trkpt lat="43.79555" lon="5.83095">
        <ele>289</ele>
        <time>2017-03-26T19:25:08Z</time>
      </trkpt>
      <trkpt lat="43.79554" lon="5.83104">
        <ele>289</ele>
        <time>2017-03-26T19:25:19Z</time>
      </trkpt>
      <trkpt lat="43.79505" lon="5.83228">
        <ele>290</ele>
        <time>2017-03-26T19:25:38Z</time>
      </trkpt>
      <trkpt lat="43.7945" lon="5.83368">
        <ele>293</ele>
        <time>2017-03-26T19:25:45Z</time>
      </trkpt>
      <trkpt lat="43.79401" lon="5.83495">
        <ele>301</ele>
        <time>2017-03-26T19:25:55Z</time>
      </trkpt>
      <trkpt lat="43.79384" lon="5.83536">
        <ele>309</ele>
        <time>2017-03-26T19:25:58Z</time>
      </trkpt>
      <trkpt lat="43.79355" lon="5.83624">
        <ele>316</ele>
        <time>2017-03-26T19:26:18Z</time>
      </trkpt>
      <trkpt lat="43.79314" lon="5.83746">
        <ele>319</ele>
        <time>2017-03-26T19:26:38Z</time>
      </trkpt>
      <trkpt lat="43.79305" lon="5.8378">
        <ele>320</ele>
        <time>2017-03-26T19:26:49Z</time>
      </trkpt>
      <trkpt lat="43.79304" lon="5.838">
        <ele>320</ele>
        <time>2017-03-26T19:26:57Z</time>
      </trkpt>
      <trkpt lat="43.79307" lon="5.83816">
        <ele>320</ele>
        <time>2017-03-26T19:27:02Z</time>
      </trkpt>
      <trkpt lat="43.79315" lon="5.83877">
        <ele>322</ele>
        <time>2017-03-26T19:27:04Z</time>
      </trkpt>
      <trkpt lat="43.79315" lon="5.83894">
        <ele>322</ele>
        <time>2017-03-26T19:27:18Z</time>
      </trkpt>
      <trkpt lat="43.79311" lon="5.83915">
        <ele>322</ele>
        <time>2017-03-26T19:27:30Z</time>
      </trkpt>
      <trkpt lat="43.79299" lon="5.83954">
        <ele>325</ele>
        <time>2017-03-26T19:27:44Z</time>
      </trkpt>
      <trkpt lat="43.79265" lon="5.84051">
        <ele>327</ele>
        <time>2017-03-26T19:27:58Z</time>
      </trkpt>
      <trkpt lat="43.79251" lon="5.84082">
        <ele>327</ele>
        <time>2017-03-26T19:28:09Z</time>
      </trkpt>
      <trkpt lat="43.79238" lon="5.84105">
        <ele>329</ele>
        <time>2017-03-26T19:28:17Z</time>
      </trkpt>
      <trkpt lat="43.79202" lon="5.84159">
        <ele>331</ele>
        <time>2017-03-26T19:28:21Z</time>
      </trkpt>
      <trkpt lat="43.79172" lon="5.84222">
        <ele>330</ele>
        <time>2017-03-26T19:28:25Z</time>
      </trkpt>
      <trkpt lat="43.79149" lon="5.84296">
        <ele>335</ele>
        <time>2017-03-26T19:28:42Z</time>
      </trkpt>
      <trkpt lat="43.79127" lon="5.84381">
        <ele>337</ele>
        <time>2017-03-26T19:28:55Z</time>
      </trkpt>
      <trkpt lat="43.79122" lon="5.84412">
        <ele>337</ele>
        <time>2017-03-26T19:28:57Z</time>
      </trkpt>
      <trkpt lat="43.79122" lon="5.84448">
        <ele>338</ele>
        <time>2017-03-26T19:28:59Z</time>
      </trkpt>
      <trkpt lat="43.79129" lon="5.84508">
        <ele>340</ele>
        <time>2017-03-26T19:29:15Z</time>
      </trkpt>
      <trkpt lat="43.79147" lon="5.84692">
        <ele>344</ele>
        <time>2017-03-26T19:29:34Z</time>
      </trkpt>
      <trkpt lat="43.79155" lon="5.84758">
        <ele>344</ele>
        <time>2017-03-26T19:29:47Z</time>
      </trkpt>
      <trkpt lat="43.79168" lon="5.84809">
        <ele>345</ele>
        <time>2017-03-26T19:30:03Z</time>
      </trkpt>
      <trkpt lat="43.79195" lon="5.84876">
        <ele>348</ele>
        <time>2017-03-26T19:30:11Z</time>
      </trkpt>
      <trkpt lat="43.79217" lon="5.84926">
        <ele>351</ele>
        <time>2017-03-26T19:30:24Z</time>
      </trkpt>
      <trkpt lat="43.79225" lon="5.84948">
        <ele>351</ele>
        <time>2017-03-26T19:30:32Z</time>
      </trkpt>
      <trkpt lat="43.79228" lon="5.84973">
        <ele>352</ele>
        <time>2017-03-26T19:30:40Z</time>
      </trkpt>
      <trkpt lat="43.79226" lon="5.84995">
        <ele>352</ele>
        <time>2017-03-26T19:30:48Z</time>
      </trkpt>
      <trkpt lat="43.79221" lon="5.85015">
        <ele>355</ele>
        <time>2017-03-26T19:30:51Z</time>
      </trkpt>
      <trkpt lat="43.79198" lon="5.85095">
        <ele>359</ele>
        <time>2017-03-26T19:30:56Z</time>
      </trkpt>
      <trkpt lat="43.79196" lon="5.8511">
        <ele>359</ele>
        <time>2017-03-26T19:30:59Z</time>
      </trkpt>
      <trkpt lat="43.79195" lon="5.85135">
        <ele>359</ele>
        <time>2017-03-26T19:31:10Z</time>
      </trkpt>
      <trkpt lat="43.79202" lon="5.85174">
        <ele>361</ele>
        <time>2017-03-26T19:31:20Z</time>
      </trkpt>
      <trkpt lat="43.79229" lon="5.85272">
        <ele>365</ele>
        <time>2017-03-26T19:31:32Z</time>
      </trkpt>
      <trkpt lat="43.79257" lon="5.85354">
        <ele>365</ele>
        <time>2017-03-26T19:31:40Z</time>
      </trkpt>
      <trkpt lat="43.79272" lon="5.85382">
        <ele>366</ele>
        <time>2017-03-26T19:31:49Z</time>
      </trkpt>
      <trkpt lat="43.79304" lon="5.85417">
        <ele>368</ele>
        <time>2017-03-26T19:31:52Z</time>
      </trkpt>
      <trkpt lat="43.79313" lon="5.85432">
        <ele>368</ele>
        <time>2017-03-26T19:32:09Z</time>
      </trkpt>
      <trkpt lat="43.79322" lon="5.85454">
        <ele>369</ele>
        <time>2017-03-26T19:32:19Z</time>
      </trkpt>
      <trkpt lat="43.79328" lon="5.85483">
        <ele>369</ele>
        <time>2017-03-26T19:32:28Z</time>
      </trkpt>
      <trkpt lat="43.79333" lon="5.8553">
        <ele>373</ele>
        <time>2017-03-26T19:32:33Z</time>
      </trkpt>
      <trkpt lat="43.79343" lon="5.85608">
        <ele>372</ele>
        <time>2017-03-26T19:32:35Z</time>
      </trkpt>
      <trkpt lat="43.7934" lon="5.85654">
        <ele>374</ele>
        <time>2017-03-26T19:32:38Z</time>
      </trkpt>
      <trkpt lat="43.79332" lon="5.85673">
        <ele>377</ele>
        <time>2017-03-26T19:32:55Z</time>
      </trkpt>
      <trkpt lat="43.79321" lon="5.85689">
        <ele>379</ele>
        <time>2017-03-26T19:33:01Z</time>
      </trkpt>
      <trkpt lat="43.7931" lon="5.857">
        <ele>380</ele>
        <time>2017-03-26T19:33:03Z</time>
      </trkpt>
      <trkpt lat="43.79289" lon="5.85712">
        <ele>381</ele>
        <time>2017-03-26T19:33:17Z</time>
      </trkpt>
      <trkpt lat="43.79261" lon="5.85731">
        <ele>383</ele>
        <time>2017-03-26T19:33:31Z</time>
      </trkpt>
      <trkpt lat="43.79238" lon="5.85753">
        <ele>387</ele>
        <time>2017-03-26T19:33:38Z</time>
      </trkpt>
      <trkpt lat="43.79154" lon="5.85866">
        <ele>392</ele>
        <time>2017-03-26T19:33:40Z</time>
      </trkpt>
      <trkpt lat="43.79126" lon="5.85901">
        <ele>392</ele>
        <time>2017-03-26T19:34:00Z</time>
      </trkpt>
      <trkpt lat="43.79112" lon="5.85916">
        <ele>393</ele>
        <time>2017-03-26T19:34:07Z</time>
      </trkpt>
      <trkpt lat="43.7909" lon="5.85933">
        <ele>393</ele>
        <time>2017-03-26T19:34:25Z</time>
      </trkpt>
      <trkpt lat="43.79076" lon="5.85942">
        <ele>396</ele>
        <time>2017-03-26T19:34:43Z</time>
      </trkpt>
      <trkpt lat="43.79053" lon="5.85954">
        <ele>397</ele>
        <time>2017-03-26T19:34:54Z</time>
      </trkpt>
      <trkpt lat="43.79004" lon="5.85967">
        <ele>398</ele>
        <time>2017-03-26T19:34:57Z</time>
      </trkpt>
      <trkpt lat="43.78974" lon="5.85973">
        <ele>403</ele>
        <time>2017-03-26T19:35:14Z</time>
      </trkpt>
      <trkpt lat="43.78961" lon="5.85973">
        <ele>403</ele>
        <time>2017-03-26T19:35:18Z</time>
      </trkpt>
      <trkpt lat="43.78937" lon="5.85969">
        <ele>404</ele>
        <time>2017-03-26T19:35:33Z</time>
      </trkpt>
      <trkpt lat="43.78923" lon="5.85969">
        <ele>404</ele>
        <time>2017-03-26T19:35:35Z</time>
      </trkpt>
      <trkpt lat="43.78907" lon="5.85972">
        <ele>408</ele>
        <time>2017-03-26T19:35:44Z</time>
      </trkpt>
      <trkpt lat="43.78889" lon="5.85982">
        <ele>408</ele>
        <time>2017-03-26T19:36:04Z</time>
      </trkpt>
      <trkpt lat="43.78881" lon="5.8599">
        <ele>408</ele>
        <time>2017-03-26T19:36:21Z</time>
      </trkpt>
      <trkpt lat="43.78872" lon="5.86009">
        <ele>409</ele>
        <time>2017-03-26T19:36:39Z</time>
      </trkpt>
      <trkpt lat="43.78869" lon="5.86037">
        <ele>410</ele>
        <time>2017-03-26T19:36:53Z</time>
      </trkpt>
      <trkpt lat="43.78871" lon="5.86051">
        <ele>410</ele>
        <time>2017-03-26T19:37:13Z</time>
      </trkpt>
      <trkpt lat="43.78877" lon="5.86067">
        <ele>410</ele>
        <time>2017-03-26T19:37:28Z</time>
      </trkpt>
      <trkpt lat="43.78886" lon="5.86082">
        <ele>411</ele>
        <time>2017-03-26T19:37:33Z</time>
      </trkpt>
      <trkpt lat="43.78916" lon="5.86117">
        <ele>416</ele>
        <time>2017-03-26T19:37:38Z</time>
      </trkpt>
      <trkpt lat="43.78991" lon="5.86197">
        <ele>421</ele>
        <time>2017-03-26T19:37:55Z</time>
      </trkpt>
      <trkpt lat="43.79" lon="5.86208">
        <ele>422</ele>
        <time>2017-03-26T19:38:04Z</time>
      </trkpt>
      <trkpt lat="43.79007" lon="5.86222">
        <ele>417</ele>
        <time>2017-03-26T19:38:09Z</time>
      </trkpt>
      <trkpt lat="43.79014" lon="5.86245">
        <ele>419</ele>
        <time>2017-03-26T19:38:25Z</time>
      </trkpt>
      <trkpt lat="43.79015" lon="5.86267">
        <ele>420</ele>
        <time>2017-03-26T19:38:37Z</time>
      </trkpt>
      <trkpt lat="43.79013" lon="5.86278">
        <ele>419</ele>
        <time>2017-03-26T19:38:45Z</time>
      </trkpt>
      <trkpt lat="43.79007" lon="5.86293">
        <ele>419</ele>
        <time>2017-03-26T19:38:56Z</time>
      </trkpt>
      <trkpt lat="43.78999" lon="5.86306">
        <ele>426</ele>
        <time>2017-03-26T19:39:13Z</time>
      </trkpt>
      <trkpt lat="43.78989" lon="5.86314">
        <ele>426</ele>
        <time>2017-03-26T19:39:33Z</time>
      </trkpt>
      <trkpt lat="43.78978" lon="5.86323">
        <ele>427</ele>
        <time>2017-03-26T19:39:46Z</time>
      </trkpt>
      <trkpt lat="43.78956" lon="5.86335">
        <ele>429</ele>
        <time>2017-03-26T19:39:56Z</time>
      </trkpt>
      <trkpt lat="43.78937" lon="5.86347">
        <ele>432</ele>
        <time>2017-03-26T19:40:15Z</time>
      </trkpt>
      <trkpt lat="43.7893" lon="5.86353">
        <ele>432</ele>
        <time>2017-03-26T19:40:27Z</time>
      </trkpt>
      <trkpt lat="43.78923" lon="5.86361">
        <ele>432</ele>
        <time>2017-03-26T19:40:32Z</time>
      </trkpt>
      <trkpt lat="43.78913" lon="5.86376">
        <ele>437</ele>
        <time>2017-03-26T19:40:50Z</time>
      </trkpt>
      <trkpt lat="43.78907" lon="5.86398">
        <ele>436</ele>
        <time>2017-03-26T19:41:05Z</time>
      </trkpt>
      <trkpt lat="43.78907" lon="5.86415">
        <ele>435</ele>
        <time>2017-03-26T19:41:19Z</time>
      </trkpt>
      <trkpt lat="43.78921" lon="5.86486">
        <ele>436</ele>
        <time>2017-03-26T19:41:27Z</time>
      </trkpt>
      <trkpt lat="43.78924" lon="5.8651">
        <ele>437</ele>
        <time>2017-03-26T19:41:38Z</time>
      </trkpt>
      <trkpt lat="43.7892" lon="5.86533">
        <ele>437</ele>
        <time>2017-03-26T19:41:50Z</time>
      </trkpt>
      <trkpt lat="43.7891" lon="5.86553">
        <ele>442</ele>
        <time>2017-03-26T19:42:08Z</time>
      </trkpt>
      <trkpt lat="43.78902" lon="5.86561">
        <ele>442</ele>
        <time>2017-03-26T19:42:26Z</time>
      </trkpt>
      <trkpt lat="43.78895" lon="5.86569">
        <ele>442</ele>
        <time>2017-03-26T19:42:40Z</time>
      </trkpt>
      <trkpt lat="43.78875" lon="5.86577">
        <ele>443</ele>
        <time>2017-03-26T19:42:46Z</time>
      </trkpt>
      <trkpt lat="43.78843" lon="5.8659">
        <ele>444</ele>
        <time>2017-03-26T19:43:01Z</time>
      </trkpt>
      <trkpt lat="43.78828" lon="5.86598">
        <ele>448</ele>
        <time>2017-03-26T19:43:04Z</time>
      </trkpt>
      <trkpt lat="43.78798" lon="5.86621">
        <ele>449</ele>
        <time>2017-03-26T19:43:24Z</time>
      </trkpt>
      <trkpt lat="43.78761" lon="5.86652">
        <ele>451</ele>
        <time>2017-03-26T19:43:27Z</time>
      </trkpt>
      <trkpt lat="43.78743" lon="5.86664">
        <ele>455</ele>
        <time>2017-03-26T19:43:37Z</time>
      </trkpt>
      <trkpt lat="43.78725" lon="5.86673">
        <ele>450</ele>
        <time>2017-03-26T19:43:57Z</time>
      </trkpt>
      <trkpt lat="43.78687" lon="5.86686">
        <ele>452</ele>
        <time>2017-03-26T19:43:59Z</time>
      </trkpt>
      <trkpt lat="43.78627" lon="5.86694">
        <ele>459</ele>
        <time>2017-03-26T19:44:16Z</time>
      </trkpt>
      <trkpt lat="43.78603" lon="5.86699">
        <ele>460</ele>
        <time>2017-03-26T19:44:21Z</time>
      </trkpt>
      <trkpt lat="43.78578" lon="5.8671">
        <ele>467</ele>
        <time>2017-03-26T19:44:23Z</time>
      </trkpt>
      <trkpt lat="43.78534" lon="5.86733">
        <ele>468</ele>
        <time>2017-03-26T19:44:25Z</time>
      </trkpt>
      <trkpt lat="43.78512" lon="5.86743">
        <ele>469</ele>
        <time>2017-03-26T19:44:39Z</time>
      </trkpt>
      <trkpt lat="43.78474" lon="5.86753">
        <ele>471</ele>
        <time>2017-03-26T19:44:49Z</time>
      </trkpt>
      <trkpt lat="43.78459" lon="5.86759">
        <ele>472</ele>
        <time>2017-03-26T19:44:52Z</time>
      </trkpt>
      <trkpt lat="43.78444" lon="5.86769">
        <ele>473</ele>
        <time>2017-03-26T19:44:57Z</time>
      </trkpt>
      <trkpt lat="43.78409" lon="5.86799">
        <ele>477</ele>
        <time>2017-03-26T19:45:16Z</time>
      </trkpt>
      <trkpt lat="43.78394" lon="5.86806">
        <ele>477</ele>
        <time>2017-03-26T19:45:31Z</time>
      </trkpt>
      <trkpt lat="43.78373" lon="5.86805">
        <ele>478</ele>
        <time>2017-03-26T19:45:41Z</time>
      </trkpt>
      <trkpt lat="43.78349" lon="5.86794">
        <ele>480</ele>
        <time>2017-03-26T19:45:46Z</time>
      </trkpt>
      <trkpt lat="43.78319" lon="5.8678">
        <ele>484</ele>
        <time>2017-03-26T19:45:56Z</time>
      </trkpt>
      <trkpt lat="43.78304" lon="5.86778">
        <ele>484</ele>
        <time>2017-03-26T19:46:13Z</time>
      </trkpt>
      <trkpt lat="43.78291" lon="5.86782">
        <ele>484</ele>
        <time>2017-03-26T19:46:28Z</time>
      </trkpt>
      <trkpt lat="43.78276" lon="5.86789">
        <ele>485</ele>
        <time>2017-03-26T19:46:37Z</time>
      </trkpt>
      <trkpt lat="43.78234" lon="5.86818">
        <ele>485</ele>
        <time>2017-03-26T19:46:52Z</time>
      </trkpt>
      <trkpt lat="43.78199" lon="5.86846">
        <ele>484</ele>
        <time>2017-03-26T19:47:11Z</time>
      </trkpt>
      <trkpt lat="43.78181" lon="5.86864">
        <ele>484</ele>
        <time>2017-03-26T19:47:13Z</time>
      </trkpt>
      <trkpt lat="43.78158" lon="5.86892">
        <ele>488</ele>
        <time>2017-03-26T19:47:32Z</time>
      </trkpt>
      <trkpt lat="43.78123" lon="5.86922">
        <ele>490</ele>
        <time>2017-03-26T19:47:35Z</time>
      </trkpt>
      <trkpt lat="43.78069" lon="5.86962">
        <ele>493</ele>
        <time>2017-03-26T19:47:48Z</time>
      </trkpt>
      <trkpt lat="43.78049" lon="5.86969">
        <ele>493</ele>
        <time>2017-03-26T19:47:56Z</time>
      </trkpt>
      <trkpt lat="43.78032" lon="5.86973">
        <ele>493</ele>
        <time>2017-03-26T19:48:05Z</time>
      </trkpt>
      <trkpt lat="43.78007" lon="5.86983">
        <ele>494</ele>
        <time>2017-03-26T19:48:19Z</time>
      </trkpt>
      <trkpt lat="43.77983" lon="5.87005">
        <ele>495</ele>
        <time>2017-03-26T19:48:25Z</time>
      </trkpt>
      <trkpt lat="43.77883" lon="5.87136">
        <ele>494</ele>
        <time>2017-03-26T19:48:34Z</time>
      </trkpt>
      <trkpt lat="43.77865" lon="5.87162">
        <ele>495</ele>
        <time>2017-03-26T19:48:44Z</time>
      </trkpt>
      <trkpt lat="43.7782" lon="5.87243">
        <ele>496</ele>
        <time>2017-03-26T19:48:47Z</time>
      </trkpt>
      <trkpt lat="43.7779" lon="5.87296">
        <ele>497</ele>
        <time>2017-03-26T19:48:50Z</time>
      </trkpt>
      <trkpt lat="43.77778" lon="5.87313">
        <ele>497</ele>
        <time>2017-03-26T19:49:04Z</time>
      </trkpt>
      <trkpt lat="43.77765" lon="5.87326">
        <ele>498</ele>
        <time>2017-03-26T19:49:21Z</time>
      </trkpt>
      <trkpt lat="43.77751" lon="5.87337">
        <ele>498</ele>
        <time>2017-03-26T19:49:33Z</time>
      </trkpt>
      <trkpt lat="43.7774" lon="5.87343">
        <ele>498</ele>
        <time>2017-03-26T19:49:43Z</time>
      </trkpt>
      <trkpt lat="43.77702" lon="5.87356">
        <ele>497</ele>
        <time>2017-03-26T19:50:00Z</time>
      </trkpt>
      <trkpt lat="43.77611" lon="5.87383">
        <ele>496</ele>
        <time>2017-03-26T19:50:02Z</time>
      </trkpt>
      <trkpt lat="43.7758" lon="5.87394">
        <ele>495</ele>
        <time>2017-03-26T19:50:05Z</time>
      </trkpt>
      <trkpt lat="43.77564" lon="5.87402">
        <ele>495</ele>
        <time>2017-03-26T19:50:24Z</time>
      </trkpt>
      <trkpt lat="43.77474" lon="5.87467">
        <ele>493</ele>
        <time>2017-03-26T19:50:37Z</time>
      </trkpt>
      <trkpt lat="43.77415" lon="5.87513">
        <ele>492</ele>
        <time>2017-03-26T19:50:54Z</time>
      </trkpt>
      <trkpt lat="43.77385" lon="5.87541">
        <ele>492</ele>
        <time>2017-03-26T19:51:14Z</time>
      </trkpt>
      <trkpt lat="43.77344" lon="5.87592">
        <ele>491</ele>
        <time>2017-03-26T19:51:21Z</time>
      </trkpt>
      <trkpt lat="43.77324" lon="5.87611">
        <ele>491</ele>
        <time>2017-03-26T19:51:30Z</time>
      </trkpt>
      <trkpt lat="43.77286" lon="5.8763">
        <ele>490</ele>
        <time>2017-03-26T19:51:46Z</time>
      </trkpt>
      <trkpt lat="43.77216" lon="5.87659">
        <ele>490</ele>
        <time>2017-03-26T19:52:03Z</time>
      </trkpt>
      <trkpt lat="43.77191" lon="5.8767">
        <ele>486</ele>
        <time>2017-03-26T19:52:06Z</time>
      </trkpt>
      <trkpt lat="43.77178" lon="5.87679">
        <ele>486</ele>
        <time>2017-03-26T19:52:14Z</time>
      </trkpt>
      <trkpt lat="43.77164" lon="5.87694">
        <ele>485</ele>
        <time>2017-03-26T19:52:21Z</time>
      </trkpt>
      <trkpt lat="43.77151" lon="5.87712">
        <ele>482</ele>
        <time>2017-03-26T19:52:35Z</time>
      </trkpt>
      <trkpt lat="43.77136" lon="5.87723">
        <ele>481</ele>
        <time>2017-03-26T19:52:40Z</time>
      </trkpt>
      <trkpt lat="43.77127" lon="5.87726">
        <ele>481</ele>
        <time>2017-03-26T19:52:44Z</time>
      </trkpt>
      <trkpt lat="43.77112" lon="5.87724">
        <ele>481</ele>
        <time>2017-03-26T19:52:53Z</time>
      </trkpt>
      <trkpt lat="43.77091" lon="5.87716">
        <ele>481</ele>
        <time>2017-03-26T19:53:11Z</time>
      </trkpt>
      <trkpt lat="43.77076" lon="5.87715">
        <ele>481</ele>
        <time>2017-03-26T19:53:28Z</time>
      </trkpt>
      <trkpt lat="43.77063" lon="5.8772">
        <ele>481</ele>
        <time>2017-03-26T19:53:40Z</time>
      </trkpt>
      <trkpt lat="43.77044" lon="5.87737">
        <ele>480</ele>
        <time>2017-03-26T19:53:55Z</time>
      </trkpt>
      <trkpt lat="43.77023" lon="5.87759">
        <ele>473</ele>
        <time>2017-03-26T19:54:15Z</time>
      </trkpt>
      <trkpt lat="43.77003" lon="5.87771">
        <ele>473</ele>
        <time>2017-03-26T19:54:30Z</time>
      </trkpt>
      <trkpt lat="43.76987" lon="5.87775">
        <ele>471</ele>
        <time>2017-03-26T19:54:32Z</time>
      </trkpt>
      <trkpt lat="43.76957" lon="5.87774">
        <ele>469</ele>
        <time>2017-03-26T19:54:44Z</time>
      </trkpt>
      <trkpt lat="43.76937" lon="5.87777">
        <ele>469</ele>
        <time>2017-03-26T19:55:00Z</time>
      </trkpt>
      <trkpt lat="43.76922" lon="5.87784">
        <ele>468</ele>
        <time>2017-03-26T19:55:08Z</time>
      </trkpt>
      <trkpt lat="43.76907" lon="5.87799">
        <ele>461</ele>
        <time>2017-03-26T19:55:17Z</time>
      </trkpt>
      <trkpt lat="43.76894" lon="5.87824">
        <ele>460</ele>
        <time>2017-03-26T19:55:19Z</time>
      </trkpt>
      <trkpt lat="43.76888" lon="5.87854">
        <ele>455</ele>
        <time>2017-03-26T19:55:33Z</time>
      </trkpt>
      <trkpt lat="43.76892" lon="5.87943">
        <ele>450</ele>
        <time>2017-03-26T19:55:41Z</time>
      </trkpt>
      <trkpt lat="43.7689" lon="5.87955">
        <ele>449</ele>
        <time>2017-03-26T19:55:54Z</time>
      </trkpt>
      <trkpt lat="43.76886" lon="5.87962">
        <ele>449</ele>
        <time>2017-03-26T19:55:56Z</time>
      </trkpt>
      <trkpt lat="43.76876" lon="5.87972">
        <ele>448</ele>
        <time>2017-03-26T19:56:06Z</time>
      </trkpt>
      <trkpt lat="43.76868" lon="5.87974">
        <ele>448</ele>
        <time>2017-03-26T19:56:17Z</time>
      </trkpt>
      <trkpt lat="43.76862" lon="5.87973">
        <ele>447</ele>
        <time>2017-03-26T19:56:26Z</time>
      </trkpt>
      <trkpt lat="43.76853" lon="5.8797">
        <ele>447</ele>
        <time>2017-03-26T19:56:44Z</time>
      </trkpt>
      <trkpt lat="43.76846" lon="5.87959">
        <ele>448</ele>
        <time>2017-03-26T19:56:46Z</time>
      </trkpt>
      <trkpt lat="43.76842" lon="5.87946">
        <ele>448</ele>
        <time>2017-03-26T19:57:04Z</time>
      </trkpt>
      <trkpt lat="43.7684" lon="5.8793">
        <ele>448</ele>
        <time>2017-03-26T19:57:23Z</time>
      </trkpt>
      <trkpt lat="43.76845" lon="5.87807">
        <ele>456</ele>
        <time>2017-03-26T19:57:43Z</time>
      </trkpt>
      <trkpt lat="43.76844" lon="5.87795">
        <ele>457</ele>
        <time>2017-03-26T19:57:56Z</time>
      </trkpt>
      <trkpt lat="43.76841" lon="5.87783">
        <ele>458</ele>
        <time>2017-03-26T19:58:01Z</time>
      </trkpt>
      <trkpt lat="43.76836" lon="5.87774">
        <ele>458</ele>
        <time>2017-03-26T19:58:04Z</time>
      </trkpt>
      <trkpt lat="43.76829" lon="5.87768">
        <ele>452</ele>
        <time>2017-03-26T19:58:23Z</time>
      </trkpt>
      <trkpt lat="43.76823" lon="5.87766">
        <ele>452</ele>
        <time>2017-03-26T19:58:36Z</time>
      </trkpt>
      <trkpt lat="43.76809" lon="5.87766">
        <ele>450</ele>
        <time>2017-03-26T19:58:52Z</time>
      </trkpt>
      <trkpt lat="43.7678" lon="5.87783">
        <ele>446</ele>
        <time>2017-03-26T19:59:10Z</time>
      </trkpt>
      <trkpt lat="43.76765" lon="5.8779">
        <ele>444</ele>
        <time>2017-03-26T19:59:23Z</time>
      </trkpt>
      <trkpt lat="43.7676" lon="5.8779">
        <ele>444</ele>
        <time>2017-03-26T19:59:25Z</time>
      </trkpt>
      <trkpt lat="43.76753" lon="5.87788">
        <ele>444</ele>
        <time>2017-03-26T19:59:34Z</time>
      </trkpt>
      <trkpt lat="43.76747" lon="5.87783">
        <ele>436</ele>
        <time>2017-03-26T19:59:38Z</time>
      </trkpt>
      <trkpt lat="43.7674" lon="5.87773">
        <ele>437</ele>
        <time>2017-03-26T19:59:58Z</time>
      </trkpt>
      <trkpt lat="43.76717" lon="5.87717">
        <ele>442</ele>
        <time>2017-03-26T20:00:04Z</time>
      </trkpt>
      <trkpt lat="43.7671" lon="5.87696">
        <ele>442</ele>
        <time>2017-03-26T20:00:13Z</time>
      </trkpt>
      <trkpt lat="43.76709" lon="5.87682">
        <ele>443</ele>
        <time>2017-03-26T20:00:17Z</time>
      </trkpt>
      <trkpt lat="43.7671" lon="5.8766">
        <ele>448</ele>
        <time>2017-03-26T20:00:23Z</time>
      </trkpt>
      <trkpt lat="43.76714" lon="5.87632">
        <ele>449</ele>
        <time>2017-03-26T20:00:32Z</time>
      </trkpt>
      <trkpt lat="43.76714" lon="5.87617">
        <ele>449</ele>
        <time>2017-03-26T20:00:52Z</time>
      </trkpt>
      <trkpt lat="43.76711" lon="5.87611">
        <ele>449</ele>
        <time>2017-03-26T20:00:59Z</time>
      </trkpt>
      <trkpt lat="43.76706" lon="5.87608">
        <ele>449</ele>
        <time>2017-03-26T20:01:02Z</time>
      </trkpt>
      <trkpt lat="43.767" lon="5.87609">
        <ele>450</ele>
        <time>2017-03-26T20:01:08Z</time>
      </trkpt>
      <trkpt lat="43.76691" lon="5.87617">
        <ele>449</ele>
        <time>2017-03-26T20:01:25Z</time>
      </trkpt>
      <trkpt lat="43.76671" lon="5.87655">
        <ele>444</ele>
        <time>2017-03-26T20:01:36Z</time>
      </trkpt>
      <trkpt lat="43.76658" lon="5.87686">
        <ele>442</ele>
        <time>2017-03-26T20:01:46Z</time>
      </trkpt>
      <trkpt lat="43.76651" lon="5.87723">
        <ele>439</ele>
        <time>2017-03-26T20:01:54Z</time>
      </trkpt>
      <trkpt lat="43.76647" lon="5.87748">
        <ele>437</ele>
        <time>2017-03-26T20:02:09Z</time>
      </trkpt>
      <trkpt lat="43.76642" lon="5.87766">
        <ele>431</ele>
        <time>2017-03-26T20:02:17Z</time>
      </trkpt>
      <trkpt lat="43.76634" lon="5.87783">
        <ele>431</ele>
        <time>2017-03-26T20:02:22Z</time>
      </trkpt>
      <trkpt lat="43.76622" lon="5.87802">
        <ele>430</ele>
        <time>2017-03-26T20:02:34Z</time>
      </trkpt>
      <trkpt lat="43.76584" lon="5.87849">
        <ele>424</ele>
        <time>2017-03-26T20:02:49Z</time>
      </trkpt>
      <trkpt lat="43.7657" lon="5.87875">
        <ele>432</ele>
        <time>2017-03-26T20:03:02Z</time>
      </trkpt>
      <trkpt lat="43.76565" lon="5.87902">
        <ele>429</ele>
        <time>2017-03-26T20:03:17Z</time>
      </trkpt>
      <trkpt lat="43.76564" lon="5.87934">
        <ele>427</ele>
        <time>2017-03-26T20:03:33Z</time>
      </trkpt>
      <trkpt lat="43.76571" lon="5.87989">
        <ele>424</ele>
        <time>2017-03-26T20:03:35Z</time>
      </trkpt>
      <trkpt lat="43.76577" lon="5.8801">
        <ele>421</ele>
        <time>2017-03-26T20:03:40Z</time>
      </trkpt>
      <trkpt lat="43.76584" lon="5.88027">
        <ele>414</ele>
        <time>2017-03-26T20:03:43Z</time>
      </trkpt>
      <trkpt lat="43.76603" lon="5.88062">
        <ele>414</ele>
        <time>2017-03-26T20:04:02Z</time>
      </trkpt>
      <trkpt lat="43.76617" lon="5.88093">
        <ele>409</ele>
        <time>2017-03-26T20:04:12Z</time>
      </trkpt>
      <trkpt lat="43.7662" lon="5.88116">
        <ele>408</ele>
        <time>2017-03-26T20:04:22Z</time>
      </trkpt>
      <trkpt lat="43.76618" lon="5.88137">
        <ele>407</ele>
        <time>2017-03-26T20:04:33Z</time>
      </trkpt>
      <trkpt lat="43.76589" lon="5.88228">
        <ele>398</ele>
        <time>2017-03-26T20:04:37Z</time>
      </trkpt>
      <trkpt lat="43.76582" lon="5.88241">
        <ele>400</ele>
        <time>2017-03-26T20:04:41Z</time>
      </trkpt>
      <trkpt lat="43.76576" lon="5.88249">
        <ele>399</ele>
        <time>2017-03-26T20:04:58Z</time>
      </trkpt>
      <trkpt lat="43.76563" lon="5.88258">
        <ele>391</ele>
        <time>2017-03-26T20:05:07Z</time>
      </trkpt>
      <trkpt lat="43.76553" lon="5.88261">
        <ele>389</ele>
        <time>2017-03-26T20:05:10Z</time>
      </trkpt>
      <trkpt lat="43.76547" lon="5.88261">
        <ele>388</ele>
        <time>2017-03-26T20:05:30Z</time>
      </trkpt>
      <trkpt lat="43.76538" lon="5.8826">
        <ele>388</ele>
        <time>2017-03-26T20:05:40Z</time>
      </trkpt>
      <trkpt lat="43.76527" lon="5.88255">
        <ele>388</ele>
        <time>2017-03-26T20:05:51Z</time>
      </trkpt>
      <trkpt lat="43.76495" lon="5.88229">
        <ele>398</ele>
        <time>2017-03-26T20:05:57Z</time>
      </trkpt>
      <trkpt lat="43.76476" lon="5.88215">
        <ele>400</ele>
        <time>2017-03-26T20:06:03Z</time>
      </trkpt>
      <trkpt lat="43.76455" lon="5.88211">
        <ele>400</ele>
        <time>2017-03-26T20:06:05Z</time>
      </trkpt>
      <trkpt lat="43.76377" lon="5.88231">
        <ele>395</ele>
        <time>2017-03-26T20:06:10Z</time>
      </trkpt>
      <trkpt lat="43.76335" lon="5.88252">
        <ele>388</ele>
        <time>2017-03-26T20:06:29Z</time>
      </trkpt>
      <trkpt lat="43.76292" lon="5.88276">
        <ele>382</ele>
        <time>2017-03-26T20:06:31Z</time>
      </trkpt>
      <trkpt lat="43.76267" lon="5.88295">
        <ele>381</ele>
        <time>2017-03-26T20:06:37Z</time>
      </trkpt>
      <trkpt lat="43.76212" lon="5.88347">
        <ele>375</ele>
        <time>2017-03-26T20:06:45Z</time>
      </trkpt>
      <trkpt lat="43.76182" lon="5.88376">
        <ele>374</ele>
        <time>2017-03-26T20:06:59Z</time>
      </trkpt>
      <trkpt lat="43.76167" lon="5.88393">
        <ele>373</ele>
        <time>2017-03-26T20:07:04Z</time>
      </trkpt>
      <trkpt lat="43.76155" lon="5.88414">
        <ele>373</ele>
        <time>2017-03-26T20:07:23Z</time>
      </trkpt>
      <trkpt lat="43.76132" lon="5.88476">
        <ele>370</ele>
        <time>2017-03-26T20:07:31Z</time>
      </trkpt>
      <trkpt lat="43.76113" lon="5.88508">
        <ele>366</ele>
        <time>2017-03-26T20:07:39Z</time>
      </trkpt>
      <trkpt lat="43.76097" lon="5.88524">
        <ele>366</ele>
        <time>2017-03-26T20:07:41Z</time>
      </trkpt>
      <trkpt lat="43.76069" lon="5.88543">
        <ele>364</ele>
        <time>2017-03-26T20:07:53Z</time>
      </trkpt>
      <trkpt lat="43.76055" lon="5.88549">
        <ele>364</ele>
        <time>2017-03-26T20:08:06Z</time>
      </trkpt>
      <trkpt lat="43.76038" lon="5.88549">
        <ele>363</ele>
        <time>2017-03-26T20:08:17Z</time>
      </trkpt>
      <trkpt lat="43.7603" lon="5.88549">
        <ele>363</ele>
        <time>2017-03-26T20:08:24Z</time>
      </trkpt>
      <trkpt lat="43.76012" lon="5.88548">
        <ele>362</ele>
        <time>2017-03-26T20:08:42Z</time>
      </trkpt>
      <trkpt lat="43.75881" lon="5.88512">
        <ele>352</ele>
        <time>2017-03-26T20:08:53Z</time>
      </trkpt>
      <trkpt lat="43.75863" lon="5.88506">
        <ele>351</ele>
        <time>2017-03-26T20:09:02Z</time>
      </trkpt>
      <trkpt lat="43.75853" lon="5.88506">
        <ele>351</ele>
        <time>2017-03-26T20:09:08Z</time>
      </trkpt>
      <trkpt lat="43.7585" lon="5.8852">
        <ele>350</ele>
        <time>2017-03-26T20:09:14Z</time>
      </trkpt>
      <trkpt lat="43.75845" lon="5.88545">
        <ele>349</ele>
        <time>2017-03-26T20:09:33Z</time>
      </trkpt>
      <trkpt lat="43.75844" lon="5.88556">
        <ele>348</ele>
        <time>2017-03-26T20:09:49Z</time>
      </trkpt>
      <trkpt lat="43.75833" lon="5.88619">
        <ele>343</ele>
        <time>2017-03-26T20:10:07Z</time>
      </trkpt>
      <trkpt lat="43.75821" lon="5.88667">
        <ele>340</ele>
        <time>2017-03-26T20:10:24Z</time>
      </trkpt>
      <trkpt lat="43.75799" lon="5.88752">
        <ele>335</ele>
        <time>2017-03-26T20:10:40Z</time>
      </trkpt>
      <trkpt lat="43.75795" lon="5.88769">
        <ele>335</ele>
        <time>2017-03-26T20:10:59Z</time>
      </trkpt>
      <trkpt lat="43.75792" lon="5.88775">
        <ele>335</ele>
        <time>2017-03-26T20:11:04Z</time>
      </trkpt>
      <trkpt lat="43.7579" lon="5.88777">
        <ele>335</ele>
        <time>2017-03-26T20:11:21Z</time>
      </trkpt>
      <trkpt lat="43.75789" lon="5.88781">
        <ele>335</ele>
        <time>2017-03-26T20:11:28Z</time>
      </trkpt>
      <trkpt lat="43.75788" lon="5.88789">
        <ele>335</ele>
        <time>2017-03-26T20:11:31Z</time>
      </trkpt>
      <trkpt lat="43.75791" lon="5.88795">
        <ele>334</ele>
        <time>2017-03-26T20:11:50Z</time>
      </trkpt>
      <trkpt lat="43.75796" lon="5.88798">
        <ele>334</ele>
        <time>2017-03-26T20:11:52Z</time>
      </trkpt>
      <trkpt lat="43.75796" lon="5.88948">
        <ele>327</ele>
        <time>2017-03-26T20:12:05Z</time>
      </trkpt>
      <trkpt lat="43.758" lon="5.89082">
        <ele>323</ele>
        <time>2017-03-26T20:12:16Z</time>
      </trkpt>
      <trkpt lat="43.75799" lon="5.89281">
        <ele>320</ele>
        <time>2017-03-26T20:12:33Z</time>
      </trkpt>
      <trkpt lat="43.75786" lon="5.89358">
        <ele>326</ele>
        <time>2017-03-26T20:12:39Z</time>
      </trkpt>
      <trkpt lat="43.75769" lon="5.89427">
        <ele>332</ele>
        <time>2017-03-26T20:12:42Z</time>
      </trkpt>
      <trkpt lat="43.75723" lon="5.8956">
        <ele>332</ele>
        <time>2017-03-26T20:12:44Z</time>
      </trkpt>
      <trkpt lat="43.7572" lon="5.89579">
        <ele>333</ele>
        <time>2017-03-26T20:12:47Z</time>
      </trkpt>
      <trkpt lat="43.75723" lon="5.89596">
        <ele>334</ele>
        <time>2017-03-26T20:12:58Z</time>
      </trkpt>
      <trkpt lat="43.75728" lon="5.89614">
        <ele>335</ele>
        <time>2017-03-26T20:13:06Z</time>
      </trkpt>
      <trkpt lat="43.75736" lon="5.89628">
        <ele>335</ele>
        <time>2017-03-26T20:13:14Z</time>
      </trkpt>
      <trkpt lat="43.75773" lon="5.89684">
        <ele>342</ele>
        <time>2017-03-26T20:13:27Z</time>
      </trkpt>
      <trkpt lat="43.7579" lon="5.89753">
        <ele>342</ele>
        <time>2017-03-26T20:13:37Z</time>
      </trkpt>
      <trkpt lat="43.75814" lon="5.89857">
        <ele>340</ele>
        <time>2017-03-26T20:13:49Z</time>
      </trkpt>
      <trkpt lat="43.75819" lon="5.89894">
        <ele>340</ele>
        <time>2017-03-26T20:14:05Z</time>
      </trkpt>
      <trkpt lat="43.75826" lon="5.89965">
        <ele>340</ele>
        <time>2017-03-26T20:14:08Z</time>
      </trkpt>
      <trkpt lat="43.75843" lon="5.90132">
        <ele>345</ele>
        <time>2017-03-26T20:14:17Z</time>
      </trkpt>
      <trkpt lat="43.75842" lon="5.9018">
        <ele>344</ele>
        <time>2017-03-26T20:14:22Z</time>
      </trkpt>
      <trkpt lat="43.75837" lon="5.90204">
        <ele>345</ele>
        <time>2017-03-26T20:14:28Z</time>
      </trkpt>
      <trkpt lat="43.75818" lon="5.90272">
        <ele>341</ele>
        <time>2017-03-26T20:14:48Z</time>
      </trkpt>
      <trkpt lat="43.75808" lon="5.90332">
        <ele>342</ele>
        <time>2017-03-26T20:15:07Z</time>
      </trkpt>
      <trkpt lat="43.75798" lon="5.90531">
        <ele>337</ele>
        <time>2017-03-26T20:15:14Z</time>
      </trkpt>
      <trkpt lat="43.75783" lon="5.90624">
        <ele>336</ele>
        <time>2017-03-26T20:15:23Z</time>
      </trkpt>
      <trkpt lat="43.75769" lon="5.90709">
        <ele>333</ele>
        <time>2017-03-26T20:15:41Z</time>
      </trkpt>
      <trkpt lat="43.75755" lon="5.90821">
        <ele>328</ele>
        <time>2017-03-26T20:15:49Z</time>
      </trkpt>
      <trkpt lat="43.75754" lon="5.90845">
        <ele>327</ele>
        <time>2017-03-26T20:16:06Z</time>
      </trkpt>
      <trkpt lat="43.7571" lon="5.91271">
        <ele>322</ele>
        <time>2017-03-26T20:16:17Z</time>
      </trkpt>
      <trkpt lat="43.757" lon="5.91334">
        <ele>324</ele>
        <time>2017-03-26T20:16:29Z</time>
      </trkpt>
      <trkpt lat="43.75682" lon="5.91429">
        <ele>326</ele>
        <time>2017-03-26T20:16:47Z</time>
      </trkpt>
      <trkpt lat="43.75673" lon="5.91432">
        <ele>325</ele>
        <time>2017-03-26T20:16:49Z</time>
      </trkpt>
      <trkpt lat="43.7566" lon="5.91439">
        <ele>320</ele>
        <time>2017-03-26T20:16:54Z</time>
      </trkpt>
      <trkpt lat="43.75653" lon="5.91456">
        <ele>320</ele>
        <time>2017-03-26T20:17:09Z</time>
      </trkpt>
      <trkpt lat="43.75646" lon="5.91478">
        <ele>321</ele>
        <time>2017-03-26T20:17:20Z</time>
      </trkpt>
      <trkpt lat="43.75604" lon="5.91683">
        <ele>325</ele>
        <time>2017-03-26T20:17:39Z</time>
      </trkpt>
      <trkpt lat="43.756" lon="5.91703">
        <ele>326</ele>
        <time>2017-03-26T20:17:54Z</time>
      </trkpt>
      <trkpt lat="43.75597" lon="5.91735">
        <ele>324</ele>
        <time>2017-03-26T20:18:00Z</time>
      </trkpt>
      <trkpt lat="43.75598" lon="5.91767">
        <ele>323</ele>
        <time>2017-03-26T20:18:19Z</time>
      </trkpt>
      <trkpt lat="43.75604" lon="5.91791">
        <ele>324</ele>
        <time>2017-03-26T20:18:38Z</time>
      </trkpt>
      <trkpt lat="43.75634" lon="5.91865">
        <ele>321</ele>
        <time>2017-03-26T20:18:48Z</time>
      </trkpt>
      <trkpt lat="43.75656" lon="5.91906">
        <ele>322</ele>
        <time>2017-03-26T20:18:52Z</time>
      </trkpt>
      <trkpt lat="43.75667" lon="5.91933">
        <ele>325</ele>
        <time>2017-03-26T20:19:07Z</time>
      </trkpt>
      <trkpt lat="43.75675" lon="5.91966">
        <ele>326</ele>
        <time>2017-03-26T20:19:11Z</time>
      </trkpt>
      <trkpt lat="43.75689" lon="5.92006">
        <ele>322</ele>
        <time>2017-03-26T20:19:19Z</time>
      </trkpt>
      <trkpt lat="43.75708" lon="5.92049">
        <ele>324</ele>
        <time>2017-03-26T20:19:28Z</time>
      </trkpt>
      <trkpt lat="43.75722" lon="5.92092">
        <ele>321</ele>
        <time>2017-03-26T20:19:35Z</time>
      </trkpt>
      <trkpt lat="43.75744" lon="5.9216">
        <ele>319</ele>
        <time>2017-03-26T20:19:47Z</time>
      </trkpt>
      <trkpt lat="43.75778" lon="5.9226">
        <ele>321</ele>
        <time>2017-03-26T20:19:54Z</time>
      </trkpt>
      <trkpt lat="43.75788" lon="5.92293">
        <ele>323</ele>
        <time>2017-03-26T20:19:58Z</time>
      </trkpt>
      <trkpt lat="43.75788" lon="5.92304">
        <ele>324</ele>
        <time>2017-03-26T20:20:00Z</time>
      </trkpt>
      <trkpt lat="43.75782" lon="5.9233">
        <ele>323</ele>
        <time>2017-03-26T20:20:19Z</time>
      </trkpt>
      <trkpt lat="43.75773" lon="5.92426">
        <ele>334</ele>
        <time>2017-03-26T20:20:30Z</time>
      </trkpt>
      <trkpt lat="43.75767" lon="5.92458">
        <ele>337</ele>
        <time>2017-03-26T20:20:33Z</time>
      </trkpt>
      <trkpt lat="43.75751" lon="5.92508">
        <ele>334</ele>
        <time>2017-03-26T20:20:37Z</time>
      </trkpt>
      <trkpt lat="43.75722" lon="5.92566">
        <ele>327</ele>
        <time>2017-03-26T20:20:52Z</time>
      </trkpt>
      <trkpt lat="43.75693" lon="5.92599">
        <ele>330</ele>
        <time>2017-03-26T20:20:54Z</time>
      </trkpt>
      <trkpt lat="43.7567" lon="5.92618">
        <ele>330</ele>
        <time>2017-03-26T20:21:00Z</time>
      </trkpt>
      <trkpt lat="43.75653" lon="5.92628">
        <ele>324</ele>
        <time>2017-03-26T20:21:12Z</time>
      </trkpt>
      <trkpt lat="43.75597" lon="5.92639">
        <ele>325</ele>
        <time>2017-03-26T20:21:20Z</time>
      </trkpt>
      <trkpt lat="43.75585" lon="5.92641">
        <ele>325</ele>
        <time>2017-03-26T20:21:28Z</time>
      </trkpt>
      <trkpt lat="43.75577" lon="5.92646">
        <ele>327</ele>
        <time>2017-03-26T20:21:44Z</time>
      </trkpt>
      <trkpt lat="43.75571" lon="5.92655">
        <ele>328</ele>
        <time>2017-03-26T20:21:51Z</time>
      </trkpt>
      <trkpt lat="43.7557" lon="5.92664">
        <ele>328</ele>
        <time>2017-03-26T20:21:58Z</time>
      </trkpt>
      <trkpt lat="43.75573" lon="5.92668">
        <ele>335</ele>
        <time>2017-03-26T20:22:10Z</time>
      </trkpt>
      <trkpt lat="43.75582" lon="5.92672">
        <ele>333</ele>
        <time>2017-03-26T20:22:22Z</time>
      </trkpt>
      <trkpt lat="43.75699" lon="5.92659">
        <ele>336</ele>
        <time>2017-03-26T20:22:29Z</time>
      </trkpt>
      <trkpt lat="43.75726" lon="5.92649">
        <ele>341</ele>
        <time>2017-03-26T20:22:39Z</time>
      </trkpt>
      <trkpt lat="43.75731" lon="5.92651">
        <ele>342</ele>
        <time>2017-03-26T20:22:52Z</time>
      </trkpt>
      <trkpt lat="43.75734" lon="5.92655">
        <ele>344</ele>
        <time>2017-03-26T20:23:01Z</time>
      </trkpt>
      <trkpt lat="43.75735" lon="5.92669">
        <ele>353</ele>
        <time>2017-03-26T20:23:20Z</time>
      </trkpt>
      <trkpt lat="43.7573" lon="5.92676">
        <ele>353</ele>
        <time>2017-03-26T20:23:37Z</time>
      </trkpt>
      <trkpt lat="43.75722" lon="5.92679">
        <ele>352</ele>
        <time>2017-03-26T20:23:40Z</time>
      </trkpt>
      <trkpt lat="43.75696" lon="5.92679">
        <ele>347</ele>
        <time>2017-03-26T20:23:51Z</time>
      </trkpt>
      <trkpt lat="43.75689" lon="5.92686">
        <ele>347</ele>
        <time>2017-03-26T20:23:59Z</time>
      </trkpt>
      <trkpt lat="43.75659" lon="5.92736">
        <ele>348</ele>
        <time>2017-03-26T20:24:14Z</time>
      </trkpt>
      <trkpt lat="43.75649" lon="5.92747">
        <ele>348</ele>
        <time>2017-03-26T20:24:23Z</time>
      </trkpt>
      <trkpt lat="43.75636" lon="5.92752">
        <ele>363</ele>
        <time>2017-03-26T20:24:27Z</time>
      </trkpt>
      <trkpt lat="43.75597" lon="5.92751">
        <ele>360</ele>
        <time>2017-03-26T20:24:29Z</time>
      </trkpt>
      <trkpt lat="43.75584" lon="5.92753">
        <ele>355</ele>
        <time>2017-03-26T20:24:40Z</time>
      </trkpt>
      <trkpt lat="43.75549" lon="5.92766">
        <ele>370</ele>
        <time>2017-03-26T20:24:53Z</time>
      </trkpt>
      <trkpt lat="43.75525" lon="5.92766">
        <ele>371</ele>
        <time>2017-03-26T20:25:10Z</time>
      </trkpt>
      <trkpt lat="43.75516" lon="5.92772">
        <ele>372</ele>
        <time>2017-03-26T20:25:14Z</time>
      </trkpt>
      <trkpt lat="43.75481" lon="5.92819">
        <ele>385</ele>
        <time>2017-03-26T20:25:18Z</time>
      </trkpt>
      <trkpt lat="43.75472" lon="5.92826">
        <ele>386</ele>
        <time>2017-03-26T20:25:32Z</time>
      </trkpt>
      <trkpt lat="43.75464" lon="5.92823">
        <ele>386</ele>
        <time>2017-03-26T20:25:41Z</time>
      </trkpt>
      <trkpt lat="43.7546" lon="5.92807">
        <ele>386</ele>
        <time>2017-03-26T20:25:58Z</time>
      </trkpt>
      <trkpt lat="43.75468" lon="5.92713">
        <ele>360</ele>
        <time>2017-03-26T20:26:03Z</time>
      </trkpt>
      <trkpt lat="43.75466" lon="5.92703">
        <ele>358</ele>
        <time>2017-03-26T20:26:19Z</time>
      </trkpt>
      <trkpt lat="43.7546" lon="5.92697">
        <ele>358</ele>
        <time>2017-03-26T20:26:21Z</time>
      </trkpt>
      <trkpt lat="43.75453" lon="5.92697">
        <ele>358</ele>
        <time>2017-03-26T20:26:37Z</time>
      </trkpt>
      <trkpt lat="43.75419" lon="5.92708">
        <ele>362</ele>
        <time>2017-03-26T20:26:42Z</time>
      </trkpt>
      <trkpt lat="43.75389" lon="5.92724">
        <ele>364</ele>
        <time>2017-03-26T20:26:54Z</time>
      </trkpt>
      <trkpt lat="43.75369" lon="5.92739">
        <ele>364</ele>
        <time>2017-03-26T20:27:07Z</time>
      </trkpt>
      <trkpt lat="43.75327" lon="5.9275">
        <ele>374</ele>
        <time>2017-03-26T20:27:09Z</time>
      </trkpt>
      <trkpt lat="43.75301" lon="5.92753">
        <ele>380</ele>
        <time>2017-03-26T20:27:25Z</time>
      </trkpt>
      <trkpt lat="43.75272" lon="5.92747">
        <ele>361</ele>
        <time>2017-03-26T20:27:30Z</time>
      </trkpt>
      <trkpt lat="43.75257" lon="5.92751">
        <ele>374</ele>
        <time>2017-03-26T20:27:42Z</time>
      </trkpt>
      <trkpt lat="43.75199" lon="5.9278">
        <ele>375</ele>
        <time>2017-03-26T20:27:55Z</time>
      </trkpt>
      <trkpt lat="43.75175" lon="5.92806">
        <ele>377</ele>
        <time>2017-03-26T20:28:05Z</time>
      </trkpt>
      <trkpt lat="43.75168" lon="5.92818">
        <ele>378</ele>
        <time>2017-03-26T20:28:18Z</time>
      </trkpt>
      <trkpt lat="43.75153" lon="5.92874">
        <ele>379</ele>
        <time>2017-03-26T20:28:24Z</time>
      </trkpt>
      <trkpt lat="43.75152" lon="5.9292">
        <ele>385</ele>
        <time>2017-03-26T20:28:42Z</time>
      </trkpt>
      <trkpt lat="43.75158" lon="5.92957">
        <ele>382</ele>
        <time>2017-03-26T20:29:02Z</time>
      </trkpt>
      <trkpt lat="43.75175" lon="5.93">
        <ele>394</ele>
        <time>2017-03-26T20:29:12Z</time>
      </trkpt>
      <trkpt lat="43.75194" lon="5.93021">
        <ele>398</ele>
        <time>2017-03-26T20:29:27Z</time>
      </trkpt>
      <trkpt lat="43.75208" lon="5.93032">
        <ele>401</ele>
        <time>2017-03-26T20:29:34Z</time>
      </trkpt>
      <trkpt lat="43.75217" lon="5.93044">
        <ele>401</ele>
        <time>2017-03-26T20:29:53Z</time>
      </trkpt>
      <trkpt lat="43.75229" lon="5.93091">
        <ele>394</ele>
        <time>2017-03-26T20:30:12Z</time>
      </trkpt>
      <trkpt lat="43.75237" lon="5.93104">
        <ele>393</ele>
        <time>2017-03-26T20:30:31Z</time>
      </trkpt>
      <trkpt lat="43.75271" lon="5.93119">
        <ele>409</ele>
        <time>2017-03-26T20:30:43Z</time>
      </trkpt>
      <trkpt lat="43.75285" lon="5.9313">
        <ele>410</ele>
        <time>2017-03-26T20:30:52Z</time>
      </trkpt>
      <trkpt lat="43.753" lon="5.9315">
        <ele>412</ele>
        <time>2017-03-26T20:30:58Z</time>
      </trkpt>
      <trkpt lat="43.75309" lon="5.93167">
        <ele>408</ele>
        <time>2017-03-26T20:31:07Z</time>
      </trkpt>
      <trkpt lat="43.75325" lon="5.93229">
        <ele>407</ele>
        <time>2017-03-26T20:31:21Z</time>
      </trkpt>
      <trkpt lat="43.75334" lon="5.93248">
        <ele>415</ele>
        <time>2017-03-26T20:31:36Z</time>
      </trkpt>
      <trkpt lat="43.75343" lon="5.93258">
        <ele>416</ele>
        <time>2017-03-26T20:31:52Z</time>
      </trkpt>
      <trkpt lat="43.75399" lon="5.93301">
        <ele>422</ele>
        <time>2017-03-26T20:32:11Z</time>
      </trkpt>
      <trkpt lat="43.75452" lon="5.93319">
        <ele>439</ele>
        <time>2017-03-26T20:32:29Z</time>
      </trkpt>
      <trkpt lat="43.75459" lon="5.93328">
        <ele>440</ele>
        <time>2017-03-26T20:32:31Z</time>
      </trkpt>
      <trkpt lat="43.75466" lon="5.9335">
        <ele>439</ele>
        <time>2017-03-26T20:32:41Z</time>
      </trkpt>
      <trkpt lat="43.75466" lon="5.93364">
        <ele>439</ele>
        <time>2017-03-26T20:32:48Z</time>
      </trkpt>
      <trkpt lat="43.75464" lon="5.93377">
        <ele>439</ele>
        <time>2017-03-26T20:32:52Z</time>
      </trkpt>
      <trkpt lat="43.75458" lon="5.93387">
        <ele>438</ele>
        <time>2017-03-26T20:32:55Z</time>
      </trkpt>
      <trkpt lat="43.75446" lon="5.934">
        <ele>436</ele>
        <time>2017-03-26T20:32:58Z</time>
      </trkpt>
      <trkpt lat="43.75436" lon="5.93418">
        <ele>436</ele>
        <time>2017-03-26T20:33:10Z</time>
      </trkpt>
      <trkpt lat="43.75432" lon="5.93428">
        <ele>436</ele>
        <time>2017-03-26T20:33:23Z</time>
      </trkpt>
      <trkpt lat="43.7543" lon="5.93455">
        <ele>439</ele>
        <time>2017-03-26T20:33:27Z</time>
      </trkpt>
      <trkpt lat="43.75426" lon="5.93547">
        <ele>440</ele>
        <time>2017-03-26T20:33:40Z</time>
      </trkpt>
      <trkpt lat="43.75426" lon="5.9356">
        <ele>438</ele>
        <time>2017-03-26T20:33:42Z</time>
      </trkpt>
      <trkpt lat="43.75432" lon="5.93574">
        <ele>437</ele>
        <time>2017-03-26T20:33:51Z</time>
      </trkpt>
      <trkpt lat="43.75504" lon="5.93671">
        <ele>446</ele>
        <time>2017-03-26T20:34:06Z</time>
      </trkpt>
      <trkpt lat="43.7551" lon="5.93691">
        <ele>450</ele>
        <time>2017-03-26T20:34:12Z</time>
      </trkpt>
      <trkpt lat="43.75511" lon="5.93711">
        <ele>450</ele>
        <time>2017-03-26T20:34:16Z</time>
      </trkpt>
      <trkpt lat="43.75501" lon="5.93785">
        <ele>454</ele>
        <time>2017-03-26T20:34:35Z</time>
      </trkpt>
      <trkpt lat="43.75496" lon="5.93799">
        <ele>444</ele>
        <time>2017-03-26T20:34:48Z</time>
      </trkpt>
      <trkpt lat="43.7549" lon="5.93809">
        <ele>445</ele>
        <time>2017-03-26T20:34:58Z</time>
      </trkpt>
      <trkpt lat="43.75481" lon="5.93818">
        <ele>446</ele>
        <time>2017-03-26T20:35:06Z</time>
      </trkpt>
      <trkpt lat="43.75466" lon="5.93823">
        <ele>444</ele>
        <time>2017-03-26T20:35:21Z</time>
      </trkpt>
      <trkpt lat="43.75373" lon="5.9384">
        <ele>441</ele>
        <time>2017-03-26T20:35:32Z</time>
      </trkpt>
      <trkpt lat="43.75368" lon="5.93843">
        <ele>440</ele>
        <time>2017-03-26T20:35:45Z</time>
      </trkpt>
      <trkpt lat="43.75358" lon="5.93848">
        <ele>439</ele>
        <time>2017-03-26T20:35:48Z</time>
      </trkpt>
      <trkpt lat="43.75351" lon="5.93858">
        <ele>439</ele>
        <time>2017-03-26T20:35:50Z</time>
      </trkpt>
      <trkpt lat="43.75343" lon="5.93873">
        <ele>440</ele>
        <time>2017-03-26T20:35:56Z</time>
      </trkpt>
      <trkpt lat="43.75337" lon="5.939">
        <ele>440</ele>
        <time>2017-03-26T20:36:14Z</time>
      </trkpt>
      <trkpt lat="43.75336" lon="5.93926">
        <ele>440</ele>
        <time>2017-03-26T20:36:30Z</time>
      </trkpt>
      <trkpt lat="43.75338" lon="5.93942">
        <ele>441</ele>
        <time>2017-03-26T20:36:40Z</time>
      </trkpt>
      <trkpt lat="43.75344" lon="5.93957">
        <ele>441</ele>
        <time>2017-03-26T20:36:49Z</time>
      </trkpt>
      <trkpt lat="43.75354" lon="5.9397">
        <ele>441</ele>
        <time>2017-03-26T20:36:54Z</time>
      </trkpt>
      <trkpt lat="43.75371" lon="5.93985">
        <ele>442</ele>
        <time>2017-03-26T20:37:02Z</time>
      </trkpt>
      <trkpt lat="43.7538" lon="5.93989">
        <ele>443</ele>
        <time>2017-03-26T20:37:10Z</time>
      </trkpt>
      <trkpt lat="43.75405" lon="5.94008">
        <ele>441</ele>
        <time>2017-03-26T20:37:18Z</time>
      </trkpt>
      <trkpt lat="43.75418" lon="5.94027">
        <ele>447</ele>
        <time>2017-03-26T20:37:32Z</time>
      </trkpt>
      <trkpt lat="43.75432" lon="5.94059">
        <ele>443</ele>
        <time>2017-03-26T20:37:46Z</time>
      </trkpt>
      <trkpt lat="43.75445" lon="5.94092">
        <ele>434</ele>
        <time>2017-03-26T20:38:05Z</time>
      </trkpt>
      <trkpt lat="43.75452" lon="5.94103">
        <ele>434</ele>
        <time>2017-03-26T20:38:16Z</time>
      </trkpt>
      <trkpt lat="43.75469" lon="5.94114">
        <ele>435</ele>
        <time>2017-03-26T20:38:19Z</time>
      </trkpt>
      <trkpt lat="43.75485" lon="5.94112">
        <ele>437</ele>
        <time>2017-03-26T20:38:28Z</time>
      </trkpt>
      <trkpt lat="43.75507" lon="5.94098">
        <ele>444</ele>
        <time>2017-03-26T20:38:32Z</time>
      </trkpt>
      <trkpt lat="43.75526" lon="5.94093">
        <ele>444</ele>
        <time>2017-03-26T20:38:43Z</time>
      </trkpt>
      <trkpt lat="43.75538" lon="5.94097">
        <ele>443</ele>
        <time>2017-03-26T20:38:48Z</time>
      </trkpt>
      <trkpt lat="43.75574" lon="5.94128">
        <ele>441</ele>
        <time>2017-03-26T20:38:56Z</time>
      </trkpt>
      <trkpt lat="43.75579" lon="5.94135">
        <ele>440</ele>
        <time>2017-03-26T20:39:15Z</time>
      </trkpt>
      <trkpt lat="43.75599" lon="5.94191">
        <ele>437</ele>
        <time>2017-03-26T20:39:21Z</time>
      </trkpt>
      <trkpt lat="43.75616" lon="5.94232">
        <ele>437</ele>
        <time>2017-03-26T20:39:34Z</time>
      </trkpt>
      <trkpt lat="43.75644" lon="5.94308">
        <ele>430</ele>
        <time>2017-03-26T20:39:37Z</time>
      </trkpt>
      <trkpt lat="43.75657" lon="5.9434">
        <ele>426</ele>
        <time>2017-03-26T20:39:43Z</time>
      </trkpt>
      <trkpt lat="43.75664" lon="5.94351">
        <ele>424</ele>
        <time>2017-03-26T20:39:56Z</time>
      </trkpt>
      <trkpt lat="43.75673" lon="5.94358">
        <ele>431</ele>
        <time>2017-03-26T20:40:12Z</time>
      </trkpt>
      <trkpt lat="43.75697" lon="5.94367">
        <ele>431</ele>
        <time>2017-03-26T20:40:15Z</time>
      </trkpt>
      <trkpt lat="43.75721" lon="5.94376">
        <ele>432</ele>
        <time>2017-03-26T20:40:35Z</time>
      </trkpt>
      <trkpt lat="43.7573" lon="5.94382">
        <ele>432</ele>
        <time>2017-03-26T20:40:38Z</time>
      </trkpt>
      <trkpt lat="43.75737" lon="5.944">
        <ele>431</ele>
        <time>2017-03-26T20:40:56Z</time>
      </trkpt>
      <trkpt lat="43.75739" lon="5.9441">
        <ele>431</ele>
        <time>2017-03-26T20:41:11Z</time>
      </trkpt>
      <trkpt lat="43.75735" lon="5.94429">
        <ele>425</ele>
        <time>2017-03-26T20:41:21Z</time>
      </trkpt>
      <trkpt lat="43.75712" lon="5.94469">
        <ele>418</ele>
        <time>2017-03-26T20:41:25Z</time>
      </trkpt>
      <trkpt lat="43.75707" lon="5.94489">
        <ele>416</ele>
        <time>2017-03-26T20:41:36Z</time>
      </trkpt>
      <trkpt lat="43.7571" lon="5.94517">
        <ele>411</ele>
        <time>2017-03-26T20:41:41Z</time>
      </trkpt>
      <trkpt lat="43.75718" lon="5.94551">
        <ele>411</ele>
        <time>2017-03-26T20:41:59Z</time>
      </trkpt>
      <trkpt lat="43.75729" lon="5.94571">
        <ele>413</ele>
        <time>2017-03-26T20:42:05Z</time>
      </trkpt>
      <trkpt lat="43.75744" lon="5.94581">
        <ele>417</ele>
        <time>2017-03-26T20:42:18Z</time>
      </trkpt>
      <trkpt lat="43.75762" lon="5.94591">
        <ele>421</ele>
        <time>2017-03-26T20:42:37Z</time>
      </trkpt>
      <trkpt lat="43.75772" lon="5.94602">
        <ele>422</ele>
        <time>2017-03-26T20:42:54Z</time>
      </trkpt>
      <trkpt lat="43.75776" lon="5.94614">
        <ele>422</ele>
        <time>2017-03-26T20:43:08Z</time>
      </trkpt>
      <trkpt lat="43.75777" lon="5.94621">
        <ele>422</ele>
        <time>2017-03-26T20:43:28Z</time>
      </trkpt>
      <trkpt lat="43.75774" lon="5.94636">
        <ele>420</ele>
        <time>2017-03-26T20:43:48Z</time>
      </trkpt>
      <trkpt lat="43.75764" lon="5.94659">
        <ele>415</ele>
        <time>2017-03-26T20:43:53Z</time>
      </trkpt>
      <trkpt lat="43.75759" lon="5.94673">
        <ele>411</ele>
        <time>2017-03-26T20:44:00Z</time>
      </trkpt>
      <trkpt lat="43.75757" lon="5.94688">
        <ele>413</ele>
        <time>2017-03-26T20:44:13Z</time>
      </trkpt>
      <trkpt lat="43.75762" lon="5.94718">
        <ele>413</ele>
        <time>2017-03-26T20:44:22Z</time>
      </trkpt>
      <trkpt lat="43.75774" lon="5.94765">
        <ele>407</ele>
        <time>2017-03-26T20:44:42Z</time>
      </trkpt>
      <trkpt lat="43.75798" lon="5.94847">
        <ele>403</ele>
        <time>2017-03-26T20:44:58Z</time>
      </trkpt>
      <trkpt lat="43.75803" lon="5.94857">
        <ele>403</ele>
        <time>2017-03-26T20:45:12Z</time>
      </trkpt>
      <trkpt lat="43.75811" lon="5.94862">
        <ele>403</ele>
        <time>2017-03-26T20:45:18Z</time>
      </trkpt>
      <trkpt lat="43.75821" lon="5.94867">
        <ele>403</ele>
        <time>2017-03-26T20:45:32Z</time>
      </trkpt>
      <trkpt lat="43.75831" lon="5.94872">
        <ele>403</ele>
        <time>2017-03-26T20:45:46Z</time>
      </trkpt>
      <trkpt lat="43.75847" lon="5.94883">
        <ele>411</ele>
        <time>2017-03-26T20:46:01Z</time>
      </trkpt>
      <trkpt lat="43.75855" lon="5.94898">
        <ele>410</ele>
        <time>2017-03-26T20:46:14Z</time>
      </trkpt>
      <trkpt lat="43.7586" lon="5.94914">
        <ele>409</ele>
        <time>2017-03-26T20:46:31Z</time>
      </trkpt>
      <trkpt lat="43.75868" lon="5.94954">
        <ele>406</ele>
        <time>2017-03-26T20:46:38Z</time>
      </trkpt>
      <trkpt lat="43.75883" lon="5.94996">
        <ele>406</ele>
        <time>2017-03-26T20:46:49Z</time>
      </trkpt>
      <trkpt lat="43.75938" lon="5.951">
        <ele>409</ele>
        <time>2017-03-26T20:46:54Z</time>
      </trkpt>
      <trkpt lat="43.75952" lon="5.95127">
        <ele>411</ele>
        <time>2017-03-26T20:46:59Z</time>
      </trkpt>
      <trkpt lat="43.75972" lon="5.95186">
        <ele>412</ele>
        <time>2017-03-26T20:47:17Z</time>
      </trkpt>
      <trkpt lat="43.76006" lon="5.95337">
        <ele>415</ele>
        <time>2017-03-26T20:47:25Z</time>
      </trkpt>
      <trkpt lat="43.76019" lon="5.95372">
        <ele>420</ele>
        <time>2017-03-26T20:47:44Z</time>
      </trkpt>
      <trkpt lat="43.76042" lon="5.95416">
        <ele>422</ele>
        <time>2017-03-26T20:47:59Z</time>
      </trkpt>
      <trkpt lat="43.76071" lon="5.95468">
        <ele>421</ele>
        <time>2017-03-26T20:48:02Z</time>
      </trkpt>
      <trkpt lat="43.76082" lon="5.95493">
        <ele>420</ele>
        <time>2017-03-26T20:48:09Z</time>
      </trkpt>
      <trkpt lat="43.76087" lon="5.95512">
        <ele>425</ele>
        <time>2017-03-26T20:48:13Z</time>
      </trkpt>
      <trkpt lat="43.76091" lon="5.95557">
        <ele>427</ele>
        <time>2017-03-26T20:48:20Z</time>
      </trkpt>
      <trkpt lat="43.76095" lon="5.95642">
        <ele>426</ele>
        <time>2017-03-26T20:48:37Z</time>
      </trkpt>
      <trkpt lat="43.76099" lon="5.95671">
        <ele>425</ele>
        <time>2017-03-26T20:48:42Z</time>
      </trkpt>
      <trkpt lat="43.76109" lon="5.95702">
        <ele>428</ele>
        <time>2017-03-26T20:48:59Z</time>
      </trkpt>
      <trkpt lat="43.76132" lon="5.95764">
        <ele>428</ele>
        <time>2017-03-26T20:49:04Z</time>
      </trkpt>
      <trkpt lat="43.7617" lon="5.95859">
        <ele>433</ele>
        <time>2017-03-26T20:49:09Z</time>
      </trkpt>
      <trkpt lat="43.76195" lon="5.95926">
        <ele>434</ele>
        <time>2017-03-26T20:49:15Z</time>
      </trkpt>
      <trkpt lat="43.7621" lon="5.95977">
        <ele>436</ele>
        <time>2017-03-26T20:49:33Z</time>
      </trkpt>
      <trkpt lat="43.76235" lon="5.96076">
        <ele>438</ele>
        <time>2017-03-26T20:49:48Z</time>
      </trkpt>
      <trkpt lat="43.76255" lon="5.96171">
        <ele>440</ele>
        <time>2017-03-26T20:49:54Z</time>
      </trkpt>
      <trkpt lat="43.76272" lon="5.96258">
        <ele>446</ele>
        <time>2017-03-26T20:50:03Z</time>
      </trkpt>
      <trkpt lat="43.76274" lon="5.96313">
        <ele>446</ele>
        <time>2017-03-26T20:50:19Z</time>
      </trkpt>
      <trkpt lat="43.76271" lon="5.96358">
        <ele>448</ele>
        <time>2017-03-26T20:50:21Z</time>
      </trkpt>
      <trkpt lat="43.7626" lon="5.96403">
        <ele>448</ele>
        <time>2017-03-26T20:50:31Z</time>
      </trkpt>
      <trkpt lat="43.7624" lon="5.96451">
        <ele>444</ele>
        <time>2017-03-26T20:50:35Z</time>
      </trkpt>
      <trkpt lat="43.7622" lon="5.96508">
        <ele>446</ele>
        <time>2017-03-26T20:50:50Z</time>
      </trkpt>
      <trkpt lat="43.76212" lon="5.96547">
        <ele>447</ele>
        <time>2017-03-26T20:51:02Z</time>
      </trkpt>
      <trkpt lat="43.76209" lon="5.96575">
        <ele>447</ele>
        <time>2017-03-26T20:51:22Z</time>
      </trkpt>
      <trkpt lat="43.7621" lon="5.96617">
        <ele>449</ele>
        <time>2017-03-26T20:51:41Z</time>
      </trkpt>
      <trkpt lat="43.7621" lon="5.96651">
        <ele>450</ele>
        <time>2017-03-26T20:52:00Z</time>
      </trkpt>
      <trkpt lat="43.76206" lon="5.96665">
        <ele>450</ele>
        <time>2017-03-26T20:52:10Z</time>
      </trkpt>
      <trkpt lat="43.76202" lon="5.96672">
        <ele>451</ele>
        <time>2017-03-26T20:52:26Z</time>
      </trkpt>
      <trkpt lat="43.7619" lon="5.9668">
        <ele>450</ele>
        <time>2017-03-26T20:52:38Z</time>
      </trkpt>
      <trkpt lat="43.76182" lon="5.96681">
        <ele>450</ele>
        <time>2017-03-26T20:52:49Z</time>
      </trkpt>
      <trkpt lat="43.76172" lon="5.96678">
        <ele>450</ele>
        <time>2017-03-26T20:52:58Z</time>
      </trkpt>
      <trkpt lat="43.76164" lon="5.96673">
        <ele>451</ele>
        <time>2017-03-26T20:53:09Z</time>
      </trkpt>
      <trkpt lat="43.76145" lon="5.96657">
        <ele>451</ele>
        <time>2017-03-26T20:53:19Z</time>
      </trkpt>
      <trkpt lat="43.76139" lon="5.96649">
        <ele>452</ele>
        <time>2017-03-26T20:53:33Z</time>
      </trkpt>
      <trkpt lat="43.76117" lon="5.96601">
        <ele>452</ele>
        <time>2017-03-26T20:53:40Z</time>
      </trkpt>
      <trkpt lat="43.76104" lon="5.96559">
        <ele>451</ele>
        <time>2017-03-26T20:53:52Z</time>
      </trkpt>
      <trkpt lat="43.76096" lon="5.96539">
        <ele>450</ele>
        <time>2017-03-26T20:54:09Z</time>
      </trkpt>
      <trkpt lat="43.76087" lon="5.96529">
        <ele>450</ele>
        <time>2017-03-26T20:54:19Z</time>
      </trkpt>
      <trkpt lat="43.76081" lon="5.96526">
        <ele>455</ele>
        <time>2017-03-26T20:54:36Z</time>
      </trkpt>
      <trkpt lat="43.76037" lon="5.96533">
        <ele>457</ele>
        <time>2017-03-26T20:54:48Z</time>
      </trkpt>
      <trkpt lat="43.75994" lon="5.96546">
        <ele>462</ele>
        <time>2017-03-26T20:55:03Z</time>
      </trkpt>
      <trkpt lat="43.75986" lon="5.96552">
        <ele>462</ele>
        <time>2017-03-26T20:55:19Z</time>
      </trkpt>
      <trkpt lat="43.75979" lon="5.96561">
        <ele>462</ele>
        <time>2017-03-26T20:55:32Z</time>
      </trkpt>
      <trkpt lat="43.7597" lon="5.96579">
        <ele>462</ele>
        <time>2017-03-26T20:55:34Z</time>
      </trkpt>
      <trkpt lat="43.75952" lon="5.96611">
        <ele>463</ele>
        <time>2017-03-26T20:55:50Z</time>
      </trkpt>
      <trkpt lat="43.75884" lon="5.96706">
        <ele>468</ele>
        <time>2017-03-26T20:55:55Z</time>
      </trkpt>
      <trkpt lat="43.75869" lon="5.96723">
        <ele>469</ele>
        <time>2017-03-26T20:56:11Z</time>
      </trkpt>
      <trkpt lat="43.75863" lon="5.96727">
        <ele>469</ele>
        <time>2017-03-26T20:56:18Z</time>
      </trkpt>
      <trkpt lat="43.75854" lon="5.96731">
        <ele>469</ele>
        <time>2017-03-26T20:56:30Z</time>
      </trkpt>
      <trkpt lat="43.75842" lon="5.96728">
        <ele>469</ele>
        <time>2017-03-26T20:56:36Z</time>
      </trkpt>
      <trkpt lat="43.75825" lon="5.96723">
        <ele>469</ele>
        <time>2017-03-26T20:56:42Z</time>
      </trkpt>
      <trkpt lat="43.75793" lon="5.9671">
        <ele>469</ele>
        <time>2017-03-26T20:56:56Z</time>
      </trkpt>
      <trkpt lat="43.75763" lon="5.96695">
        <ele>468</ele>
        <time>2017-03-26T20:57:09Z</time>
      </trkpt>
      <trkpt lat="43.75675" lon="5.96662">
        <ele>465</ele>
        <time>2017-03-26T20:57:18Z</time>
      </trkpt>
      <trkpt lat="43.75631" lon="5.96646">
        <ele>465</ele>
        <time>2017-03-26T20:57:32Z</time>
      </trkpt>
      <trkpt lat="43.75619" lon="5.96644">
        <ele>465</ele>
        <time>2017-03-26T20:57:36Z</time>
      </trkpt>
      <trkpt lat="43.75606" lon="5.96647">
        <ele>465</ele>
        <time>2017-03-26T20:57:55Z</time>
      </trkpt>
      <trkpt lat="43.75592" lon="5.96656">
        <ele>464</ele>
        <time>2017-03-26T20:57:58Z</time>
      </trkpt>
      <trkpt lat="43.75569" lon="5.9668">
        <ele>460</ele>
        <time>2017-03-26T20:58:16Z</time>
      </trkpt>
      <trkpt lat="43.75545" lon="5.96695">
        <ele>459</ele>
        <time>2017-03-26T20:58:20Z</time>
      </trkpt>
      <trkpt lat="43.75536" lon="5.96697">
        <ele>458</ele>
        <time>2017-03-26T20:58:37Z</time>
      </trkpt>
      <trkpt lat="43.75527" lon="5.96695">
        <ele>458</ele>
        <time>2017-03-26T20:58:54Z</time>
      </trkpt>
      <trkpt lat="43.75509" lon="5.96685">
        <ele>458</ele>
        <time>2017-03-26T20:58:58Z</time>
      </trkpt>
      <trkpt lat="43.75413" lon="5.96622">
        <ele>441</ele>
        <time>2017-03-26T20:59:12Z</time>
      </trkpt>
      <trkpt lat="43.75398" lon="5.96617">
        <ele>440</ele>
        <time>2017-03-26T20:59:21Z</time>
      </trkpt>
      <trkpt lat="43.75385" lon="5.96619">
        <ele>439</ele>
        <time>2017-03-26T20:59:38Z</time>
      </trkpt>
      <trkpt lat="43.75378" lon="5.96622">
        <ele>438</ele>
        <time>2017-03-26T20:59:44Z</time>
      </trkpt>
      <trkpt lat="43.75373" lon="5.96627">
        <ele>438</ele>
        <time>2017-03-26T20:59:59Z</time>
      </trkpt>
      <trkpt lat="43.75372" lon="5.96638">
        <ele>438</ele>
        <time>2017-03-26T21:00:09Z</time>
      </trkpt>
      <trkpt lat="43.75374" lon="5.96646">
        <ele>439</ele>
        <time>2017-03-26T21:00:21Z</time>
      </trkpt>
      <trkpt lat="43.7538" lon="5.96652">
        <ele>440</ele>
        <time>2017-03-26T21:00:24Z</time>
      </trkpt>
      <trkpt lat="43.75389" lon="5.96658">
        <ele>441</ele>
        <time>2017-03-26T21:00:32Z</time>
      </trkpt>
      <trkpt lat="43.75409" lon="5.96668">
        <ele>447</ele>
        <time>2017-03-26T21:00:35Z</time>
      </trkpt>
      <trkpt lat="43.75421" lon="5.96677">
        <ele>451</ele>
        <time>2017-03-26T21:00:42Z</time>
      </trkpt>
      <trkpt lat="43.75434" lon="5.96692">
        <ele>451</ele>
        <time>2017-03-26T21:00:46Z</time>
      </trkpt>
      <trkpt lat="43.75437" lon="5.96706">
        <ele>451</ele>
        <time>2017-03-26T21:00:53Z</time>
      </trkpt>
      <trkpt lat="43.75431" lon="5.9672">
        <ele>450</ele>
        <time>2017-03-26T21:01:07Z</time>
      </trkpt>
      <trkpt lat="43.75401" lon="5.9675">
        <ele>442</ele>
        <time>2017-03-26T21:01:17Z</time>
      </trkpt>
      <trkpt lat="43.75362" lon="5.96786">
        <ele>436</ele>
        <time>2017-03-26T21:01:21Z</time>
      </trkpt>
      <trkpt lat="43.75347" lon="5.96796">
        <ele>435</ele>
        <time>2017-03-26T21:01:37Z</time>
      </trkpt>
      <trkpt lat="43.75322" lon="5.96807">
        <ele>423</ele>
        <time>2017-03-26T21:01:56Z</time>
      </trkpt>
      <trkpt lat="43.75308" lon="5.96816">
        <ele>422</ele>
        <time>2017-03-26T21:02:06Z</time>
      </trkpt>
      <trkpt lat="43.75301" lon="5.96823">
        <ele>421</ele>
        <time>2017-03-26T21:02:14Z</time>
      </trkpt>
      <trkpt lat="43.75282" lon="5.96855">
        <ele>421</ele>
        <time>2017-03-26T21:02:33Z</time>
      </trkpt>
      <trkpt lat="43.75274" lon="5.96877">
        <ele>421</ele>
        <time>2017-03-26T21:02:43Z</time>
      </trkpt>
      <trkpt lat="43.75273" lon="5.96893">
        <ele>421</ele>
        <time>2017-03-26T21:02:55Z</time>
      </trkpt>
      <trkpt lat="43.75274" lon="5.96904">
        <ele>421</ele>
        <time>2017-03-26T21:03:05Z</time>
      </trkpt>
      <trkpt lat="43.75283" lon="5.9692">
        <ele>421</ele>
        <time>2017-03-26T21:03:08Z</time>
      </trkpt>
      <trkpt lat="43.75291" lon="5.96929">
        <ele>422</ele>
        <time>2017-03-26T21:03:16Z</time>
      </trkpt>
      <trkpt lat="43.75312" lon="5.9694">
        <ele>423</ele>
        <time>2017-03-26T21:03:22Z</time>
      </trkpt>
      <trkpt lat="43.75327" lon="5.96944">
        <ele>424</ele>
        <time>2017-03-26T21:03:24Z</time>
      </trkpt>
      <trkpt lat="43.75341" lon="5.96951">
        <ele>429</ele>
        <time>2017-03-26T21:03:33Z</time>
      </trkpt>
      <trkpt lat="43.75348" lon="5.96958">
        <ele>428</ele>
        <time>2017-03-26T21:03:41Z</time>
      </trkpt>
      <trkpt lat="43.75354" lon="5.96975">
        <ele>427</ele>
        <time>2017-03-26T21:03:55Z</time>
      </trkpt>
      <trkpt lat="43.75355" lon="5.97001">
        <ele>426</ele>
        <time>2017-03-26T21:04:14Z</time>
      </trkpt>
      <trkpt lat="43.75351" lon="5.97019">
        <ele>427</ele>
        <time>2017-03-26T21:04:25Z</time>
      </trkpt>
      <trkpt lat="43.75343" lon="5.97033">
        <ele>428</ele>
        <time>2017-03-26T21:04:32Z</time>
      </trkpt>
      <trkpt lat="43.75335" lon="5.97037">
        <ele>428</ele>
        <time>2017-03-26T21:04:38Z</time>
      </trkpt>
      <trkpt lat="43.75304" lon="5.97043">
        <ele>423</ele>
        <time>2017-03-26T21:04:44Z</time>
      </trkpt>
      <trkpt lat="43.75213" lon="5.9706">
        <ele>414</ele>
        <time>2017-03-26T21:05:03Z</time>
      </trkpt>
      <trkpt lat="43.75203" lon="5.97064">
        <ele>413</ele>
        <time>2017-03-26T21:05:22Z</time>
      </trkpt>
      <trkpt lat="43.75194" lon="5.97072">
        <ele>412</ele>
        <time>2017-03-26T21:05:36Z</time>
      </trkpt>
      <trkpt lat="43.75175" lon="5.97097">
        <ele>413</ele>
        <time>2017-03-26T21:05:56Z</time>
      </trkpt>
      <trkpt lat="43.75154" lon="5.97127">
        <ele>408</ele>
        <time>2017-03-26T21:06:11Z</time>
      </trkpt>
      <trkpt lat="43.75132" lon="5.97159">
        <ele>407</ele>
        <time>2017-03-26T21:06:28Z</time>
      </trkpt>
      <trkpt lat="43.75114" lon="5.97172">
        <ele>408</ele>
        <time>2017-03-26T21:06:34Z</time>
      </trkpt>
      <trkpt lat="43.75076" lon="5.9718">
        <ele>407</ele>
        <time>2017-03-26T21:06:43Z</time>
      </trkpt>
      <trkpt lat="43.75054" lon="5.97184">
        <ele>409</ele>
        <time>2017-03-26T21:06:59Z</time>
      </trkpt>
      <trkpt lat="43.75043" lon="5.97184">
        <ele>410</ele>
        <time>2017-03-26T21:07:10Z</time>
      </trkpt>
      <trkpt lat="43.75034" lon="5.9718">
        <ele>410</ele>
        <time>2017-03-26T21:07:22Z</time>
      </trkpt>
      <trkpt lat="43.75028" lon="5.97173">
        <ele>411</ele>
        <time>2017-03-26T21:07:37Z</time>
      </trkpt>
      <trkpt lat="43.75018" lon="5.97142">
        <ele>410</ele>
        <time>2017-03-26T21:07:55Z</time>
      </trkpt>
      <trkpt lat="43.75001" lon="5.9705">
        <ele>408</ele>
        <time>2017-03-26T21:08:04Z</time>
      </trkpt>
      <trkpt lat="43.74987" lon="5.96987">
        <ele>412</ele>
        <time>2017-03-26T21:08:18Z</time>
      </trkpt>
      <trkpt lat="43.74981" lon="5.96953">
        <ele>414</ele>
        <time>2017-03-26T21:08:33Z</time>
      </trkpt>
      <trkpt lat="43.74981" lon="5.96905">
        <ele>415</ele>
        <time>2017-03-26T21:08:53Z</time>
      </trkpt>
      <trkpt lat="43.74974" lon="5.96873">
        <ele>418</ele>
        <time>2017-03-26T21:08:55Z</time>
      </trkpt>
      <trkpt lat="43.74973" lon="5.96848">
        <ele>417</ele>
        <time>2017-03-26T21:09:01Z</time>
      </trkpt>
      <trkpt lat="43.74977" lon="5.96822">
        <ele>419</ele>
        <time>2017-03-26T21:09:04Z</time>
      </trkpt>
      <trkpt lat="43.74977" lon="5.96814">
        <ele>420</ele>
        <time>2017-03-26T21:09:15Z</time>
      </trkpt>
      <trkpt lat="43.7497" lon="5.9682">
        <ele>421</ele>
        <time>2017-03-26T21:09:26Z</time>
      </trkpt>
      <trkpt lat="43.74951" lon="5.96837">
        <ele>422</ele>
        <time>2017-03-26T21:09:34Z</time>
      </trkpt>
      <trkpt lat="43.74947" lon="5.96852">
        <ele>422</ele>
        <time>2017-03-26T21:09:42Z</time>
      </trkpt>
      <trkpt lat="43.74958" lon="5.96886">
        <ele>419</ele>
        <time>2017-03-26T21:09:56Z</time>
      </trkpt>
      <trkpt lat="43.74959" lon="5.96898">
        <ele>419</ele>
        <time>2017-03-26T21:10:09Z</time>
      </trkpt>
      <trkpt lat="43.74953" lon="5.96915">
        <ele>420</ele>
        <time>2017-03-26T21:10:27Z</time>
      </trkpt>
      <trkpt lat="43.74946" lon="5.96921">
        <ele>419</ele>
        <time>2017-03-26T21:10:30Z</time>
      </trkpt>
      <trkpt lat="43.74924" lon="5.96933">
        <ele>422</ele>
        <time>2017-03-26T21:10:43Z</time>
      </trkpt>
      <trkpt lat="43.74883" lon="5.9695">
        <ele>428</ele>
        <time>2017-03-26T21:11:01Z</time>
      </trkpt>
      <trkpt lat="43.7485" lon="5.96962">
        <ele>429</ele>
        <time>2017-03-26T21:11:10Z</time>
      </trkpt>
      <trkpt lat="43.74838" lon="5.96962">
        <ele>430</ele>
        <time>2017-03-26T21:11:14Z</time>
      </trkpt>
      <trkpt lat="43.74826" lon="5.96958">
        <ele>434</ele>
        <time>2017-03-26T21:11:32Z</time>
      </trkpt>
      <trkpt lat="43.74798" lon="5.96934">
        <ele>436</ele>
        <time>2017-03-26T21:11:39Z</time>
      </trkpt>
      <trkpt lat="43.74783" lon="5.96924">
        <ele>437</ele>
        <time>2017-03-26T21:11:49Z</time>
      </trkpt>
      <trkpt lat="43.74772" lon="5.96919">
        <ele>438</ele>
        <time>2017-03-26T21:12:05Z</time>
      </trkpt>
      <trkpt lat="43.74749" lon="5.96923">
        <ele>442</ele>
        <time>2017-03-26T21:12:13Z</time>
      </trkpt>
      <trkpt lat="43.74733" lon="5.96931">
        <ele>443</ele>
        <time>2017-03-26T21:12:23Z</time>
      </trkpt>
      <trkpt lat="43.74731" lon="5.96943">
        <ele>443</ele>
        <time>2017-03-26T21:12:29Z</time>
      </trkpt>
      <trkpt lat="43.74737" lon="5.96954">
        <ele>443</ele>
        <time>2017-03-26T21:12:41Z</time>
      </trkpt>
      <trkpt lat="43.74744" lon="5.96968">
        <ele>442</ele>
        <time>2017-03-26T21:12:46Z</time>
      </trkpt>
      <trkpt lat="43.74741" lon="5.96982">
        <ele>441</ele>
        <time>2017-03-26T21:13:06Z</time>
      </trkpt>
      <trkpt lat="43.74724" lon="5.96999">
        <ele>442</ele>
        <time>2017-03-26T21:13:24Z</time>
      </trkpt>
      <trkpt lat="43.74692" lon="5.97023">
        <ele>446</ele>
        <time>2017-03-26T21:13:39Z</time>
      </trkpt>
      <trkpt lat="43.74666" lon="5.97047">
        <ele>454</ele>
        <time>2017-03-26T21:13:54Z</time>
      </trkpt>
      <trkpt lat="43.74657" lon="5.97055">
        <ele>454</ele>
        <time>2017-03-26T21:14:05Z</time>
      </trkpt>
      <trkpt lat="43.74655" lon="5.97059">
        <ele>454</ele>
        <time>2017-03-26T21:14:13Z</time>
      </trkpt>
      <trkpt lat="43.74654" lon="5.9707">
        <ele>453</ele>
        <time>2017-03-26T21:14:30Z</time>
      </trkpt>
      <trkpt lat="43.74665" lon="5.97099">
        <ele>454</ele>
        <time>2017-03-26T21:14:37Z</time>
      </trkpt>
      <trkpt lat="43.74675" lon="5.97134">
        <ele>452</ele>
        <time>2017-03-26T21:14:54Z</time>
      </trkpt>
      <trkpt lat="43.74691" lon="5.97166">
        <ele>453</ele>
        <time>2017-03-26T21:14:59Z</time>
      </trkpt>
      <trkpt lat="43.74694" lon="5.97174">
        <ele>457</ele>
        <time>2017-03-26T21:15:01Z</time>
      </trkpt>
      <trkpt lat="43.74692" lon="5.9718">
        <ele>458</ele>
        <time>2017-03-26T21:15:12Z</time>
      </trkpt>
      <trkpt lat="43.74688" lon="5.97183">
        <ele>458</ele>
        <time>2017-03-26T21:15:28Z</time>
      </trkpt>
      <trkpt lat="43.74672" lon="5.9717">
        <ele>457</ele>
        <time>2017-03-26T21:15:30Z</time>
      </trkpt>
      <trkpt lat="43.74648" lon="5.97147">
        <ele>456</ele>
        <time>2017-03-26T21:15:34Z</time>
      </trkpt>
      <trkpt lat="43.74628" lon="5.97134">
        <ele>457</ele>
        <time>2017-03-26T21:15:40Z</time>
      </trkpt>
      <trkpt lat="43.74617" lon="5.97131">
        <ele>457</ele>
        <time>2017-03-26T21:15:52Z</time>
      </trkpt>
      <trkpt lat="43.74596" lon="5.97131">
        <ele>458</ele>
        <time>2017-03-26T21:15:55Z</time>
      </trkpt>
      <trkpt lat="43.74575" lon="5.9713">
        <ele>458</ele>
        <time>2017-03-26T21:15:57Z</time>
      </trkpt>
      <trkpt lat="43.74541" lon="5.97132">
        <ele>458</ele>
        <time>2017-03-26T21:16:15Z</time>
      </trkpt>
      <trkpt lat="43.74532" lon="5.97134">
        <ele>457</ele>
        <time>2017-03-26T21:16:21Z</time>
      </trkpt>
      <trkpt lat="43.74529" lon="5.97138">
        <ele>457</ele>
        <time>2017-03-26T21:16:32Z</time>
      </trkpt>
      <trkpt lat="43.74527" lon="5.97146">
        <ele>457</ele>
        <time>2017-03-26T21:16:51Z</time>
      </trkpt>
      <trkpt lat="43.74539" lon="5.97171">
        <ele>456</ele>
        <time>2017-03-26T21:16:55Z</time>
      </trkpt>
      <trkpt lat="43.74555" lon="5.97213">
        <ele>457</ele>
        <time>2017-03-26T21:16:58Z</time>
      </trkpt>
      <trkpt lat="43.74559" lon="5.9723">
        <ele>457</ele>
        <time>2017-03-26T21:17:11Z</time>
      </trkpt>
      <trkpt lat="43.74558" lon="5.97239">
        <ele>457</ele>
        <time>2017-03-26T21:17:17Z</time>
      </trkpt>
      <trkpt lat="43.74554" lon="5.97246">
        <ele>457</ele>
        <time>2017-03-26T21:17:29Z</time>
      </trkpt>
      <trkpt lat="43.74544" lon="5.97252">
        <ele>459</ele>
        <time>2017-03-26T21:17:38Z</time>
      </trkpt>
      <trkpt lat="43.74534" lon="5.97253">
        <ele>459</ele>
        <time>2017-03-26T21:17:43Z</time>
      </trkpt>
      <trkpt lat="43.74529" lon="5.97252">
        <ele>458</ele>
        <time>2017-03-26T21:17:57Z</time>
      </trkpt>
      <trkpt lat="43.74508" lon="5.97244">
        <ele>453</ele>
        <time>2017-03-26T21:18:11Z</time>
      </trkpt>
      <trkpt lat="43.7449" lon="5.97237">
        <ele>450</ele>
        <time>2017-03-26T21:18:13Z</time>
      </trkpt>
      <trkpt lat="43.74481" lon="5.97237">
        <ele>450</ele>
        <time>2017-03-26T21:18:18Z</time>
      </trkpt>
      <trkpt lat="43.74454" lon="5.97246">
        <ele>448</ele>
        <time>2017-03-26T21:18:31Z</time>
      </trkpt>
      <trkpt lat="43.74432" lon="5.97262">
        <ele>448</ele>
        <time>2017-03-26T21:18:51Z</time>
      </trkpt>
      <trkpt lat="43.74418" lon="5.97277">
        <ele>449</ele>
        <time>2017-03-26T21:18:54Z</time>
      </trkpt>
      <trkpt lat="43.74403" lon="5.97288">
        <ele>443</ele>
        <time>2017-03-26T21:19:07Z</time>
      </trkpt>
      <trkpt lat="43.74396" lon="5.97289">
        <ele>443</ele>
        <time>2017-03-26T21:19:12Z</time>
      </trkpt>
      <trkpt lat="43.74373" lon="5.97297">
        <ele>442</ele>
        <time>2017-03-26T21:19:27Z</time>
      </trkpt>
      <trkpt lat="43.7436" lon="5.97307">
        <ele>441</ele>
        <time>2017-03-26T21:19:35Z</time>
      </trkpt>
      <trkpt lat="43.74351" lon="5.97319">
        <ele>440</ele>
        <time>2017-03-26T21:19:46Z</time>
      </trkpt>
      <trkpt lat="43.74343" lon="5.97332">
        <ele>438</ele>
        <time>2017-03-26T21:19:53Z</time>
      </trkpt>
      <trkpt lat="43.74337" lon="5.97333">
        <ele>437</ele>
        <time>2017-03-26T21:19:58Z</time>
      </trkpt>
      <trkpt lat="43.74334" lon="5.97328">
        <ele>437</ele>
        <time>2017-03-26T21:20:18Z</time>
      </trkpt>
      <trkpt lat="43.74334" lon="5.97324">
        <ele>438</ele>
        <time>2017-03-26T21:20:31Z</time>
      </trkpt>
      <trkpt lat="43.7434" lon="5.97312">
        <ele>439</ele>
        <time>2017-03-26T21:20:40Z</time>
      </trkpt>
      <trkpt lat="43.74352" lon="5.97293">
        <ele>440</ele>
        <time>2017-03-26T21:20:48Z</time>
      </trkpt>
      <trkpt lat="43.74368" lon="5.97273">
        <ele>441</ele>
        <time>2017-03-26T21:21:05Z</time>
      </trkpt>
      <trkpt lat="43.74373" lon="5.97264">
        <ele>441</ele>
        <time>2017-03-26T21:21:07Z</time>
      </trkpt>
      <trkpt lat="43.74373" lon="5.97256">
        <ele>441</ele>
        <time>2017-03-26T21:21:24Z</time>
      </trkpt>
      <trkpt lat="43.74368" lon="5.97253">
        <ele>440</ele>
        <time>2017-03-26T21:21:26Z</time>
      </trkpt>
      <trkpt lat="43.7436" lon="5.97257">
        <ele>439</ele>
        <time>2017-03-26T21:21:44Z</time>
      </trkpt>
      <trkpt lat="43.74318" lon="5.97305">
        <ele>434</ele>
        <time>2017-03-26T21:21:56Z</time>
      </trkpt>
      <trkpt lat="43.74265" lon="5.97363">
        <ele>430</ele>
        <time>2017-03-26T21:22:06Z</time>
      </trkpt>
      <trkpt lat="43.74254" lon="5.97368">
        <ele>430</ele>
        <time>2017-03-26T21:22:16Z</time>
      </trkpt>
      <trkpt lat="43.74243" lon="5.9737">
        <ele>424</ele>
        <time>2017-03-26T21:22:19Z</time>
      </trkpt>
      <trkpt lat="43.74215" lon="5.97373">
        <ele>424</ele>
        <time>2017-03-26T21:22:28Z</time>
      </trkpt>
      <trkpt lat="43.74177" lon="5.97373">
        <ele>423</ele>
        <time>2017-03-26T21:22:30Z</time>
      </trkpt>
      <trkpt lat="43.74165" lon="5.9737">
        <ele>417</ele>
        <time>2017-03-26T21:22:44Z</time>
      </trkpt>
      <trkpt lat="43.74156" lon="5.97379">
        <ele>417</ele>
        <time>2017-03-26T21:22:50Z</time>
      </trkpt>
      <trkpt lat="43.74148" lon="5.97382">
        <ele>417</ele>
        <time>2017-03-26T21:22:55Z</time>
      </trkpt>
      <trkpt lat="43.74134" lon="5.97385">
        <ele>416</ele>
        <time>2017-03-26T21:23:12Z</time>
      </trkpt>
      <trkpt lat="43.74112" lon="5.97383">
        <ele>414</ele>
        <time>2017-03-26T21:23:28Z</time>
      </trkpt>
      <trkpt lat="43.74091" lon="5.97386">
        <ele>412</ele>
        <time>2017-03-26T21:23:48Z</time>
      </trkpt>
      <trkpt lat="43.74083" lon="5.97399">
        <ele>405</ele>
        <time>2017-03-26T21:24:08Z</time>
      </trkpt>
      <trkpt lat="43.74066" lon="5.97422">
        <ele>401</ele>
        <time>2017-03-26T21:24:20Z</time>
      </trkpt>
      <trkpt lat="43.74059" lon="5.97435">
        <ele>400</ele>
        <time>2017-03-26T21:24:38Z</time>
      </trkpt>
      <trkpt lat="43.74056" lon="5.97445">
        <ele>399</ele>
        <time>2017-03-26T21:24:51Z</time>
      </trkpt>
      <trkpt lat="43.74055" lon="5.97458">
        <ele>399</ele>
        <time>2017-03-26T21:25:10Z</time>
      </trkpt>
      <trkpt lat="43.7406" lon="5.97499">
        <ele>401</ele>
        <time>2017-03-26T21:25:20Z</time>
      </trkpt>
      <trkpt lat="43.74065" lon="5.97526">
        <ele>397</ele>
        <time>2017-03-26T21:25:22Z</time>
      </trkpt>
      <trkpt lat="43.74076" lon="5.9756">
        <ele>396</ele>
        <time>2017-03-26T21:25:36Z</time>
      </trkpt>
      <trkpt lat="43.74104" lon="5.97623">
        <ele>402</ele>
        <time>2017-03-26T21:25:55Z</time>
      </trkpt>
      <trkpt lat="43.74112" lon="5.97634">
        <ele>402</ele>
        <time>2017-03-26T21:26:09Z</time>
      </trkpt>
      <trkpt lat="43.74127" lon="5.97642">
        <ele>404</ele>
        <time>2017-03-26T21:26:16Z</time>
      </trkpt>
      <trkpt lat="43.74134" lon="5.97647">
        <ele>405</ele>
        <time>2017-03-26T21:26:32Z</time>
      </trkpt>
      <trkpt lat="43.74139" lon="5.97657">
        <ele>406</ele>
        <time>2017-03-26T21:26:45Z</time>
      </trkpt>
      <trkpt lat="43.74143" lon="5.97682">
        <ele>400</ele>
        <time>2017-03-26T21:26:48Z</time>
      </trkpt>
      <trkpt lat="43.74154" lon="5.97702">
        <ele>398</ele>
        <time>2017-03-26T21:26:51Z</time>
      </trkpt>
      <trkpt lat="43.74164" lon="5.97713">
        <ele>398</ele>
        <time>2017-03-26T21:27:05Z</time>
      </trkpt>
      <trkpt lat="43.74186" lon="5.97733">
        <ele>409</ele>
        <time>2017-03-26T21:27:22Z</time>
      </trkpt>
      <trkpt lat="43.74221" lon="5.97758">
        <ele>407</ele>
        <time>2017-03-26T21:27:36Z</time>
      </trkpt>
      <trkpt lat="43.74245" lon="5.97778">
        <ele>409</ele>
        <time>2017-03-26T21:27:50Z</time>
      </trkpt>
      <trkpt lat="43.74248" lon="5.97788">
        <ele>408</ele>
        <time>2017-03-26T21:28:08Z</time>
      </trkpt>
      <trkpt lat="43.74236" lon="5.97827">
        <ele>408</ele>
        <time>2017-03-26T21:28:26Z</time>
      </trkpt>
      <trkpt lat="43.74229" lon="5.97874">
        <ele>405</ele>
        <time>2017-03-26T21:28:32Z</time>
      </trkpt>
      <trkpt lat="43.74221" lon="5.97902">
        <ele>405</ele>
        <time>2017-03-26T21:28:40Z</time>
      </trkpt>
      <trkpt lat="43.74208" lon="5.97932">
        <ele>404</ele>
        <time>2017-03-26T21:28:51Z</time>
      </trkpt>
      <trkpt lat="43.74188" lon="5.97987">
        <ele>401</ele>
        <time>2017-03-26T21:29:11Z</time>
      </trkpt>
      <trkpt lat="43.74184" lon="5.98013">
        <ele>400</ele>
        <time>2017-03-26T21:29:27Z</time>
      </trkpt>
      <trkpt lat="43.74184" lon="5.98036">
        <ele>401</ele>
        <time>2017-03-26T21:29:46Z</time>
      </trkpt>
      <trkpt lat="43.74186" lon="5.98059">
        <ele>400</ele>
        <time>2017-03-26T21:29:52Z</time>
      </trkpt>
      <trkpt lat="43.74183" lon="5.98069">
        <ele>399</ele>
        <time>2017-03-26T21:30:09Z</time>
      </trkpt>
      <trkpt lat="43.74179" lon="5.98077">
        <ele>397</ele>
        <time>2017-03-26T21:30:17Z</time>
      </trkpt>
      <trkpt lat="43.74168" lon="5.98105">
        <ele>399</ele>
        <time>2017-03-26T21:30:35Z</time>
      </trkpt>
      <trkpt lat="43.74152" lon="5.9814">
        <ele>396</ele>
        <time>2017-03-26T21:30:45Z</time>
      </trkpt>
      <trkpt lat="43.74143" lon="5.98153">
        <ele>396</ele>
        <time>2017-03-26T21:30:49Z</time>
      </trkpt>
      <trkpt lat="43.74139" lon="5.98154">
        <ele>396</ele>
        <time>2017-03-26T21:31:04Z</time>
      </trkpt>
      <trkpt lat="43.74134" lon="5.98152">
        <ele>396</ele>
        <time>2017-03-26T21:31:16Z</time>
      </trkpt>
      <trkpt lat="43.74127" lon="5.98147">
        <ele>396</ele>
        <time>2017-03-26T21:31:19Z</time>
      </trkpt>
      <trkpt lat="43.74116" lon="5.98125">
        <ele>395</ele>
        <time>2017-03-26T21:31:29Z</time>
      </trkpt>
      <trkpt lat="43.74109" lon="5.9811">
        <ele>395</ele>
        <time>2017-03-26T21:31:47Z</time>
      </trkpt>
      <trkpt lat="43.74102" lon="5.98105">
        <ele>395</ele>
        <time>2017-03-26T21:32:02Z</time>
      </trkpt>
      <trkpt lat="43.7409" lon="5.98107">
        <ele>395</ele>
        <time>2017-03-26T21:32:04Z</time>
      </trkpt>
      <trkpt lat="43.74071" lon="5.98106">
        <ele>399</ele>
        <time>2017-03-26T21:32:06Z</time>
      </trkpt>
      <trkpt lat="43.74059" lon="5.981">
        <ele>400</ele>
        <time>2017-03-26T21:32:09Z</time>
      </trkpt>
      <trkpt lat="43.74071" lon="5.98142">
        <ele>401</ele>
        <time>2017-03-26T21:32:13Z</time>
      </trkpt>
      <trkpt lat="43.74075" lon="5.98217">
        <ele>405</ele>
        <time>2017-03-26T21:32:16Z</time>
      </trkpt>
      <trkpt lat="43.74071" lon="5.98256">
        <ele>407</ele>
        <time>2017-03-26T21:32:26Z</time>
      </trkpt>
      <trkpt lat="43.74074" lon="5.98279">
        <ele>410</ele>
        <time>2017-03-26T21:32:32Z</time>
      </trkpt>
      <trkpt lat="43.74085" lon="5.98309">
        <ele>405</ele>
        <time>2017-03-26T21:32:43Z</time>
      </trkpt>
      <trkpt lat="43.74114" lon="5.98386">
        <ele>408</ele>
        <time>2017-03-26T21:32:52Z</time>
      </trkpt>
      <trkpt lat="43.74121" lon="5.98409">
        <ele>408</ele>
        <time>2017-03-26T21:32:56Z</time>
      </trkpt>
      <trkpt lat="43.74123" lon="5.98422">
        <ele>410</ele>
        <time>2017-03-26T21:33:04Z</time>
      </trkpt>
      <trkpt lat="43.74126" lon="5.98493">
        <ele>410</ele>
        <time>2017-03-26T21:33:14Z</time>
      </trkpt>
      <trkpt lat="43.74129" lon="5.98544">
        <ele>411</ele>
        <time>2017-03-26T21:33:17Z</time>
      </trkpt>
      <trkpt lat="43.74128" lon="5.98593">
        <ele>411</ele>
        <time>2017-03-26T21:33:36Z</time>
      </trkpt>
      <trkpt lat="43.74124" lon="5.98629">
        <ele>411</ele>
        <time>2017-03-26T21:33:40Z</time>
      </trkpt>
      <trkpt lat="43.74116" lon="5.98663">
        <ele>412</ele>
        <time>2017-03-26T21:33:48Z</time>
      </trkpt>
      <trkpt lat="43.74109" lon="5.98698">
        <ele>412</ele>
        <time>2017-03-26T21:34:00Z</time>
      </trkpt>
      <trkpt lat="43.74105" lon="5.98734">
        <ele>413</ele>
        <time>2017-03-26T21:34:13Z</time>
      </trkpt>
      <trkpt lat="43.74109" lon="5.98784">
        <ele>415</ele>
        <time>2017-03-26T21:34:21Z</time>
      </trkpt>
      <trkpt lat="43.74113" lon="5.98848">
        <ele>421</ele>
        <time>2017-03-26T21:34:34Z</time>
      </trkpt>
      <trkpt lat="43.74131" lon="5.98983">
        <ele>423</ele>
        <time>2017-03-26T21:34:46Z</time>
      </trkpt>
      <trkpt lat="43.7414" lon="5.99038">
        <ele>425</ele>
        <time>2017-03-26T21:35:03Z</time>
      </trkpt>
      <trkpt lat="43.7415" lon="5.99074">
        <ele>424</ele>
        <time>2017-03-26T21:35:10Z</time>
      </trkpt>
      <trkpt lat="43.7416" lon="5.99114">
        <ele>428</ele>
        <time>2017-03-26T21:35:14Z</time>
      </trkpt>
      <trkpt lat="43.74165" lon="5.99148">
        <ele>428</ele>
        <time>2017-03-26T21:35:19Z</time>
      </trkpt>
      <trkpt lat="43.74165" lon="5.99201">
        <ele>432</ele>
        <time>2017-03-26T21:35:27Z</time>
      </trkpt>
      <trkpt lat="43.74163" lon="5.99265">
        <ele>433</ele>
        <time>2017-03-26T21:35:37Z</time>
      </trkpt>
      <trkpt lat="43.7416" lon="5.99334">
        <ele>435</ele>
        <time>2017-03-26T21:35:46Z</time>
      </trkpt>
      <trkpt lat="43.74166" lon="5.99371">
        <ele>439</ele>
        <time>2017-03-26T21:35:57Z</time>
      </trkpt>
      <trkpt lat="43.74174" lon="5.99404">
        <ele>428</ele>
        <time>2017-03-26T21:36:05Z</time>
      </trkpt>
      <trkpt lat="43.74193" lon="5.99464">
        <ele>425</ele>
        <time>2017-03-26T21:36:07Z</time>
      </trkpt>
      <trkpt lat="43.74193" lon="5.99489">
        <ele>426</ele>
        <time>2017-03-26T21:36:15Z</time>
      </trkpt>
      <trkpt lat="43.7419" lon="5.995">
        <ele>427</ele>
        <time>2017-03-26T21:36:18Z</time>
      </trkpt>
      <trkpt lat="43.74185" lon="5.99509">
        <ele>427</ele>
        <time>2017-03-26T21:36:38Z</time>
      </trkpt>
      <trkpt lat="43.74171" lon="5.99516">
        <ele>428</ele>
        <time>2017-03-26T21:36:49Z</time>
      </trkpt>
      <trkpt lat="43.74147" lon="5.99518">
        <ele>432</ele>
        <time>2017-03-26T21:37:08Z</time>
      </trkpt>
      <trkpt lat="43.74107" lon="5.99516">
        <ele>435</ele>
        <time>2017-03-26T21:37:10Z</time>
      </trkpt>
      <trkpt lat="43.74087" lon="5.99515">
        <ele>436</ele>
        <time>2017-03-26T21:37:25Z</time>
      </trkpt>
      <trkpt lat="43.74086" lon="5.99519">
        <ele>436</ele>
        <time>2017-03-26T21:37:43Z</time>
      </trkpt>
      <trkpt lat="43.74084" lon="5.99534">
        <ele>435</ele>
        <time>2017-03-26T21:37:58Z</time>
      </trkpt>
      <trkpt lat="43.74082" lon="5.99555">
        <ele>437</ele>
        <time>2017-03-26T21:38:02Z</time>
      </trkpt>
      <trkpt lat="43.7408" lon="5.99566">
        <ele>437</ele>
        <time>2017-03-26T21:38:09Z</time>
      </trkpt>
      <trkpt lat="43.74084" lon="5.99575">
        <ele>434</ele>
        <time>2017-03-26T21:38:11Z</time>
      </trkpt>
      <trkpt lat="43.74117" lon="5.99597">
        <ele>433</ele>
        <time>2017-03-26T21:38:16Z</time>
      </trkpt>
      <trkpt lat="43.74137" lon="5.99612">
        <ele>432</ele>
        <time>2017-03-26T21:38:25Z</time>
      </trkpt>
      <trkpt lat="43.74155" lon="5.99628">
        <ele>431</ele>
        <time>2017-03-26T21:38:45Z</time>
      </trkpt>
      <trkpt lat="43.74163" lon="5.99645">
        <ele>431</ele>
        <time>2017-03-26T21:38:50Z</time>
      </trkpt>
      <trkpt lat="43.74165" lon="5.99661">
        <ele>429</ele>
        <time>2017-03-26T21:39:01Z</time>
      </trkpt>
      <trkpt lat="43.74163" lon="5.99769">
        <ele>438</ele>
        <time>2017-03-26T21:39:11Z</time>
      </trkpt>
      <trkpt lat="43.74164" lon="5.99815">
        <ele>439</ele>
        <time>2017-03-26T21:39:24Z</time>
      </trkpt>
      <trkpt lat="43.74161" lon="5.99881">
        <ele>441</ele>
        <time>2017-03-26T21:39:36Z</time>
      </trkpt>
      <trkpt lat="43.74158" lon="5.99945">
        <ele>442</ele>
        <time>2017-03-26T21:39:38Z</time>
      </trkpt>
      <trkpt lat="43.74155" lon="5.99974">
        <ele>442</ele>
        <time>2017-03-26T21:39:48Z</time>
      </trkpt>
      <trkpt lat="43.74151" lon="5.9999">
        <ele>440</ele>
        <time>2017-03-26T21:40:02Z</time>
      </trkpt>
      <trkpt lat="43.74142" lon="6.00034">
        <ele>445</ele>
        <time>2017-03-26T21:40:09Z</time>
      </trkpt>
      <trkpt lat="43.74135" lon="6.00084">
        <ele>445</ele>
        <time>2017-03-26T21:40:29Z</time>
      </trkpt>
      <trkpt lat="43.74132" lon="6.00137">
        <ele>447</ele>
        <time>2017-03-26T21:40:33Z</time>
      </trkpt>
      <trkpt lat="43.74121" lon="6.00267">
        <ele>447</ele>
        <time>2017-03-26T21:40:41Z</time>
      </trkpt>
      <trkpt lat="43.74112" lon="6.00314">
        <ele>448</ele>
        <time>2017-03-26T21:40:57Z</time>
      </trkpt>
      <trkpt lat="43.74109" lon="6.00344">
        <ele>448</ele>
        <time>2017-03-26T21:41:14Z</time>
      </trkpt>
      <trkpt lat="43.7411" lon="6.00372">
        <ele>448</ele>
        <time>2017-03-26T21:41:16Z</time>
      </trkpt>
      <trkpt lat="43.74109" lon="6.00495">
        <ele>449</ele>
        <time>2017-03-26T21:41:26Z</time>
      </trkpt>
      <trkpt lat="43.741" lon="6.00631">
        <ele>448</ele>
        <time>2017-03-26T21:41:42Z</time>
      </trkpt>
      <trkpt lat="43.74098" lon="6.00723">
        <ele>446</ele>
        <time>2017-03-26T21:41:47Z</time>
      </trkpt>
      <trkpt lat="43.74093" lon="6.00746">
        <ele>446</ele>
        <time>2017-03-26T21:42:04Z</time>
      </trkpt>
      <trkpt lat="43.74084" lon="6.00764">
        <ele>446</ele>
        <time>2017-03-26T21:42:08Z</time>
      </trkpt>
      <trkpt lat="43.74064" lon="6.00797">
        <ele>450</ele>
        <time>2017-03-26T21:42:13Z</time>
      </trkpt>
      <trkpt lat="43.7406" lon="6.00817">
        <ele>450</ele>
        <time>2017-03-26T21:42:32Z</time>
      </trkpt>
      <trkpt lat="43.74063" lon="6.00836">
        <ele>451</ele>
        <time>2017-03-26T21:42:52Z</time>
      </trkpt>
      <trkpt lat="43.74071" lon="6.00857">
        <ele>452</ele>
        <time>2017-03-26T21:43:06Z</time>
      </trkpt>
      <trkpt lat="43.74074" lon="6.00874">
        <ele>452</ele>
        <time>2017-03-26T21:43:15Z</time>
      </trkpt>
      <trkpt lat="43.74077" lon="6.0091">
        <ele>451</ele>
        <time>2017-03-26T21:43:34Z</time>
      </trkpt>
      <trkpt lat="43.74079" lon="6.00914">
        <ele>451</ele>
        <time>2017-03-26T21:43:46Z</time>
      </trkpt>
      <trkpt lat="43.74089" lon="6.00918">
        <ele>450</ele>
        <time>2017-03-26T21:44:03Z</time>
      </trkpt>
      <trkpt lat="43.74104" lon="6.00922">
        <ele>449</ele>
        <time>2017-03-26T21:44:19Z</time>
      </trkpt>
      <trkpt lat="43.74117" lon="6.00927">
        <ele>448</ele>
        <time>2017-03-26T21:44:27Z</time>
      </trkpt>
      <trkpt lat="43.74125" lon="6.00942">
        <ele>448</ele>
        <time>2017-03-26T21:44:34Z</time>
      </trkpt>
      <trkpt lat="43.74129" lon="6.00965">
        <ele>448</ele>
        <time>2017-03-26T21:44:50Z</time>
      </trkpt>
      <trkpt lat="43.74147" lon="6.01143">
        <ele>454</ele>
        <time>2017-03-26T21:45:08Z</time>
      </trkpt>
      <trkpt lat="43.74153" lon="6.01197">
        <ele>455</ele>
        <time>2017-03-26T21:45:26Z</time>
      </trkpt>
      <trkpt lat="43.74086" lon="6.01358">
        <ele>463</ele>
        <time>2017-03-26T21:45:29Z</time>
      </trkpt>
      <trkpt lat="43.73974" lon="6.01618">
        <ele>460</ele>
        <time>2017-03-26T21:45:46Z</time>
      </trkpt>
      <trkpt lat="43.7395" lon="6.01679">
        <ele>462</ele>
        <time>2017-03-26T21:46:01Z</time>
      </trkpt>
      <trkpt lat="43.73949" lon="6.0169">
        <ele>462</ele>
        <time>2017-03-26T21:46:18Z</time>
      </trkpt>
      <trkpt lat="43.73949" lon="6.01696">
        <ele>462</ele>
        <time>2017-03-26T21:46:37Z</time>
      </trkpt>
      <trkpt lat="43.73939" lon="6.01703">
        <ele>462</ele>
        <time>2017-03-26T21:46:45Z</time>
      </trkpt>
      <trkpt lat="43.73918" lon="6.01717">
        <ele>462</ele>
        <time>2017-03-26T21:46:51Z</time>
      </trkpt>
      <trkpt lat="43.73888" lon="6.0173">
        <ele>461</ele>
        <time>2017-03-26T21:47:03Z</time>
      </trkpt>
      <trkpt lat="43.73836" lon="6.0175">
        <ele>463</ele>
        <time>2017-03-26T21:47:21Z</time>
      </trkpt>
      <trkpt lat="43.73814" lon="6.01762">
        <ele>464</ele>
        <time>2017-03-26T21:47:28Z</time>
      </trkpt>
      <trkpt lat="43.73798" lon="6.01774">
        <ele>464</ele>
        <time>2017-03-26T21:47:39Z</time>
      </trkpt>
      <trkpt lat="43.73789" lon="6.01789">
        <ele>465</ele>
        <time>2017-03-26T21:47:56Z</time>
      </trkpt>
      <trkpt lat="43.73783" lon="6.01816">
        <ele>465</ele>
        <time>2017-03-26T21:48:08Z</time>
      </trkpt>
      <trkpt lat="43.73774" lon="6.01848">
        <ele>466</ele>
        <time>2017-03-26T21:48:23Z</time>
      </trkpt>
      <trkpt lat="43.7376" lon="6.01878">
        <ele>466</ele>
        <time>2017-03-26T21:48:28Z</time>
      </trkpt>
      <trkpt lat="43.73741" lon="6.01906">
        <ele>469</ele>
        <time>2017-03-26T21:48:31Z</time>
      </trkpt>
      <trkpt lat="43.73722" lon="6.0193">
        <ele>471</ele>
        <time>2017-03-26T21:48:50Z</time>
      </trkpt>
      <trkpt lat="43.73704" lon="6.0195">
        <ele>472</ele>
        <time>2017-03-26T21:49:00Z</time>
      </trkpt>
      <trkpt lat="43.73684" lon="6.01969">
        <ele>473</ele>
        <time>2017-03-26T21:49:03Z</time>
      </trkpt>
      <trkpt lat="43.73636" lon="6.02001">
        <ele>478</ele>
        <time>2017-03-26T21:49:05Z</time>
      </trkpt>
      <trkpt lat="43.73582" lon="6.02033">
        <ele>487</ele>
        <time>2017-03-26T21:49:23Z</time>
      </trkpt>
      <trkpt lat="43.73559" lon="6.02046">
        <ele>487</ele>
        <time>2017-03-26T21:49:41Z</time>
      </trkpt>
      <trkpt lat="43.73541" lon="6.02061">
        <ele>488</ele>
        <time>2017-03-26T21:50:01Z</time>
      </trkpt>
      <trkpt lat="43.7353" lon="6.02068">
        <ele>489</ele>
        <time>2017-03-26T21:50:14Z</time>
      </trkpt>
      <trkpt lat="43.73525" lon="6.02069">
        <ele>489</ele>
        <time>2017-03-26T21:50:18Z</time>
      </trkpt>
      <trkpt lat="43.73523" lon="6.02067">
        <ele>489</ele>
        <time>2017-03-26T21:50:27Z</time>
      </trkpt>
      <trkpt lat="43.73522" lon="6.02064">
        <ele>490</ele>
        <time>2017-03-26T21:50:40Z</time>
      </trkpt>
      <trkpt lat="43.73522" lon="6.02054">
        <ele>490</ele>
        <time>2017-03-26T21:50:42Z</time>
      </trkpt>
      <trkpt lat="43.73528" lon="6.02044">
        <ele>490</ele>
        <time>2017-03-26T21:50:56Z</time>
      </trkpt>
      <trkpt lat="43.73542" lon="6.02029">
        <ele>490</ele>
        <time>2017-03-26T21:51:12Z</time>
      </trkpt>
      <trkpt lat="43.73554" lon="6.02008">
        <ele>489</ele>
        <time>2017-03-26T21:51:19Z</time>
      </trkpt>
      <trkpt lat="43.73561" lon="6.01983">
        <ele>491</ele>
        <time>2017-03-26T21:51:25Z</time>
      </trkpt>
      <trkpt lat="43.73562" lon="6.01958">
        <ele>491</ele>
        <time>2017-03-26T21:51:33Z</time>
      </trkpt>
      <trkpt lat="43.73559" lon="6.01941">
        <ele>491</ele>
        <time>2017-03-26T21:51:52Z</time>
      </trkpt>
      <trkpt lat="43.7355" lon="6.01936">
        <ele>492</ele>
        <time>2017-03-26T21:52:12Z</time>
      </trkpt>
      <trkpt lat="43.73545" lon="6.01942">
        <ele>492</ele>
        <time>2017-03-26T21:52:29Z</time>
      </trkpt>
      <trkpt lat="43.73543" lon="6.01959">
        <ele>493</ele>
        <time>2017-03-26T21:52:48Z</time>
      </trkpt>
      <trkpt lat="43.7354" lon="6.01982">
        <ele>493</ele>
        <time>2017-03-26T21:52:51Z</time>
      </trkpt>
      <trkpt lat="43.73532" lon="6.01996">
        <ele>494</ele>
        <time>2017-03-26T21:52:59Z</time>
      </trkpt>
      <trkpt lat="43.73519" lon="6.02008">
        <ele>494</ele>
        <time>2017-03-26T21:53:15Z</time>
      </trkpt>
      <trkpt lat="43.73499" lon="6.02021">
        <ele>499</ele>
        <time>2017-03-26T21:53:24Z</time>
      </trkpt>
      <trkpt lat="43.73484" lon="6.02027">
        <ele>499</ele>
        <time>2017-03-26T21:53:39Z</time>
      </trkpt>
      <trkpt lat="43.73473" lon="6.02028">
        <ele>499</ele>
        <time>2017-03-26T21:53:42Z</time>
      </trkpt>
      <trkpt lat="43.73456" lon="6.02023">
        <ele>499</ele>
        <time>2017-03-26T21:53:48Z</time>
      </trkpt>
      <trkpt lat="43.73432" lon="6.02013">
        <ele>501</ele>
        <time>2017-03-26T21:54:07Z</time>
      </trkpt>
      <trkpt lat="43.73409" lon="6.02005">
        <ele>505</ele>
        <time>2017-03-26T21:54:25Z</time>
      </trkpt>
      <trkpt lat="43.73352" lon="6.01994">
        <ele>510</ele>
        <time>2017-03-26T21:54:33Z</time>
      </trkpt>
      <trkpt lat="43.73309" lon="6.0199">
        <ele>515</ele>
        <time>2017-03-26T21:54:42Z</time>
      </trkpt>
      <trkpt lat="43.73302" lon="6.01989">
        <ele>516</ele>
        <time>2017-03-26T21:54:46Z</time>
      </trkpt>
      <trkpt lat="43.73296" lon="6.01985">
        <ele>516</ele>
        <time>2017-03-26T21:54:52Z</time>
      </trkpt>
      <trkpt lat="43.73293" lon="6.01979">
        <ele>516</ele>
        <time>2017-03-26T21:54:57Z</time>
      </trkpt>
      <trkpt lat="43.7329" lon="6.01966">
        <ele>517</ele>
        <time>2017-03-26T21:55:07Z</time>
      </trkpt>
      <trkpt lat="43.73287" lon="6.01945">
        <ele>517</ele>
        <time>2017-03-26T21:55:26Z</time>
      </trkpt>
      <trkpt lat="43.73268" lon="6.01896">
        <ele>522</ele>
        <time>2017-03-26T21:55:35Z</time>
      </trkpt>
      <trkpt lat="43.7326" lon="6.01872">
        <ele>523</ele>
        <time>2017-03-26T21:55:48Z</time>
      </trkpt>
      <trkpt lat="43.73261" lon="6.01852">
        <ele>524</ele>
        <time>2017-03-26T21:55:55Z</time>
      </trkpt>
      <trkpt lat="43.73271" lon="6.01835">
        <ele>524</ele>
        <time>2017-03-26T21:56:15Z</time>
      </trkpt>
      <trkpt lat="43.733" lon="6.01797">
        <ele>525</ele>
        <time>2017-03-26T21:56:24Z</time>
      </trkpt>
      <trkpt lat="43.7331" lon="6.01779">
        <ele>525</ele>
        <time>2017-03-26T21:56:32Z</time>
      </trkpt>
      <trkpt lat="43.73317" lon="6.0176">
        <ele>525</ele>
        <time>2017-03-26T21:56:51Z</time>
      </trkpt>
      <trkpt lat="43.73319" lon="6.01749">
        <ele>525</ele>
        <time>2017-03-26T21:57:10Z</time>
      </trkpt>
      <trkpt lat="43.73323" lon="6.01707">
        <ele>525</ele>
        <time>2017-03-26T21:57:13Z</time>
      </trkpt>
      <trkpt lat="43.73322" lon="6.01683">
        <ele>524</ele>
        <time>2017-03-26T21:57:29Z</time>
      </trkpt>
      <trkpt lat="43.73319" lon="6.01675">
        <ele>523</ele>
        <time>2017-03-26T21:57:40Z</time>
      </trkpt>
      <trkpt lat="43.73313" lon="6.01672">
        <ele>524</ele>
        <time>2017-03-26T21:57:43Z</time>
      </trkpt>
      <trkpt lat="43.73307" lon="6.01677">
        <ele>525</ele>
        <time>2017-03-26T21:57:53Z</time>
      </trkpt>
      <trkpt lat="43.73306" lon="6.01691">
        <ele>525</ele>
        <time>2017-03-26T21:58:02Z</time>
      </trkpt>
      <trkpt lat="43.73306" lon="6.01712">
        <ele>526</ele>
        <time>2017-03-26T21:58:20Z</time>
      </trkpt>
      <trkpt lat="43.73303" lon="6.01741">
        <ele>527</ele>
        <time>2017-03-26T21:58:39Z</time>
      </trkpt>
      <trkpt lat="43.73294" lon="6.01758">
        <ele>527</ele>
        <time>2017-03-26T21:58:57Z</time>
      </trkpt>
      <trkpt lat="43.73279" lon="6.01772">
        <ele>528</ele>
        <time>2017-03-26T21:59:04Z</time>
      </trkpt>
      <trkpt lat="43.73257" lon="6.01785">
        <ele>529</ele>
        <time>2017-03-26T21:59:13Z</time>
      </trkpt>
      <trkpt lat="43.73229" lon="6.01797">
        <ele>536</ele>
        <time>2017-03-26T21:59:22Z</time>
      </trkpt>
      <trkpt lat="43.73207" lon="6.01811">
        <ele>537</ele>
        <time>2017-03-26T21:59:26Z</time>
      </trkpt>
      <trkpt lat="43.73192" lon="6.01823">
        <ele>538</ele>
        <time>2017-03-26T21:59:29Z</time>
      </trkpt>
      <trkpt lat="43.73186" lon="6.01832">
        <ele>539</ele>
        <time>2017-03-26T21:59:40Z</time>
      </trkpt>
      <trkpt lat="43.73182" lon="6.01843">
        <ele>539</ele>
        <time>2017-03-26T21:59:43Z</time>
      </trkpt>
      <trkpt lat="43.73183" lon="6.01858">
        <ele>537</ele>
        <time>2017-03-26T21:59:50Z</time>
      </trkpt>
      <trkpt lat="43.73187" lon="6.01897">
        <ele>536</ele>
        <time>2017-03-26T22:00:02Z</time>
      </trkpt>
      <trkpt lat="43.73181" lon="6.01915">
        <ele>538</ele>
        <time>2017-03-26T22:00:10Z</time>
      </trkpt>
      <trkpt lat="43.73165" lon="6.01933">
        <ele>541</ele>
        <time>2017-03-26T22:00:28Z</time>
      </trkpt>
      <trkpt lat="43.73132" lon="6.01973">
        <ele>541</ele>
        <time>2017-03-26T22:00:44Z</time>
      </trkpt>
      <trkpt lat="43.73115" lon="6.01993">
        <ele>541</ele>
        <time>2017-03-26T22:00:58Z</time>
      </trkpt>
      <trkpt lat="43.73095" lon="6.02009">
        <ele>542</ele>
        <time>2017-03-26T22:01:13Z</time>
      </trkpt>
      <trkpt lat="43.73048" lon="6.02033">
        <ele>545</ele>
        <time>2017-03-26T22:01:32Z</time>
      </trkpt>
      <trkpt lat="43.72989" lon="6.02063">
        <ele>547</ele>
        <time>2017-03-26T22:01:50Z</time>
      </trkpt>
      <trkpt lat="43.72962" lon="6.02076">
        <ele>547</ele>
        <time>2017-03-26T22:02:00Z</time>
      </trkpt>
      <trkpt lat="43.72937" lon="6.02091">
        <ele>549</ele>
        <time>2017-03-26T22:02:18Z</time>
      </trkpt>
      <trkpt lat="43.72879" lon="6.02134">
        <ele>551</ele>
        <time>2017-03-26T22:02:33Z</time>
      </trkpt>
      <trkpt lat="43.72845" lon="6.02158">
        <ele>551</ele>
        <time>2017-03-26T22:02:35Z</time>
      </trkpt>
      <trkpt lat="43.7282" lon="6.02174">
        <ele>550</ele>
        <time>2017-03-26T22:02:43Z</time>
      </trkpt>
      <trkpt lat="43.72775" lon="6.02195">
        <ele>549</ele>
        <time>2017-03-26T22:02:50Z</time>
      </trkpt>
      <trkpt lat="43.72754" lon="6.02205">
        <ele>549</ele>
        <time>2017-03-26T22:02:54Z</time>
      </trkpt>
      <trkpt lat="43.72734" lon="6.02218">
        <ele>548</ele>
        <time>2017-03-26T22:02:56Z</time>
      </trkpt>
      <trkpt lat="43.72682" lon="6.02261">
        <ele>548</ele>
        <time>2017-03-26T22:02:59Z</time>
      </trkpt>
      <trkpt lat="43.72623" lon="6.02307">
        <ele>549</ele>
        <time>2017-03-26T22:03:13Z</time>
      </trkpt>
      <trkpt lat="43.72588" lon="6.02341">
        <ele>548</ele>
        <time>2017-03-26T22:03:16Z</time>
      </trkpt>
      <trkpt lat="43.72542" lon="6.02391">
        <ele>549</ele>
        <time>2017-03-26T22:03:31Z</time>
      </trkpt>
      <trkpt lat="43.72522" lon="6.02416">
        <ele>550</ele>
        <time>2017-03-26T22:03:43Z</time>
      </trkpt>
      <trkpt lat="43.72506" lon="6.02442">
        <ele>550</ele>
        <time>2017-03-26T22:03:48Z</time>
      </trkpt>
      <trkpt lat="43.72469" lon="6.0251">
        <ele>550</ele>
        <time>2017-03-26T22:03:56Z</time>
      </trkpt>
      <trkpt lat="43.72373" lon="6.02695">
        <ele>550</ele>
        <time>2017-03-26T22:03:58Z</time>
      </trkpt>
      <trkpt lat="43.72348" lon="6.02737">
        <ele>550</ele>
        <time>2017-03-26T22:04:16Z</time>
      </trkpt>
      <trkpt lat="43.72333" lon="6.02755">
        <ele>550</ele>
        <time>2017-03-26T22:04:32Z</time>
      </trkpt>
      <trkpt lat="43.72306" lon="6.02776">
        <ele>550</ele>
        <time>2017-03-26T22:04:35Z</time>
      </trkpt>
      <trkpt lat="43.72263" lon="6.02807">
        <ele>551</ele>
        <time>2017-03-26T22:04:39Z</time>
      </trkpt>
      <trkpt lat="43.72232" lon="6.02826">
        <ele>550</ele>
        <time>2017-03-26T22:04:48Z</time>
      </trkpt>
      <trkpt lat="43.72097" lon="6.02882">
        <ele>551</ele>
        <time>2017-03-26T22:05:08Z</time>
      </trkpt>
      <trkpt lat="43.72039" lon="6.02907">
        <ele>551</ele>
        <time>2017-03-26T22:05:24Z</time>
      </trkpt>
      <trkpt lat="43.72021" lon="6.02915">
        <ele>551</ele>
        <time>2017-03-26T22:05:43Z</time>
      </trkpt>
      <trkpt lat="43.72003" lon="6.02926">
        <ele>551</ele>
        <time>2017-03-26T22:05:48Z</time>
      </trkpt>
      <trkpt lat="43.71965" lon="6.0296">
        <ele>549</ele>
        <time>2017-03-26T22:05:57Z</time>
      </trkpt>
      <trkpt lat="43.71943" lon="6.02976">
        <ele>549</ele>
        <time>2017-03-26T22:06:02Z</time>
      </trkpt>
      <trkpt lat="43.71937" lon="6.0298">
        <ele>549</ele>
        <time>2017-03-26T22:06:17Z</time>
      </trkpt>
      <trkpt lat="43.71942" lon="6.02984">
        <ele>549</ele>
        <time>2017-03-26T22:06:25Z</time>
      </trkpt>
      <trkpt lat="43.71962" lon="6.03001">
        <ele>548</ele>
        <time>2017-03-26T22:06:35Z</time>
      </trkpt>
      <trkpt lat="43.72004" lon="6.03042">
        <ele>549</ele>
        <time>2017-03-26T22:06:48Z</time>
      </trkpt>
      <trkpt lat="43.72027" lon="6.03072">
        <ele>549</ele>
        <time>2017-03-26T22:06:57Z</time>
      </trkpt>
      <trkpt lat="43.72061" lon="6.03106">
        <ele>547</ele>
        <time>2017-03-26T22:07:07Z</time>
      </trkpt>
      <trkpt lat="43.72098" lon="6.03137">
        <ele>548</ele>
        <time>2017-03-26T22:07:26Z</time>
      </trkpt>
      <trkpt lat="43.72142" lon="6.03164">
        <ele>549</ele>
        <time>2017-03-26T22:07:44Z</time>
      </trkpt>
      <trkpt lat="43.72164" lon="6.03179">
        <ele>549</ele>
        <time>2017-03-26T22:07:59Z</time>
      </trkpt>
      <trkpt lat="43.72177" lon="6.03191">
        <ele>550</ele>
        <time>2017-03-26T22:08:12Z</time>
      </trkpt>
      <trkpt lat="43.72188" lon="6.03211">
        <ele>550</ele>
        <time>2017-03-26T22:08:16Z</time>
      </trkpt>
      <trkpt lat="43.72236" lon="6.03352">
        <ele>551</ele>
        <time>2017-03-26T22:08:27Z</time>
      </trkpt>
      <trkpt lat="43.72291" lon="6.03485">
        <ele>552</ele>
        <time>2017-03-26T22:08:47Z</time>
      </trkpt>
      <trkpt lat="43.72313" lon="6.03565">
        <ele>553</ele>
        <time>2017-03-26T22:09:06Z</time>
      </trkpt>
      <trkpt lat="43.72326" lon="6.03626">
        <ele>553</ele>
        <time>2017-03-26T22:09:17Z</time>
      </trkpt>
      <trkpt lat="43.72332" lon="6.03668">
        <ele>554</ele>
        <time>2017-03-26T22:09:30Z</time>
      </trkpt>
      <trkpt lat="43.72339" lon="6.03724">
        <ele>555</ele>
        <time>2017-03-26T22:09:46Z</time>
      </trkpt>
      <trkpt lat="43.72349" lon="6.03775">
        <ele>555</ele>
        <time>2017-03-26T22:10:05Z</time>
      </trkpt>
      <trkpt lat="43.72369" lon="6.03864">
        <ele>555</ele>
        <time>2017-03-26T22:10:20Z</time>
      </trkpt>
      <trkpt lat="43.7238" lon="6.03918">
        <ele>554</ele>
        <time>2017-03-26T22:10:29Z</time>
      </trkpt>
      <trkpt lat="43.72393" lon="6.03998">
        <ele>555</ele>
        <time>2017-03-26T22:10:31Z</time>
      </trkpt>
      <trkpt lat="43.72415" lon="6.04084">
        <ele>559</ele>
        <time>2017-03-26T22:10:41Z</time>
      </trkpt>
      <trkpt lat="43.72448" lon="6.04198">
        <ele>559</ele>
        <time>2017-03-26T22:10:52Z</time>
      </trkpt>
      <trkpt lat="43.72479" lon="6.04315">
        <ele>560</ele>
        <time>2017-03-26T22:11:04Z</time>
      </trkpt>
      <trkpt lat="43.72508" lon="6.04429">
        <ele>558</ele>
        <time>2017-03-26T22:11:09Z</time>
      </trkpt>
      <trkpt lat="43.7253" lon="6.04536">
        <ele>558</ele>
        <time>2017-03-26T22:11:17Z</time>
      </trkpt>
      <trkpt lat="43.7256" lon="6.04672">
        <ele>561</ele>
        <time>2017-03-26T22:11:23Z</time>
      </trkpt>
      <trkpt lat="43.7257" lon="6.04716">
        <ele>562</ele>
        <time>2017-03-26T22:11:40Z</time>
      </trkpt>
      <trkpt lat="43.72586" lon="6.04769">
        <ele>562</ele>
        <time>2017-03-26T22:11:46Z</time>
      </trkpt>
      <trkpt lat="43.7261" lon="6.04873">
        <ele>559</ele>
        <time>2017-03-26T22:12:00Z</time>
      </trkpt>
      <trkpt lat="43.72623" lon="6.04962">
        <ele>557</ele>
        <time>2017-03-26T22:12:14Z</time>
      </trkpt>
      <trkpt lat="43.72593" lon="6.05103">
        <ele>557</ele>
        <time>2017-03-26T22:12:22Z</time>
      </trkpt>
      <trkpt lat="43.72586" lon="6.05128">
        <ele>558</ele>
        <time>2017-03-26T22:12:34Z</time>
      </trkpt>
      <trkpt lat="43.72578" lon="6.05139">
        <ele>558</ele>
        <time>2017-03-26T22:12:37Z</time>
      </trkpt>
      <trkpt lat="43.72808" lon="6.0537">
        <ele>561</ele>
        <time>2017-03-26T22:12:41Z</time>
      </trkpt>
      <trkpt lat="43.72863" lon="6.05424">
        <ele>562</ele>
        <time>2017-03-26T22:12:58Z</time>
      </trkpt>
      <trkpt lat="43.72908" lon="6.05466">
        <ele>563</ele>
        <time>2017-03-26T22:13:12Z</time>
      </trkpt>
      <trkpt lat="43.7296" lon="6.055">
        <ele>564</ele>
        <time>2017-03-26T22:13:17Z</time>
      </trkpt>
      <trkpt lat="43.73038" lon="6.05546">
        <ele>566</ele>
        <time>2017-03-26T22:13:30Z</time>
      </trkpt>
      <trkpt lat="43.73155" lon="6.05631">
        <ele>566</ele>
        <time>2017-03-26T22:13:39Z</time>
      </trkpt>
      <trkpt lat="43.73244" lon="6.057">
        <ele>569</ele>
        <time>2017-03-26T22:13:57Z</time>
      </trkpt>
      <trkpt lat="43.7327" lon="6.0572">
        <ele>568</ele>
        <time>2017-03-26T22:14:16Z</time>
      </trkpt>
      <trkpt lat="43.73297" lon="6.05743">
        <ele>567</ele>
        <time>2017-03-26T22:14:20Z</time>
      </trkpt>
      <trkpt lat="43.73378" lon="6.05832">
        <ele>568</ele>
        <time>2017-03-26T22:14:38Z</time>
      </trkpt>
      <trkpt lat="43.73467" lon="6.05932">
        <ele>572</ele>
        <time>2017-03-26T22:14:49Z</time>
      </trkpt>
      <trkpt lat="43.73508" lon="6.05974">
        <ele>571</ele>
        <time>2017-03-26T22:14:52Z</time>
      </trkpt>
      <trkpt lat="43.73541" lon="6.05998">
        <ele>571</ele>
        <time>2017-03-26T22:15:10Z</time>
      </trkpt>
      <trkpt lat="43.73742" lon="6.06119">
        <ele>575</ele>
        <time>2017-03-26T22:15:29Z</time>
      </trkpt>
      <trkpt lat="43.7385" lon="6.06198">
        <ele>577</ele>
        <time>2017-03-26T22:15:37Z</time>
      </trkpt>
      <trkpt lat="43.73955" lon="6.06275">
        <ele>579</ele>
        <time>2017-03-26T22:15:51Z</time>
      </trkpt>
      <trkpt lat="43.74002" lon="6.06313">
        <ele>581</ele>
        <time>2017-03-26T22:15:58Z</time>
      </trkpt>
      <trkpt lat="43.74066" lon="6.06367">
        <ele>581</ele>
        <time>2017-03-26T22:16:18Z</time>
      </trkpt>
      <trkpt lat="43.74139" lon="6.06428">
        <ele>580</ele>
        <time>2017-03-26T22:16:29Z</time>
      </trkpt>
      <trkpt lat="43.74192" lon="6.06469">
        <ele>580</ele>
        <time>2017-03-26T22:16:42Z</time>
      </trkpt>
      <trkpt lat="43.74298" lon="6.06529">
        <ele>581</ele>
        <time>2017-03-26T22:16:52Z</time>
      </trkpt>
      <trkpt lat="43.74564" lon="6.06648">
        <ele>584</ele>
        <time>2017-03-26T22:16:58Z</time>
      </trkpt>
      <trkpt lat="43.74937" lon="6.06792">
        <ele>584</ele>
        <time>2017-03-26T22:17:16Z</time>
      </trkpt>
      <trkpt lat="43.74958" lon="6.06804">
        <ele>584</ele>
        <time>2017-03-26T22:17:22Z</time>
      </trkpt>
      <trkpt lat="43.74979" lon="6.06819">
        <ele>585</ele>
        <time>2017-03-26T22:17:31Z</time>
      </trkpt>
      <trkpt lat="43.75082" lon="6.0691">
        <ele>587</ele>
        <time>2017-03-26T22:17:51Z</time>
      </trkpt>
      <trkpt lat="43.7517" lon="6.06996">
        <ele>591</ele>
        <time>2017-03-26T22:18:07Z</time>
      </trkpt>
      <trkpt lat="43.75202" lon="6.07033">
        <ele>590</ele>
        <time>2017-03-26T22:18:25Z</time>
      </trkpt>
      <trkpt lat="43.75269" lon="6.07118">
        <ele>592</ele>
        <time>2017-03-26T22:18:42Z</time>
      </trkpt>
      <trkpt lat="43.75319" lon="6.0718">
        <ele>591</ele>
        <time>2017-03-26T22:18:57Z</time>
      </trkpt>
      <trkpt lat="43.75406" lon="6.07263">
        <ele>591</ele>
        <time>2017-03-26T22:19:15Z</time>
      </trkpt>
      <trkpt lat="43.75446" lon="6.07308">
        <ele>592</ele>
        <time>2017-03-26T22:19:35Z</time>
      </trkpt>
      <trkpt lat="43.75477" lon="6.0735">
        <ele>592</ele>
        <time>2017-03-26T22:19:40Z</time>
      </trkpt>
      <trkpt lat="43.75502" lon="6.07387">
        <ele>594</ele>
        <time>2017-03-26T22:19:50Z</time>
      </trkpt>
      <trkpt lat="43.75547" lon="6.07468">
        <ele>595</ele>
        <time>2017-03-26T22:19:59Z</time>
      </trkpt>
      <trkpt lat="43.75568" lon="6.07511">
        <ele>595</ele>
        <time>2017-03-26T22:20:14Z</time>
      </trkpt>
      <trkpt lat="43.75578" lon="6.07536">
        <ele>594</ele>
        <time>2017-03-26T22:20:16Z</time>
      </trkpt>
      <trkpt lat="43.75588" lon="6.07576">
        <ele>595</ele>
        <time>2017-03-26T22:20:36Z</time>
      </trkpt>
      <trkpt lat="43.75597" lon="6.07647">
        <ele>594</ele>
        <time>2017-03-26T22:20:46Z</time>
      </trkpt>
      <trkpt lat="43.75603" lon="6.07674">
        <ele>594</ele>
        <time>2017-03-26T22:20:49Z</time>
      </trkpt>
      <trkpt lat="43.75612" lon="6.07702">
        <ele>593</ele>
        <time>2017-03-26T22:21:02Z</time>
      </trkpt>
      <trkpt lat="43.75622" lon="6.07724">
        <ele>593</ele>
        <time>2017-03-26T22:21:12Z</time>
      </trkpt>
      <trkpt lat="43.75637" lon="6.07748">
        <ele>592</ele>
        <time>2017-03-26T22:21:16Z</time>
      </trkpt>
      <trkpt lat="43.75688" lon="6.07827">
        <ele>590</ele>
        <time>2017-03-26T22:21:21Z</time>
      </trkpt>
      <trkpt lat="43.75703" lon="6.07849">
        <ele>590</ele>
        <time>2017-03-26T22:21:38Z</time>
      </trkpt>
      <trkpt lat="43.75722" lon="6.07872">
        <ele>590</ele>
        <time>2017-03-26T22:21:49Z</time>
      </trkpt>
      <trkpt lat="43.75744" lon="6.07891">
        <ele>590</ele>
        <time>2017-03-26T22:22:03Z</time>
      </trkpt>
      <trkpt lat="43.75768" lon="6.07906">
        <ele>591</ele>
        <time>2017-03-26T22:22:15Z</time>
      </trkpt>
      <trkpt lat="43.75793" lon="6.07916">
        <ele>592</ele>
        <time>2017-03-26T22:22:18Z</time>
      </trkpt>
      <trkpt lat="43.75855" lon="6.07929">
        <ele>598</ele>
        <time>2017-03-26T22:22:22Z</time>
      </trkpt>
      <trkpt lat="43.75924" lon="6.07946">
        <ele>600</ele>
        <time>2017-03-26T22:22:41Z</time>
      </trkpt>
      <trkpt lat="43.75953" lon="6.07963">
        <ele>600</ele>
        <time>2017-03-26T22:22:46Z</time>
      </trkpt>
      <trkpt lat="43.76041" lon="6.08037">
        <ele>602</ele>
        <time>2017-03-26T22:23:02Z</time>
      </trkpt>
      <trkpt lat="43.76061" lon="6.08059">
        <ele>602</ele>
        <time>2017-03-26T22:23:15Z</time>
      </trkpt>
      <trkpt lat="43.76072" lon="6.08073">
        <ele>602</ele>
        <time>2017-03-26T22:23:26Z</time>
      </trkpt>
      <trkpt lat="43.76213" lon="6.08314">
        <ele>605</ele>
        <time>2017-03-26T22:23:38Z</time>
      </trkpt>
      <trkpt lat="43.76225" lon="6.08343">
        <ele>605</ele>
        <time>2017-03-26T22:23:56Z</time>
      </trkpt>
      <trkpt lat="43.76253" lon="6.08439">
        <ele>605</ele>
        <time>2017-03-26T22:23:59Z</time>
      </trkpt>
      <trkpt lat="43.76419" lon="6.09016">
        <ele>611</ele>
        <time>2017-03-26T22:24:18Z</time>
      </trkpt>
      <trkpt lat="43.76478" lon="6.09223">
        <ele>614</ele>
        <time>2017-03-26T22:24:27Z</time>
      </trkpt>
      <trkpt lat="43.765" lon="6.09292">
        <ele>615</ele>
        <time>2017-03-26T22:24:29Z</time>
      </trkpt>
      <trkpt lat="43.76548" lon="6.09438">
        <ele>615</ele>
        <time>2017-03-26T22:24:41Z</time>
      </trkpt>
      <trkpt lat="43.76575" lon="6.09526">
        <ele>614</ele>
        <time>2017-03-26T22:24:53Z</time>
      </trkpt>
      <trkpt lat="43.76581" lon="6.09555">
        <ele>614</ele>
        <time>2017-03-26T22:25:01Z</time>
      </trkpt>
      <trkpt lat="43.76556" lon="6.09564">
        <ele>614</ele>
        <time>2017-03-26T22:25:14Z</time>
      </trkpt>
      <trkpt lat="43.76484" lon="6.0958">
        <ele>612</ele>
        <time>2017-03-26T22:25:28Z</time>
      </trkpt>
      <trkpt lat="43.76458" lon="6.09584">
        <ele>612</ele>
        <time>2017-03-26T22:25:40Z</time>
      </trkpt>
      <trkpt lat="43.76429" lon="6.09584">
        <ele>612</ele>
        <time>2017-03-26T22:25:55Z</time>
      </trkpt>
      <trkpt lat="43.764" lon="6.09585">
        <ele>612</ele>
        <time>2017-03-26T22:26:09Z</time>
      </trkpt>
      <trkpt lat="43.76378" lon="6.09589">
        <ele>613</ele>
        <time>2017-03-26T22:26:28Z</time>
      </trkpt>
      <trkpt lat="43.76364" lon="6.09595">
        <ele>613</ele>
        <time>2017-03-26T22:26:47Z</time>
      </trkpt>
      <trkpt lat="43.76305" lon="6.09623">
        <ele>614</ele>
        <time>2017-03-26T22:27:05Z</time>
      </trkpt>
      <trkpt lat="43.76288" lon="6.09624">
        <ele>614</ele>
        <time>2017-03-26T22:27:16Z</time>
      </trkpt>
      <trkpt lat="43.76266" lon="6.09617">
        <ele>614</ele>
        <time>2017-03-26T22:27:30Z</time>
      </trkpt>
      <trkpt lat="43.76176" lon="6.09575">
        <ele>611</ele>
        <time>2017-03-26T22:27:49Z</time>
      </trkpt>
      <trkpt lat="43.76143" lon="6.09552">
        <ele>609</ele>
        <time>2017-03-26T22:27:54Z</time>
      </trkpt>
      <trkpt lat="43.76123" lon="6.0953">
        <ele>609</ele>
        <time>2017-03-26T22:27:59Z</time>
      </trkpt>
      <trkpt lat="43.76106" lon="6.09493">
        <ele>608</ele>
        <time>2017-03-26T22:28:11Z</time>
      </trkpt>
      <trkpt lat="43.76101" lon="6.09473">
        <ele>608</ele>
        <time>2017-03-26T22:28:31Z</time>
      </trkpt>
      <trkpt lat="43.76098" lon="6.0941">
        <ele>604</ele>
        <time>2017-03-26T22:28:36Z</time>
      </trkpt>
      <trkpt lat="43.76094" lon="6.09393">
        <ele>603</ele>
        <time>2017-03-26T22:28:38Z</time>
      </trkpt>
      <trkpt lat="43.76086" lon="6.09377">
        <ele>601</ele>
        <time>2017-03-26T22:28:56Z</time>
      </trkpt>
      <trkpt lat="43.7606" lon="6.09357">
        <ele>604</ele>
        <time>2017-03-26T22:29:06Z</time>
      </trkpt>
      <trkpt lat="43.7605" lon="6.09346">
        <ele>604</ele>
        <time>2017-03-26T22:29:20Z</time>
      </trkpt>
      <trkpt lat="43.7604" lon="6.09333">
        <ele>600</ele>
        <time>2017-03-26T22:29:25Z</time>
      </trkpt>
      <trkpt lat="43.76032" lon="6.09315">
        <ele>600</ele>
        <time>2017-03-26T22:29:38Z</time>
      </trkpt>
      <trkpt lat="43.76025" lon="6.09294">
        <ele>600</ele>
        <time>2017-03-26T22:29:47Z</time>
      </trkpt>
      <trkpt lat="43.76001" lon="6.09182">
        <ele>594</ele>
        <time>2017-03-26T22:29:52Z</time>
      </trkpt>
      <trkpt lat="43.75968" lon="6.09022">
        <ele>588</ele>
        <time>2017-03-26T22:30:06Z</time>
      </trkpt>
      <trkpt lat="43.75957" lon="6.08988">
        <ele>581</ele>
        <time>2017-03-26T22:30:18Z</time>
      </trkpt>
      <trkpt lat="43.75934" lon="6.08935">
        <ele>581</ele>
        <time>2017-03-26T22:30:22Z</time>
      </trkpt>
      <trkpt lat="43.75911" lon="6.08908">
        <ele>582</ele>
        <time>2017-03-26T22:30:41Z</time>
      </trkpt>
      <trkpt lat="43.75891" lon="6.08898">
        <ele>582</ele>
        <time>2017-03-26T22:30:46Z</time>
      </trkpt>
      <trkpt lat="43.75875" lon="6.08895">
        <ele>583</ele>
        <time>2017-03-26T22:31:04Z</time>
      </trkpt>
      <trkpt lat="43.75862" lon="6.08892">
        <ele>583</ele>
        <time>2017-03-26T22:31:23Z</time>
      </trkpt>
      <trkpt lat="43.75855" lon="6.08884">
        <ele>583</ele>
        <time>2017-03-26T22:31:39Z</time>
      </trkpt>
      <trkpt lat="43.75848" lon="6.0887">
        <ele>582</ele>
        <time>2017-03-26T22:31:51Z</time>
      </trkpt>
      <trkpt lat="43.75842" lon="6.08849">
        <ele>580</ele>
        <time>2017-03-26T22:31:54Z</time>
      </trkpt>
      <trkpt lat="43.75834" lon="6.08828">
        <ele>576</ele>
        <time>2017-03-26T22:32:01Z</time>
      </trkpt>
      <trkpt lat="43.75824" lon="6.08811">
        <ele>577</ele>
        <time>2017-03-26T22:32:19Z</time>
      </trkpt>
      <trkpt lat="43.75813" lon="6.08795">
        <ele>575</ele>
        <time>2017-03-26T22:32:30Z</time>
      </trkpt>
      <trkpt lat="43.75772" lon="6.08759">
        <ele>573</ele>
        <time>2017-03-26T22:32:47Z</time>
      </trkpt>
      <trkpt lat="43.75734" lon="6.08732">
        <ele>560</ele>
        <time>2017-03-26T22:32:58Z</time>
      </trkpt>
      <trkpt lat="43.75707" lon="6.08724">
        <ele>557</ele>
        <time>2017-03-26T22:33:17Z</time>
      </trkpt>
      <trkpt lat="43.75677" lon="6.0872">
        <ele>558</ele>
        <time>2017-03-26T22:33:33Z</time>
      </trkpt>
      <trkpt lat="43.7564" lon="6.0872">
        <ele>553</ele>
        <time>2017-03-26T22:33:37Z</time>
      </trkpt>
      <trkpt lat="43.75609" lon="6.08723">
        <ele>551</ele>
        <time>2017-03-26T22:33:43Z</time>
      </trkpt>
      <trkpt lat="43.75576" lon="6.0873">
        <ele>546</ele>
        <time>2017-03-26T22:33:47Z</time>
      </trkpt>
      <trkpt lat="43.75533" lon="6.08743">
        <ele>540</ele>
        <time>2017-03-26T22:33:53Z</time>
      </trkpt>
      <trkpt lat="43.75508" lon="6.08751">
        <ele>547</ele>
        <time>2017-03-26T22:33:56Z</time>
      </trkpt>
      <trkpt lat="43.75491" lon="6.08762">
        <ele>539</ele>
        <time>2017-03-26T22:34:01Z</time>
      </trkpt>
      <trkpt lat="43.75467" lon="6.08775">
        <ele>536</ele>
        <time>2017-03-26T22:34:04Z</time>
      </trkpt>
      <trkpt lat="43.75457" lon="6.08785">
        <ele>535</ele>
        <time>2017-03-26T22:34:13Z</time>
      </trkpt>
      <trkpt lat="43.75452" lon="6.08802">
        <ele>535</ele>
        <time>2017-03-26T22:34:16Z</time>
      </trkpt>
      <trkpt lat="43.7545" lon="6.08818">
        <ele>535</ele>
        <time>2017-03-26T22:34:32Z</time>
      </trkpt>
      <trkpt lat="43.75453" lon="6.08838">
        <ele>537</ele>
        <time>2017-03-26T22:34:37Z</time>
      </trkpt>
      <trkpt lat="43.75464" lon="6.08877">
        <ele>538</ele>
        <time>2017-03-26T22:34:41Z</time>
      </trkpt>
      <trkpt lat="43.75467" lon="6.08894">
        <ele>538</ele>
        <time>2017-03-26T22:34:45Z</time>
      </trkpt>
      <trkpt lat="43.75468" lon="6.0893">
        <ele>531</ele>
        <time>2017-03-26T22:34:52Z</time>
      </trkpt>
      <trkpt lat="43.75472" lon="6.08945">
        <ele>530</ele>
        <time>2017-03-26T22:35:03Z</time>
      </trkpt>
      <trkpt lat="43.7548" lon="6.08959">
        <ele>530</ele>
        <time>2017-03-26T22:35:05Z</time>
      </trkpt>
      <trkpt lat="43.7549" lon="6.08971">
        <ele>530</ele>
        <time>2017-03-26T22:35:20Z</time>
      </trkpt>
      <trkpt lat="43.7551" lon="6.08991">
        <ele>541</ele>
        <time>2017-03-26T22:35:31Z</time>
      </trkpt>
      <trkpt lat="43.75518" lon="6.09">
        <ele>543</ele>
        <time>2017-03-26T22:35:46Z</time>
      </trkpt>
      <trkpt lat="43.75521" lon="6.0901">
        <ele>542</ele>
        <time>2017-03-26T22:35:59Z</time>
      </trkpt>
      <trkpt lat="43.7552" lon="6.09019">
        <ele>543</ele>
        <time>2017-03-26T22:36:06Z</time>
      </trkpt>
      <trkpt lat="43.75515" lon="6.09032">
        <ele>543</ele>
        <time>2017-03-26T22:36:14Z</time>
      </trkpt>
      <trkpt lat="43.75505" lon="6.09053">
        <ele>543</ele>
        <time>2017-03-26T22:36:28Z</time>
      </trkpt>
      <trkpt lat="43.75491" lon="6.09075">
        <ele>529</ele>
        <time>2017-03-26T22:36:38Z</time>
      </trkpt>
      <trkpt lat="43.75471" lon="6.09107">
        <ele>523</ele>
        <time>2017-03-26T22:36:41Z</time>
      </trkpt>
      <trkpt lat="43.75462" lon="6.09128">
        <ele>522</ele>
        <time>2017-03-26T22:36:45Z</time>
      </trkpt>
      <trkpt lat="43.75459" lon="6.09142">
        <ele>521</ele>
        <time>2017-03-26T22:36:50Z</time>
      </trkpt>
      <trkpt lat="43.75459" lon="6.09174">
        <ele>520</ele>
        <time>2017-03-26T22:36:58Z</time>
      </trkpt>
      <trkpt lat="43.75462" lon="6.09196">
        <ele>520</ele>
        <time>2017-03-26T22:37:11Z</time>
      </trkpt>
      <trkpt lat="43.75472" lon="6.09215">
        <ele>521</ele>
        <time>2017-03-26T22:37:20Z</time>
      </trkpt>
      <trkpt lat="43.75487" lon="6.09239">
        <ele>525</ele>
        <time>2017-03-26T22:37:31Z</time>
      </trkpt>
      <trkpt lat="43.75487" lon="6.09259">
        <ele>525</ele>
        <time>2017-03-26T22:37:33Z</time>
      </trkpt>
      <trkpt lat="43.7548" lon="6.09272">
        <ele>523</ele>
        <time>2017-03-26T22:37:53Z</time>
      </trkpt>
      <trkpt lat="43.75465" lon="6.09292">
        <ele>521</ele>
        <time>2017-03-26T22:38:10Z</time>
      </trkpt>
      <trkpt lat="43.75429" lon="6.09345">
        <ele>517</ele>
        <time>2017-03-26T22:38:20Z</time>
      </trkpt>
      <trkpt lat="43.75418" lon="6.09375">
        <ele>518</ele>
        <time>2017-03-26T22:38:28Z</time>
      </trkpt>
      <trkpt lat="43.75418" lon="6.0939">
        <ele>517</ele>
        <time>2017-03-26T22:38:35Z</time>
      </trkpt>
      <trkpt lat="43.7542" lon="6.09409">
        <ele>514</ele>
        <time>2017-03-26T22:38:53Z</time>
      </trkpt>
      <trkpt lat="43.75434" lon="6.09463">
        <ele>513</ele>
        <time>2017-03-26T22:38:55Z</time>
      </trkpt>
      <trkpt lat="43.75445" lon="6.09508">
        <ele>506</ele>
        <time>2017-03-26T22:39:07Z</time>
      </trkpt>
      <trkpt lat="43.7545" lon="6.09522">
        <ele>507</ele>
        <time>2017-03-26T22:39:14Z</time>
      </trkpt>
      <trkpt lat="43.75462" lon="6.09537">
        <ele>507</ele>
        <time>2017-03-26T22:39:23Z</time>
      </trkpt>
      <trkpt lat="43.75466" lon="6.09541">
        <ele>507</ele>
        <time>2017-03-26T22:39:36Z</time>
      </trkpt>
      <trkpt lat="43.75471" lon="6.09554">
        <ele>507</ele>
        <time>2017-03-26T22:39:39Z</time>
      </trkpt>
      <trkpt lat="43.75471" lon="6.0957">
        <ele>507</ele>
        <time>2017-03-26T22:39:54Z</time>
      </trkpt>
      <trkpt lat="43.75469" lon="6.09585">
        <ele>503</ele>
        <time>2017-03-26T22:40:07Z</time>
      </trkpt>
      <trkpt lat="43.75468" lon="6.09598">
        <ele>503</ele>
        <time>2017-03-26T22:40:09Z</time>
      </trkpt>
      <trkpt lat="43.75472" lon="6.09614">
        <ele>502</ele>
        <time>2017-03-26T22:40:21Z</time>
      </trkpt>
      <trkpt lat="43.75485" lon="6.09654">
        <ele>503</ele>
        <time>2017-03-26T22:40:25Z</time>
      </trkpt>
      <trkpt lat="43.75495" lon="6.09677">
        <ele>502</ele>
        <time>2017-03-26T22:40:33Z</time>
      </trkpt>
      <trkpt lat="43.75497" lon="6.09689">
        <ele>501</ele>
        <time>2017-03-26T22:40:52Z</time>
      </trkpt>
      <trkpt lat="43.75496" lon="6.097">
        <ele>500</ele>
        <time>2017-03-26T22:41:03Z</time>
      </trkpt>
      <trkpt lat="43.7549" lon="6.09708">
        <ele>499</ele>
        <time>2017-03-26T22:41:18Z</time>
      </trkpt>
      <trkpt lat="43.75477" lon="6.09726">
        <ele>498</ele>
        <time>2017-03-26T22:41:23Z</time>
      </trkpt>
      <trkpt lat="43.75458" lon="6.09744">
        <ele>497</ele>
        <time>2017-03-26T22:41:31Z</time>
      </trkpt>
      <trkpt lat="43.75448" lon="6.09747">
        <ele>496</ele>
        <time>2017-03-26T22:41:37Z</time>
      </trkpt>
      <trkpt lat="43.75434" lon="6.09747">
        <ele>495</ele>
        <time>2017-03-26T22:41:52Z</time>
      </trkpt>
      <trkpt lat="43.7542" lon="6.09749">
        <ele>494</ele>
        <time>2017-03-26T22:42:01Z</time>
      </trkpt>
      <trkpt lat="43.75405" lon="6.09756">
        <ele>491</ele>
        <time>2017-03-26T22:42:10Z</time>
      </trkpt>
      <trkpt lat="43.75375" lon="6.09773">
        <ele>487</ele>
        <time>2017-03-26T22:42:23Z</time>
      </trkpt>
      <trkpt lat="43.75341" lon="6.09792">
        <ele>486</ele>
        <time>2017-03-26T22:42:39Z</time>
      </trkpt>
      <trkpt lat="43.75285" lon="6.0983">
        <ele>479</ele>
        <time>2017-03-26T22:42:52Z</time>
      </trkpt>
      <trkpt lat="43.75273" lon="6.09839">
        <ele>478</ele>
        <time>2017-03-26T22:43:03Z</time>
      </trkpt>
      <trkpt lat="43.75256" lon="6.09842">
        <ele>477</ele>
        <time>2017-03-26T22:43:18Z</time>
      </trkpt>
      <trkpt lat="43.75197" lon="6.09843">
        <ele>470</ele>
        <time>2017-03-26T22:43:25Z</time>
      </trkpt>
      <trkpt lat="43.75151" lon="6.09843">
        <ele>465</ele>
        <time>2017-03-26T22:43:30Z</time>
      </trkpt>
      <trkpt lat="43.75138" lon="6.09842">
        <ele>464</ele>
        <time>2017-03-26T22:43:36Z</time>
      </trkpt>
      <trkpt lat="43.7513" lon="6.09844">
        <ele>464</ele>
        <time>2017-03-26T22:43:38Z</time>
      </trkpt>
      <trkpt lat="43.7512" lon="6.09849">
        <ele>463</ele>
        <time>2017-03-26T22:43:55Z</time>
      </trkpt>
      <trkpt lat="43.75115" lon="6.09856">
        <ele>463</ele>
        <time>2017-03-26T22:44:10Z</time>
      </trkpt>
      <trkpt lat="43.75107" lon="6.09893">
        <ele>462</ele>
        <time>2017-03-26T22:44:24Z</time>
      </trkpt>
      <trkpt lat="43.751" lon="6.09911">
        <ele>461</ele>
        <time>2017-03-26T22:44:39Z</time>
      </trkpt>
      <trkpt lat="43.75096" lon="6.09916">
        <ele>461</ele>
        <time>2017-03-26T22:44:55Z</time>
      </trkpt>
      <trkpt lat="43.75089" lon="6.0992">
        <ele>460</ele>
        <time>2017-03-26T22:45:12Z</time>
      </trkpt>
      <trkpt lat="43.75068" lon="6.09923">
        <ele>457</ele>
        <time>2017-03-26T22:45:31Z</time>
      </trkpt>
      <trkpt lat="43.75043" lon="6.09923">
        <ele>456</ele>
        <time>2017-03-26T22:45:46Z</time>
      </trkpt>
      <trkpt lat="43.7501" lon="6.09919">
        <ele>453</ele>
        <time>2017-03-26T22:45:54Z</time>
      </trkpt>
      <trkpt lat="43.74983" lon="6.09911">
        <ele>450</ele>
        <time>2017-03-26T22:45:57Z</time>
      </trkpt>
      <trkpt lat="43.7496" lon="6.09906">
        <ele>448</ele>
        <time>2017-03-26T22:46:16Z</time>
      </trkpt>
      <trkpt lat="43.74951" lon="6.09907">
        <ele>448</ele>
        <time>2017-03-26T22:46:25Z</time>
      </trkpt>
      <trkpt lat="43.74907" lon="6.09929">
        <ele>443</ele>
        <time>2017-03-26T22:46:43Z</time>
      </trkpt>
      <trkpt lat="43.74881" lon="6.09943">
        <ele>441</ele>
        <time>2017-03-26T22:46:59Z</time>
      </trkpt>
      <trkpt lat="43.74849" lon="6.09966">
        <ele>440</ele>
        <time>2017-03-26T22:47:17Z</time>
      </trkpt>
      <trkpt lat="43.74828" lon="6.09982">
        <ele>436</ele>
        <time>2017-03-26T22:47:22Z</time>
      </trkpt>
      <trkpt lat="43.74813" lon="6.09991">
        <ele>435</ele>
        <time>2017-03-26T22:47:37Z</time>
      </trkpt>
      <trkpt lat="43.74753" lon="6.10009">
        <ele>433</ele>
        <time>2017-03-26T22:47:47Z</time>
      </trkpt>
      <trkpt lat="43.74735" lon="6.10013">
        <ele>429</ele>
        <time>2017-03-26T22:47:54Z</time>
      </trkpt>
      <trkpt lat="43.74703" lon="6.10022">
        <ele>427</ele>
        <time>2017-03-26T22:48:00Z</time>
      </trkpt>
      <trkpt lat="43.74682" lon="6.10025">
        <ele>426</ele>
        <time>2017-03-26T22:48:02Z</time>
      </trkpt>
      <trkpt lat="43.74672" lon="6.10025">
        <ele>426</ele>
        <time>2017-03-26T22:48:11Z</time>
      </trkpt>
      <trkpt lat="43.74668" lon="6.10031">
        <ele>426</ele>
        <time>2017-03-26T22:48:14Z</time>
      </trkpt>
      <trkpt lat="43.74669" lon="6.10042">
        <ele>426</ele>
        <time>2017-03-26T22:48:18Z</time>
      </trkpt>
      <trkpt lat="43.74684" lon="6.10062">
        <ele>425</ele>
        <time>2017-03-26T22:48:37Z</time>
      </trkpt>
      <trkpt lat="43.74702" lon="6.10078">
        <ele>426</ele>
        <time>2017-03-26T22:48:55Z</time>
      </trkpt>
      <trkpt lat="43.74706" lon="6.10084">
        <ele>426</ele>
        <time>2017-03-26T22:49:07Z</time>
      </trkpt>
      <trkpt lat="43.74707" lon="6.10091">
        <ele>426</ele>
        <time>2017-03-26T22:49:27Z</time>
      </trkpt>
      <trkpt lat="43.74704" lon="6.10104">
        <ele>426</ele>
        <time>2017-03-26T22:49:38Z</time>
      </trkpt>
      <trkpt lat="43.74697" lon="6.10111">
        <ele>425</ele>
        <time>2017-03-26T22:49:53Z</time>
      </trkpt>
      <trkpt lat="43.74684" lon="6.1012">
        <ele>425</ele>
        <time>2017-03-26T22:50:08Z</time>
      </trkpt>
      <trkpt lat="43.74681" lon="6.10138">
        <ele>424</ele>
        <time>2017-03-26T22:50:26Z</time>
      </trkpt>
      <trkpt lat="43.74677" lon="6.10154">
        <ele>423</ele>
        <time>2017-03-26T22:50:42Z</time>
      </trkpt>
      <trkpt lat="43.74668" lon="6.10169">
        <ele>421</ele>
        <time>2017-03-26T22:50:52Z</time>
      </trkpt>
      <trkpt lat="43.7464" lon="6.10181">
        <ele>420</ele>
        <time>2017-03-26T22:51:10Z</time>
      </trkpt>
      <trkpt lat="43.74627" lon="6.10184">
        <ele>419</ele>
        <time>2017-03-26T22:51:18Z</time>
      </trkpt>
      <trkpt lat="43.74611" lon="6.10182">
        <ele>418</ele>
        <time>2017-03-26T22:51:28Z</time>
      </trkpt>
      <trkpt lat="43.74579" lon="6.10172">
        <ele>412</ele>
        <time>2017-03-26T22:51:35Z</time>
      </trkpt>
      <trkpt lat="43.74555" lon="6.1016">
        <ele>410</ele>
        <time>2017-03-26T22:51:52Z</time>
      </trkpt>
      <trkpt lat="43.74514" lon="6.10108">
        <ele>409</ele>
        <time>2017-03-26T22:52:00Z</time>
      </trkpt>
      <trkpt lat="43.74482" lon="6.10105">
        <ele>416</ele>
        <time>2017-03-26T22:52:14Z</time>
      </trkpt>
      <trkpt lat="43.74475" lon="6.101">
        <ele>416</ele>
        <time>2017-03-26T22:52:30Z</time>
      </trkpt>
      <trkpt lat="43.7446" lon="6.10061">
        <ele>415</ele>
        <time>2017-03-26T22:52:48Z</time>
      </trkpt>
      <trkpt lat="43.74452" lon="6.10044">
        <ele>415</ele>
        <time>2017-03-26T22:53:04Z</time>
      </trkpt>
      <trkpt lat="43.74429" lon="6.10013">
        <ele>416</ele>
        <time>2017-03-26T22:53:17Z</time>
      </trkpt>
      <trkpt lat="43.7438" lon="6.09962">
        <ele>428</ele>
        <time>2017-03-26T22:53:28Z</time>
      </trkpt>
      <trkpt lat="43.74377" lon="6.09949">
        <ele>428</ele>
        <time>2017-03-26T22:53:38Z</time>
      </trkpt>
      <trkpt lat="43.74379" lon="6.09941">
        <ele>428</ele>
        <time>2017-03-26T22:53:54Z</time>
      </trkpt>
      <trkpt lat="43.7439" lon="6.09925">
        <ele>426</ele>
        <time>2017-03-26T22:53:58Z</time>
      </trkpt>
      <trkpt lat="43.74394" lon="6.09916">
        <ele>428</ele>
        <time>2017-03-26T22:54:05Z</time>
      </trkpt>
      <trkpt lat="43.74385" lon="6.09884">
        <ele>431</ele>
        <time>2017-03-26T22:54:07Z</time>
      </trkpt>
      <trkpt lat="43.7439" lon="6.09873">
        <ele>431</ele>
        <time>2017-03-26T22:54:18Z</time>
      </trkpt>
      <trkpt lat="43.74401" lon="6.09863">
        <ele>430</ele>
        <time>2017-03-26T22:54:27Z</time>
      </trkpt>
      <trkpt lat="43.74412" lon="6.09838">
        <ele>430</ele>
        <time>2017-03-26T22:54:32Z</time>
      </trkpt>
      <trkpt lat="43.74417" lon="6.09816">
        <ele>425</ele>
        <time>2017-03-26T22:54:36Z</time>
      </trkpt>
      <trkpt lat="43.74414" lon="6.0979">
        <ele>431</ele>
        <time>2017-03-26T22:54:54Z</time>
      </trkpt>
      <trkpt lat="43.74407" lon="6.09774">
        <ele>430</ele>
        <time>2017-03-26T22:55:01Z</time>
      </trkpt>
      <trkpt lat="43.74395" lon="6.09763">
        <ele>430</ele>
        <time>2017-03-26T22:55:17Z</time>
      </trkpt>
      <trkpt lat="43.74375" lon="6.09759">
        <ele>432</ele>
        <time>2017-03-26T22:55:28Z</time>
      </trkpt>
      <trkpt lat="43.74296" lon="6.09774">
        <ele>441</ele>
        <time>2017-03-26T22:55:43Z</time>
      </trkpt>
      <trkpt lat="43.74258" lon="6.0978">
        <ele>443</ele>
        <time>2017-03-26T22:55:51Z</time>
      </trkpt>
      <trkpt lat="43.74243" lon="6.09783">
        <ele>449</ele>
        <time>2017-03-26T22:56:01Z</time>
      </trkpt>
      <trkpt lat="43.74231" lon="6.09788">
        <ele>450</ele>
        <time>2017-03-26T22:56:09Z</time>
      </trkpt>
      <trkpt lat="43.74222" lon="6.09795">
        <ele>450</ele>
        <time>2017-03-26T22:56:11Z</time>
      </trkpt>
      <trkpt lat="43.74216" lon="6.09803">
        <ele>451</ele>
        <time>2017-03-26T22:56:21Z</time>
      </trkpt>
      <trkpt lat="43.74191" lon="6.09845">
        <ele>454</ele>
        <time>2017-03-26T22:56:23Z</time>
      </trkpt>
      <trkpt lat="43.74181" lon="6.09863">
        <ele>454</ele>
        <time>2017-03-26T22:56:39Z</time>
      </trkpt>
      <trkpt lat="43.74177" lon="6.09874">
        <ele>454</ele>
        <time>2017-03-26T22:56:43Z</time>
      </trkpt>
      <trkpt lat="43.74157" lon="6.09942">
        <ele>457</ele>
        <time>2017-03-26T22:56:49Z</time>
      </trkpt>
      <trkpt lat="43.74153" lon="6.09951">
        <ele>457</ele>
        <time>2017-03-26T22:57:08Z</time>
      </trkpt>
      <trkpt lat="43.74147" lon="6.09957">
        <ele>458</ele>
        <time>2017-03-26T22:57:20Z</time>
      </trkpt>
      <trkpt lat="43.74131" lon="6.09961">
        <ele>458</ele>
        <time>2017-03-26T22:57:34Z</time>
      </trkpt>
      <trkpt lat="43.74115" lon="6.09956">
        <ele>459</ele>
        <time>2017-03-26T22:57:54Z</time>
      </trkpt>
      <trkpt lat="43.74106" lon="6.0995">
        <ele>459</ele>
        <time>2017-03-26T22:58:02Z</time>
      </trkpt>
      <trkpt lat="43.74095" lon="6.09941">
        <ele>460</ele>
        <time>2017-03-26T22:58:04Z</time>
      </trkpt>
      <trkpt lat="43.74075" lon="6.09914">
        <ele>465</ele>
        <time>2017-03-26T22:58:15Z</time>
      </trkpt>
      <trkpt lat="43.74052" lon="6.0988">
        <ele>468</ele>
        <time>2017-03-26T22:58:29Z</time>
      </trkpt>
      <trkpt lat="43.74027" lon="6.09855">
        <ele>470</ele>
        <time>2017-03-26T22:58:43Z</time>
      </trkpt>
      <trkpt lat="43.74015" lon="6.09847">
        <ele>471</ele>
        <time>2017-03-26T22:58:50Z</time>
      </trkpt>
      <trkpt lat="43.74008" lon="6.09844">
        <ele>472</ele>
        <time>2017-03-26T22:58:53Z</time>
      </trkpt>
      <trkpt lat="43.7399" lon="6.0984">
        <ele>475</ele>
        <time>2017-03-26T22:58:59Z</time>
      </trkpt>
      <trkpt lat="43.73952" lon="6.09842">
        <ele>477</ele>
        <time>2017-03-26T22:59:19Z</time>
      </trkpt>
      <trkpt lat="43.73904" lon="6.09852">
        <ele>482</ele>
        <time>2017-03-26T22:59:26Z</time>
      </trkpt>
      <trkpt lat="43.73863" lon="6.09857">
        <ele>483</ele>
        <time>2017-03-26T22:59:35Z</time>
      </trkpt>
      <trkpt lat="43.73796" lon="6.0987">
        <ele>487</ele>
        <time>2017-03-26T22:59:44Z</time>
      </trkpt>
      <trkpt lat="43.73772" lon="6.0988">
        <ele>488</ele>
        <time>2017-03-26T22:59:57Z</time>
      </trkpt>
      <trkpt lat="43.73749" lon="6.09903">
        <ele>491</ele>
        <time>2017-03-26T23:00:09Z</time>
      </trkpt>
      <trkpt lat="43.73712" lon="6.09944">
        <ele>492</ele>
        <time>2017-03-26T23:00:12Z</time>
      </trkpt>
      <trkpt lat="43.73683" lon="6.09981">
        <ele>493</ele>
        <time>2017-03-26T23:00:14Z</time>
      </trkpt>
      <trkpt lat="43.73672" lon="6.09998">
        <ele>494</ele>
        <time>2017-03-26T23:00:23Z</time>
      </trkpt>
      <trkpt lat="43.73658" lon="6.10026">
        <ele>495</ele>
        <time>2017-03-26T23:00:31Z</time>
      </trkpt>
      <trkpt lat="43.73645" lon="6.10043">
        <ele>495</ele>
        <time>2017-03-26T23:00:33Z</time>
      </trkpt>
      <trkpt lat="43.73624" lon="6.1006">
        <ele>495</ele>
        <time>2017-03-26T23:00:36Z</time>
      </trkpt>
      <trkpt lat="43.73598" lon="6.10086">
        <ele>496</ele>
        <time>2017-03-26T23:00:54Z</time>
      </trkpt>
      <trkpt lat="43.73582" lon="6.10104">
        <ele>496</ele>
        <time>2017-03-26T23:01:05Z</time>
      </trkpt>
      <trkpt lat="43.73571" lon="6.10121">
        <ele>497</ele>
        <time>2017-03-26T23:01:08Z</time>
      </trkpt>
      <trkpt lat="43.73548" lon="6.10156">
        <ele>497</ele>
        <time>2017-03-26T23:01:16Z</time>
      </trkpt>
      <trkpt lat="43.73542" lon="6.10164">
        <ele>497</ele>
        <time>2017-03-26T23:01:28Z</time>
      </trkpt>
      <trkpt lat="43.73521" lon="6.10195">
        <ele>500</ele>
        <time>2017-03-26T23:01:35Z</time>
      </trkpt>
      <trkpt lat="43.73482" lon="6.10265">
        <ele>505</ele>
        <time>2017-03-26T23:01:52Z</time>
      </trkpt>
      <trkpt lat="43.73458" lon="6.10299">
        <ele>506</ele>
        <time>2017-03-26T23:02:06Z</time>
      </trkpt>
      <trkpt lat="43.73394" lon="6.10384">
        <ele>511</ele>
        <time>2017-03-26T23:02:16Z</time>
      </trkpt>
      <trkpt lat="43.73358" lon="6.10436">
        <ele>515</ele>
        <time>2017-03-26T23:02:24Z</time>
      </trkpt>
      <trkpt lat="43.73335" lon="6.10476">
        <ele>516</ele>
        <time>2017-03-26T23:02:30Z</time>
      </trkpt>
      <trkpt lat="43.73328" lon="6.1049">
        <ele>517</ele>
        <time>2017-03-26T23:02:46Z</time>
      </trkpt>
      <trkpt lat="43.73323" lon="6.10506">
        <ele>518</ele>
        <time>2017-03-26T23:02:57Z</time>
      </trkpt>
      <trkpt lat="43.73317" lon="6.10549">
        <ele>520</ele>
        <time>2017-03-26T23:03:03Z</time>
      </trkpt>
      <trkpt lat="43.73311" lon="6.10616">
        <ele>524</ele>
        <time>2017-03-26T23:03:19Z</time>
      </trkpt>
      <trkpt lat="43.7331" lon="6.10661">
        <ele>525</ele>
        <time>2017-03-26T23:03:29Z</time>
      </trkpt>
      <trkpt lat="43.73312" lon="6.10694">
        <ele>529</ele>
        <time>2017-03-26T23:03:46Z</time>
      </trkpt>
      <trkpt lat="43.73311" lon="6.10708">
        <ele>529</ele>
        <time>2017-03-26T23:03:51Z</time>
      </trkpt>
      <trkpt lat="43.73302" lon="6.10742">
        <ele>530</ele>
        <time>2017-03-26T23:03:58Z</time>
      </trkpt>
      <trkpt lat="43.73284" lon="6.10813">
        <ele>536</ele>
        <time>2017-03-26T23:04:04Z</time>
      </trkpt>
      <trkpt lat="43.73275" lon="6.10849">
        <ele>540</ele>
        <time>2017-03-26T23:04:17Z</time>
      </trkpt>
      <trkpt lat="43.73265" lon="6.10868">
        <ele>540</ele>
        <time>2017-03-26T23:04:36Z</time>
      </trkpt>
      <trkpt lat="43.73234" lon="6.10913">
        <ele>544</ele>
        <time>2017-03-26T23:04:52Z</time>
      </trkpt>
      <trkpt lat="43.73199" lon="6.10962">
        <ele>545</ele>
        <time>2017-03-26T23:05:11Z</time>
      </trkpt>
      <trkpt lat="43.73176" lon="6.11002">
        <ele>545</ele>
        <time>2017-03-26T23:05:29Z</time>
      </trkpt>
      <trkpt lat="43.73106" lon="6.11147">
        <ele>541</ele>
        <time>2017-03-26T23:05:32Z</time>
      </trkpt>
      <trkpt lat="43.73085" lon="6.11188">
        <ele>543</ele>
        <time>2017-03-26T23:05:46Z</time>
      </trkpt>
      <trkpt lat="43.73058" lon="6.1125">
        <ele>544</ele>
        <time>2017-03-26T23:06:05Z</time>
      </trkpt>
      <trkpt lat="43.73052" lon="6.1127">
        <ele>547</ele>
        <time>2017-03-26T23:06:23Z</time>
      </trkpt>
      <trkpt lat="43.7298" lon="6.11438">
        <ele>552</ele>
        <time>2017-03-26T23:06:29Z</time>
      </trkpt>
      <trkpt lat="43.72961" lon="6.11472">
        <ele>553</ele>
        <time>2017-03-26T23:06:42Z</time>
      </trkpt>
      <trkpt lat="43.72932" lon="6.11517">
        <ele>556</ele>
        <time>2017-03-26T23:06:57Z</time>
      </trkpt>
      <trkpt lat="43.7291" lon="6.11547">
        <ele>556</ele>
        <time>2017-03-26T23:07:01Z</time>
      </trkpt>
      <trkpt lat="43.72897" lon="6.1157">
        <ele>556</ele>
        <time>2017-03-26T23:07:04Z</time>
      </trkpt>
      <trkpt lat="43.72882" lon="6.1161">
        <ele>560</ele>
        <time>2017-03-26T23:07:19Z</time>
      </trkpt>
      <trkpt lat="43.7284" lon="6.11745">
        <ele>565</ele>
        <time>2017-03-26T23:07:35Z</time>
      </trkpt>
      <trkpt lat="43.72784" lon="6.11927">
        <ele>579</ele>
        <time>2017-03-26T23:07:51Z</time>
      </trkpt>
      <trkpt lat="43.72716" lon="6.12145">
        <ele>595</ele>
        <time>2017-03-26T23:08:06Z</time>
      </trkpt>
      <trkpt lat="43.72701" lon="6.12196">
        <ele>595</ele>
        <time>2017-03-26T23:08:25Z</time>
      </trkpt>
      <trkpt lat="43.7269" lon="6.12222">
        <ele>594</ele>
        <time>2017-03-26T23:08:30Z</time>
      </trkpt>
      <trkpt lat="43.72685" lon="6.12248">
        <ele>594</ele>
        <time>2017-03-26T23:08:49Z</time>
      </trkpt>
      <trkpt lat="43.72695" lon="6.12407">
        <ele>591</ele>
        <time>2017-03-26T23:08:58Z</time>
      </trkpt>
      <trkpt lat="43.72689" lon="6.12439">
        <ele>589</ele>
        <time>2017-03-26T23:09:08Z</time>
      </trkpt>
      <trkpt lat="43.72671" lon="6.12499">
        <ele>589</ele>
        <time>2017-03-26T23:09:17Z</time>
      </trkpt>
      <trkpt lat="43.72661" lon="6.12517">
        <ele>589</ele>
        <time>2017-03-26T23:09:35Z</time>
      </trkpt>
      <trkpt lat="43.72652" lon="6.12529">
        <ele>589</ele>
        <time>2017-03-26T23:09:54Z</time>
      </trkpt>
      <trkpt lat="43.72669" lon="6.12521">
        <ele>587</ele>
        <time>2017-03-26T23:09:59Z</time>
      </trkpt>
      <trkpt lat="43.72716" lon="6.12494">
        <ele>589</ele>
        <time>2017-03-26T23:10:08Z</time>
      </trkpt>
      <trkpt lat="43.72725" lon="6.12493">
        <ele>588</ele>
        <time>2017-03-26T23:10:27Z</time>
      </trkpt>
      <trkpt lat="43.72735" lon="6.12496">
        <ele>588</ele>
        <time>2017-03-26T23:10:32Z</time>
      </trkpt>
      <trkpt lat="43.72744" lon="6.12506">
        <ele>587</ele>
        <time>2017-03-26T23:10:47Z</time>
      </trkpt>
      <trkpt lat="43.72772" lon="6.1257">
        <ele>584</ele>
        <time>2017-03-26T23:11:06Z</time>
      </trkpt>
      <trkpt lat="43.7281" lon="6.12623">
        <ele>581</ele>
        <time>2017-03-26T23:11:09Z</time>
      </trkpt>
      <trkpt lat="43.72832" lon="6.12649">
        <ele>581</ele>
        <time>2017-03-26T23:11:26Z</time>
      </trkpt>
      <trkpt lat="43.72883" lon="6.1271">
        <ele>579</ele>
        <time>2017-03-26T23:11:45Z</time>
      </trkpt>
      <trkpt lat="43.72901" lon="6.12728">
        <ele>579</ele>
        <time>2017-03-26T23:11:55Z</time>
      </trkpt>
      <trkpt lat="43.72931" lon="6.12747">
        <ele>577</ele>
        <time>2017-03-26T23:12:01Z</time>
      </trkpt>
      <trkpt lat="43.72985" lon="6.12766">
        <ele>578</ele>
        <time>2017-03-26T23:12:21Z</time>
      </trkpt>
      <trkpt lat="43.73049" lon="6.12777">
        <ele>575</ele>
        <time>2017-03-26T23:12:40Z</time>
      </trkpt>
      <trkpt lat="43.73091" lon="6.12789">
        <ele>571</ele>
        <time>2017-03-26T23:12:43Z</time>
      </trkpt>
      <trkpt lat="43.7317" lon="6.12819">
        <ele>568</ele>
        <time>2017-03-26T23:12:59Z</time>
      </trkpt>
      <trkpt lat="43.73219" lon="6.12821">
        <ele>564</ele>
        <time>2017-03-26T23:13:14Z</time>
      </trkpt>
      <trkpt lat="43.73261" lon="6.12825">
        <ele>560</ele>
        <time>2017-03-26T23:13:27Z</time>
      </trkpt>
      <trkpt lat="43.73295" lon="6.12836">
        <ele>564</ele>
        <time>2017-03-26T23:13:37Z</time>
      </trkpt>
      <trkpt lat="43.73322" lon="6.12847">
        <ele>561</ele>
        <time>2017-03-26T23:13:46Z</time>
      </trkpt>
      <trkpt lat="43.73357" lon="6.12874">
        <ele>553</ele>
        <time>2017-03-26T23:14:01Z</time>
      </trkpt>
      <trkpt lat="43.73379" lon="6.12899">
        <ele>552</ele>
        <time>2017-03-26T23:14:10Z</time>
      </trkpt>
      <trkpt lat="43.73405" lon="6.12942">
        <ele>558</ele>
        <time>2017-03-26T23:14:12Z</time>
      </trkpt>
      <trkpt lat="43.73467" lon="6.13044">
        <ele>550</ele>
        <time>2017-03-26T23:14:24Z</time>
      </trkpt>
      <trkpt lat="43.73498" lon="6.13095">
        <ele>552</ele>
        <time>2017-03-26T23:14:36Z</time>
      </trkpt>
      <trkpt lat="43.7351" lon="6.13119">
        <ele>534</ele>
        <time>2017-03-26T23:14:51Z</time>
      </trkpt>
      <trkpt lat="43.7351" lon="6.1312">
        <ele>534</ele>
        <time>2017-03-26T23:15:06Z</time>
      </trkpt>
      <trkpt lat="43.73537" lon="6.13175">
        <ele>543</ele>
        <time>2017-03-26T23:15:09Z</time>
      </trkpt>
      <trkpt lat="43.73562" lon="6.13253">
        <ele>543</ele>
        <time>2017-03-26T23:15:22Z</time>
      </trkpt>
      <trkpt lat="43.73567" lon="6.13278">
        <ele>545</ele>
        <time>2017-03-26T23:15:38Z</time>
      </trkpt>
      <trkpt lat="43.73568" lon="6.13309">
        <ele>544</ele>
        <time>2017-03-26T23:15:40Z</time>
      </trkpt>
      <trkpt lat="43.73566" lon="6.13339">
        <ele>540</ele>
        <time>2017-03-26T23:15:46Z</time>
      </trkpt>
      <trkpt lat="43.73554" lon="6.13436">
        <ele>536</ele>
        <time>2017-03-26T23:15:58Z</time>
      </trkpt>
      <trkpt lat="43.73541" lon="6.13497">
        <ele>535</ele>
        <time>2017-03-26T23:16:18Z</time>
      </trkpt>
      <trkpt lat="43.73534" lon="6.13513">
        <ele>526</ele>
        <time>2017-03-26T23:16:30Z</time>
      </trkpt>
      <trkpt lat="43.73515" lon="6.13526">
        <ele>529</ele>
        <time>2017-03-26T23:16:46Z</time>
      </trkpt>
      <trkpt lat="43.73485" lon="6.13541">
        <ele>546</ele>
        <time>2017-03-26T23:16:51Z</time>
      </trkpt>
      <trkpt lat="43.73459" lon="6.13566">
        <ele>546</ele>
        <time>2017-03-26T23:17:02Z</time>
      </trkpt>
      <trkpt lat="43.73455" lon="6.13573">
        <ele>546</ele>
        <time>2017-03-26T23:17:14Z</time>
      </trkpt>
      <trkpt lat="43.73451" lon="6.13589">
        <ele>543</ele>
        <time>2017-03-26T23:17:20Z</time>
      </trkpt>
      <trkpt lat="43.73451" lon="6.13602">
        <ele>544</ele>
        <time>2017-03-26T23:17:26Z</time>
      </trkpt>
      <trkpt lat="43.73458" lon="6.13612">
        <ele>543</ele>
        <time>2017-03-26T23:17:29Z</time>
      </trkpt>
      <trkpt lat="43.73478" lon="6.13621">
        <ele>541</ele>
        <time>2017-03-26T23:17:40Z</time>
      </trkpt>
      <trkpt lat="43.73497" lon="6.13624">
        <ele>540</ele>
        <time>2017-03-26T23:17:42Z</time>
      </trkpt>
      <trkpt lat="43.73513" lon="6.13631">
        <ele>522</ele>
        <time>2017-03-26T23:17:44Z</time>
      </trkpt>
      <trkpt lat="43.73568" lon="6.13684">
        <ele>519</ele>
        <time>2017-03-26T23:17:47Z</time>
      </trkpt>
      <trkpt lat="43.73572" lon="6.13699">
        <ele>522</ele>
        <time>2017-03-26T23:17:51Z</time>
      </trkpt>
      <trkpt lat="43.73572" lon="6.13747">
        <ele>523</ele>
        <time>2017-03-26T23:17:55Z</time>
      </trkpt>
      <trkpt lat="43.73573" lon="6.13779">
        <ele>532</ele>
        <time>2017-03-26T23:18:07Z</time>
      </trkpt>
      <trkpt lat="43.73578" lon="6.13834">
        <ele>523</ele>
        <time>2017-03-26T23:18:27Z</time>
      </trkpt>
      <trkpt lat="43.73587" lon="6.13944">
        <ele>509</ele>
        <time>2017-03-26T23:18:33Z</time>
      </trkpt>
      <trkpt lat="43.73599" lon="6.1399">
        <ele>512</ele>
        <time>2017-03-26T23:18:48Z</time>
      </trkpt>
      <trkpt lat="43.73606" lon="6.14009">
        <ele>511</ele>
        <time>2017-03-26T23:19:02Z</time>
      </trkpt>
      <trkpt lat="43.73613" lon="6.14023">
        <ele>507</ele>
        <time>2017-03-26T23:19:20Z</time>
      </trkpt>
      <trkpt lat="43.73625" lon="6.14018">
        <ele>504</ele>
        <time>2017-03-26T23:19:26Z</time>
      </trkpt>
      <trkpt lat="43.7371" lon="6.13983">
        <ele>480</ele>
        <time>2017-03-26T23:19:43Z</time>
      </trkpt>
      <trkpt lat="43.73817" lon="6.13936">
        <ele>483</ele>
        <time>2017-03-26T23:19:57Z</time>
      </trkpt>
      <trkpt lat="43.73871" lon="6.1391">
        <ele>508</ele>
        <time>2017-03-26T23:20:15Z</time>
      </trkpt>
      <trkpt lat="43.73883" lon="6.1393">
        <ele>502</ele>
        <time>2017-03-26T23:20:23Z</time>
      </trkpt>
      <trkpt lat="43.7391" lon="6.13998">
        <ele>502</ele>
        <time>2017-03-26T23:20:40Z</time>
      </trkpt>
      <trkpt lat="43.73925" lon="6.14021">
        <ele>502</ele>
        <time>2017-03-26T23:20:58Z</time>
      </trkpt>
      <trkpt lat="43.73948" lon="6.14037">
        <ele>501</ele>
        <time>2017-03-26T23:21:14Z</time>
      </trkpt>
      <trkpt lat="43.73973" lon="6.14049">
        <ele>501</ele>
        <time>2017-03-26T23:21:30Z</time>
      </trkpt>
      <trkpt lat="43.74003" lon="6.14054">
        <ele>504</ele>
        <time>2017-03-26T23:21:35Z</time>
      </trkpt>
      <trkpt lat="43.74022" lon="6.14056">
        <ele>504</ele>
        <time>2017-03-26T23:21:42Z</time>
      </trkpt>
      <trkpt lat="43.74043" lon="6.14054">
        <ele>505</ele>
        <time>2017-03-26T23:21:56Z</time>
      </trkpt>
      <trkpt lat="43.74086" lon="6.14047">
        <ele>501</ele>
        <time>2017-03-26T23:22:01Z</time>
      </trkpt>
      <trkpt lat="43.74122" lon="6.14036">
        <ele>502</ele>
        <time>2017-03-26T23:22:06Z</time>
      </trkpt>
      <trkpt lat="43.74152" lon="6.1402">
        <ele>503</ele>
        <time>2017-03-26T23:22:09Z</time>
      </trkpt>
      <trkpt lat="43.74183" lon="6.13995">
        <ele>507</ele>
        <time>2017-03-26T23:22:19Z</time>
      </trkpt>
      <trkpt lat="43.74215" lon="6.1396">
        <ele>507</ele>
        <time>2017-03-26T23:22:35Z</time>
      </trkpt>
      <trkpt lat="43.7425" lon="6.13921">
        <ele>506</ele>
        <time>2017-03-26T23:22:40Z</time>
      </trkpt>
      <trkpt lat="43.74272" lon="6.13901">
        <ele>509</ele>
        <time>2017-03-26T23:23:00Z</time>
      </trkpt>
      <trkpt lat="43.74282" lon="6.13894">
        <ele>509</ele>
        <time>2017-03-26T23:23:13Z</time>
      </trkpt>
      <trkpt lat="43.74297" lon="6.13888">
        <ele>508</ele>
        <time>2017-03-26T23:23:21Z</time>
      </trkpt>
      <trkpt lat="43.74327" lon="6.13882">
        <ele>506</ele>
        <time>2017-03-26T23:23:29Z</time>
      </trkpt>
      <trkpt lat="43.74358" lon="6.13873">
        <ele>496</ele>
        <time>2017-03-26T23:23:33Z</time>
      </trkpt>
      <trkpt lat="43.74386" lon="6.13858">
        <ele>495</ele>
        <time>2017-03-26T23:23:36Z</time>
      </trkpt>
      <trkpt lat="43.74407" lon="6.13836">
        <ele>495</ele>
        <time>2017-03-26T23:23:53Z</time>
      </trkpt>
      <trkpt lat="43.74427" lon="6.13804">
        <ele>496</ele>
        <time>2017-03-26T23:23:55Z</time>
      </trkpt>
      <trkpt lat="43.7444" lon="6.13789">
        <ele>497</ele>
        <time>2017-03-26T23:24:15Z</time>
      </trkpt>
      <trkpt lat="43.74452" lon="6.1378">
        <ele>497</ele>
        <time>2017-03-26T23:24:19Z</time>
      </trkpt>
      <trkpt lat="43.7448" lon="6.13762">
        <ele>496</ele>
        <time>2017-03-26T23:24:32Z</time>
      </trkpt>
      <trkpt lat="43.74511" lon="6.1374">
        <ele>495</ele>
        <time>2017-03-26T23:24:38Z</time>
      </trkpt>
      <trkpt lat="43.74541" lon="6.13703">
        <ele>495</ele>
        <time>2017-03-26T23:24:54Z</time>
      </trkpt>
      <trkpt lat="43.7462" lon="6.13587">
        <ele>493</ele>
        <time>2017-03-26T23:25:09Z</time>
      </trkpt>
      <trkpt lat="43.74692" lon="6.1349">
        <ele>502</ele>
        <time>2017-03-26T23:25:21Z</time>
      </trkpt>
      <trkpt lat="43.74722" lon="6.13447">
        <ele>503</ele>
        <time>2017-03-26T23:25:31Z</time>
      </trkpt>
      <trkpt lat="43.74754" lon="6.13409">
        <ele>501</ele>
        <time>2017-03-26T23:25:33Z</time>
      </trkpt>
      <trkpt lat="43.74798" lon="6.13371">
        <ele>502</ele>
        <time>2017-03-26T23:25:35Z</time>
      </trkpt>
      <trkpt lat="43.74843" lon="6.13329">
        <ele>501</ele>
        <time>2017-03-26T23:25:43Z</time>
      </trkpt>
      <trkpt lat="43.74869" lon="6.13297">
        <ele>503</ele>
        <time>2017-03-26T23:25:47Z</time>
      </trkpt>
      <trkpt lat="43.74894" lon="6.13261">
        <ele>503</ele>
        <time>2017-03-26T23:25:54Z</time>
      </trkpt>
      <trkpt lat="43.74909" lon="6.13246">
        <ele>504</ele>
        <time>2017-03-26T23:26:09Z</time>
      </trkpt>
      <trkpt lat="43.74916" lon="6.13244">
        <ele>503</ele>
        <time>2017-03-26T23:26:16Z</time>
      </trkpt>
      <trkpt lat="43.74926" lon="6.13243">
        <ele>506</ele>
        <time>2017-03-26T23:26:24Z</time>
      </trkpt>
      <trkpt lat="43.74946" lon="6.13251">
        <ele>509</ele>
        <time>2017-03-26T23:26:44Z</time>
      </trkpt>
      <trkpt lat="43.74952" lon="6.13258">
        <ele>511</ele>
        <time>2017-03-26T23:26:51Z</time>
      </trkpt>
      <trkpt lat="43.74959" lon="6.13271">
        <ele>512</ele>
        <time>2017-03-26T23:27:09Z</time>
      </trkpt>
      <trkpt lat="43.74962" lon="6.13285">
        <ele>512</ele>
        <time>2017-03-26T23:27:28Z</time>
      </trkpt>
      <trkpt lat="43.74961" lon="6.13302">
        <ele>512</ele>
        <time>2017-03-26T23:27:39Z</time>
      </trkpt>
      <trkpt lat="43.74955" lon="6.13345">
        <ele>510</ele>
        <time>2017-03-26T23:27:56Z</time>
      </trkpt>
      <trkpt lat="43.7494" lon="6.13433">
        <ele>506</ele>
        <time>2017-03-26T23:28:16Z</time>
      </trkpt>
      <trkpt lat="43.74915" lon="6.13585">
        <ele>496</ele>
        <time>2017-03-26T23:28:18Z</time>
      </trkpt>
      <trkpt lat="43.7491" lon="6.13624">
        <ele>490</ele>
        <time>2017-03-26T23:28:21Z</time>
      </trkpt>
      <trkpt lat="43.7491" lon="6.1365">
        <ele>492</ele>
        <time>2017-03-26T23:28:32Z</time>
      </trkpt>
      <trkpt lat="43.74912" lon="6.13667">
        <ele>495</ele>
        <time>2017-03-26T23:28:44Z</time>
      </trkpt>
      <trkpt lat="43.7492" lon="6.13684">
        <ele>495</ele>
        <time>2017-03-26T23:28:58Z</time>
      </trkpt>
      <trkpt lat="43.74928" lon="6.13697">
        <ele>494</ele>
        <time>2017-03-26T23:29:00Z</time>
      </trkpt>
      <trkpt lat="43.74936" lon="6.13706">
        <ele>494</ele>
        <time>2017-03-26T23:29:15Z</time>
      </trkpt>
      <trkpt lat="43.74945" lon="6.13711">
        <ele>493</ele>
        <time>2017-03-26T23:29:18Z</time>
      </trkpt>
      <trkpt lat="43.74957" lon="6.13714">
        <ele>493</ele>
        <time>2017-03-26T23:29:23Z</time>
      </trkpt>
      <trkpt lat="43.74976" lon="6.13713">
        <ele>494</ele>
        <time>2017-03-26T23:29:30Z</time>
      </trkpt>
      <trkpt lat="43.74988" lon="6.13707">
        <ele>494</ele>
        <time>2017-03-26T23:29:32Z</time>
      </trkpt>
      <trkpt lat="43.74996" lon="6.13697">
        <ele>495</ele>
        <time>2017-03-26T23:29:37Z</time>
      </trkpt>
      <trkpt lat="43.75027" lon="6.13656">
        <ele>500</ele>
        <time>2017-03-26T23:29:51Z</time>
      </trkpt>
      <trkpt lat="43.75092" lon="6.13562">
        <ele>499</ele>
        <time>2017-03-26T23:29:57Z</time>
      </trkpt>
      <trkpt lat="43.75147" lon="6.13487">
        <ele>504</ele>
        <time>2017-03-26T23:30:11Z</time>
      </trkpt>
      <trkpt lat="43.75172" lon="6.13454">
        <ele>497</ele>
        <time>2017-03-26T23:30:30Z</time>
      </trkpt>
      <trkpt lat="43.75198" lon="6.13427">
        <ele>497</ele>
        <time>2017-03-26T23:30:41Z</time>
      </trkpt>
      <trkpt lat="43.75225" lon="6.13408">
        <ele>501</ele>
        <time>2017-03-26T23:30:58Z</time>
      </trkpt>
      <trkpt lat="43.7525" lon="6.13398">
        <ele>500</ele>
        <time>2017-03-26T23:31:08Z</time>
      </trkpt>
      <trkpt lat="43.75299" lon="6.13383">
        <ele>497</ele>
        <time>2017-03-26T23:31:12Z</time>
      </trkpt>
      <trkpt lat="43.75324" lon="6.13376">
        <ele>497</ele>
        <time>2017-03-26T23:31:21Z</time>
      </trkpt>
      <trkpt lat="43.75349" lon="6.13362">
        <ele>494</ele>
        <time>2017-03-26T23:31:30Z</time>
      </trkpt>
      <trkpt lat="43.75361" lon="6.13351">
        <ele>494</ele>
        <time>2017-03-26T23:31:35Z</time>
      </trkpt>
      <trkpt lat="43.75377" lon="6.13326">
        <ele>499</ele>
        <time>2017-03-26T23:31:44Z</time>
      </trkpt>
      <trkpt lat="43.75444" lon="6.13181">
        <ele>502</ele>
        <time>2017-03-26T23:32:01Z</time>
      </trkpt>
      <trkpt lat="43.75459" lon="6.13151">
        <ele>504</ele>
        <time>2017-03-26T23:32:03Z</time>
      </trkpt>
      <trkpt lat="43.75467" lon="6.13141">
        <ele>504</ele>
        <time>2017-03-26T23:32:19Z</time>
      </trkpt>
      <trkpt lat="43.75475" lon="6.13135">
        <ele>504</ele>
        <time>2017-03-26T23:32:21Z</time>
      </trkpt>
      <trkpt lat="43.75485" lon="6.13131">
        <ele>503</ele>
        <time>2017-03-26T23:32:28Z</time>
      </trkpt>
      <trkpt lat="43.75493" lon="6.1313">
        <ele>503</ele>
        <time>2017-03-26T23:32:31Z</time>
      </trkpt>
      <trkpt lat="43.75506" lon="6.13131">
        <ele>501</ele>
        <time>2017-03-26T23:32:33Z</time>
      </trkpt>
      <trkpt lat="43.75516" lon="6.13134">
        <ele>501</ele>
        <time>2017-03-26T23:32:40Z</time>
      </trkpt>
      <trkpt lat="43.75533" lon="6.13148">
        <ele>502</ele>
        <time>2017-03-26T23:32:56Z</time>
      </trkpt>
      <trkpt lat="43.75539" lon="6.13159">
        <ele>502</ele>
        <time>2017-03-26T23:33:11Z</time>
      </trkpt>
      <trkpt lat="43.75547" lon="6.13182">
        <ele>501</ele>
        <time>2017-03-26T23:33:26Z</time>
      </trkpt>
      <trkpt lat="43.7555" lon="6.1321">
        <ele>502</ele>
        <time>2017-03-26T23:33:36Z</time>
      </trkpt>
      <trkpt lat="43.7555" lon="6.1334">
        <ele>503</ele>
        <time>2017-03-26T23:33:52Z</time>
      </trkpt>
      <trkpt lat="43.75551" lon="6.1347">
        <ele>501</ele>
        <time>2017-03-26T23:34:07Z</time>
      </trkpt>
      <trkpt lat="43.75559" lon="6.13511">
        <ele>500</ele>
        <time>2017-03-26T23:34:09Z</time>
      </trkpt>
      <trkpt lat="43.75575" lon="6.13544">
        <ele>499</ele>
        <time>2017-03-26T23:34:27Z</time>
      </trkpt>
      <trkpt lat="43.756" lon="6.13574">
        <ele>509</ele>
        <time>2017-03-26T23:34:41Z</time>
      </trkpt>
      <trkpt lat="43.75628" lon="6.13601">
        <ele>508</ele>
        <time>2017-03-26T23:34:53Z</time>
      </trkpt>
      <trkpt lat="43.75648" lon="6.13626">
        <ele>509</ele>
        <time>2017-03-26T23:34:59Z</time>
      </trkpt>
      <trkpt lat="43.75787" lon="6.13892">
        <ele>534</ele>
        <time>2017-03-26T23:35:19Z</time>
      </trkpt>
      <trkpt lat="43.75819" lon="6.13953">
        <ele>537</ele>
        <time>2017-03-26T23:35:24Z</time>
      </trkpt>
      <trkpt lat="43.75829" lon="6.13976">
        <ele>537</ele>
        <time>2017-03-26T23:35:38Z</time>
      </trkpt>
      <trkpt lat="43.75831" lon="6.13998">
        <ele>538</ele>
        <time>2017-03-26T23:35:55Z</time>
      </trkpt>
      <trkpt lat="43.75828" lon="6.14011">
        <ele>541</ele>
        <time>2017-03-26T23:36:04Z</time>
      </trkpt>
      <trkpt lat="43.75822" lon="6.14024">
        <ele>543</ele>
        <time>2017-03-26T23:36:24Z</time>
      </trkpt>
      <trkpt lat="43.75815" lon="6.14035">
        <ele>545</ele>
        <time>2017-03-26T23:36:41Z</time>
      </trkpt>
      <trkpt lat="43.75806" lon="6.14041">
        <ele>546</ele>
        <time>2017-03-26T23:36:50Z</time>
      </trkpt>
      <trkpt lat="43.7579" lon="6.14044">
        <ele>547</ele>
        <time>2017-03-26T23:36:56Z</time>
      </trkpt>
      <trkpt lat="43.75777" lon="6.1404">
        <ele>546</ele>
        <time>2017-03-26T23:37:06Z</time>
      </trkpt>
      <trkpt lat="43.75747" lon="6.14026">
        <ele>550</ele>
        <time>2017-03-26T23:37:09Z</time>
      </trkpt>
      <trkpt lat="43.75596" lon="6.13964">
        <ele>549</ele>
        <time>2017-03-26T23:37:21Z</time>
      </trkpt>
      <trkpt lat="43.75581" lon="6.13962">
        <ele>545</ele>
        <time>2017-03-26T23:37:25Z</time>
      </trkpt>
      <trkpt lat="43.75568" lon="6.13968">
        <ele>545</ele>
        <time>2017-03-26T23:37:34Z</time>
      </trkpt>
      <trkpt lat="43.7556" lon="6.13977">
        <ele>546</ele>
        <time>2017-03-26T23:37:36Z</time>
      </trkpt>
      <trkpt lat="43.7555" lon="6.13998">
        <ele>546</ele>
        <time>2017-03-26T23:37:45Z</time>
      </trkpt>
      <trkpt lat="43.75535" lon="6.14026">
        <ele>552</ele>
        <time>2017-03-26T23:38:05Z</time>
      </trkpt>
      <trkpt lat="43.75524" lon="6.14048">
        <ele>552</ele>
        <time>2017-03-26T23:38:18Z</time>
      </trkpt>
      <trkpt lat="43.75523" lon="6.14065">
        <ele>553</ele>
        <time>2017-03-26T23:38:30Z</time>
      </trkpt>
      <trkpt lat="43.75531" lon="6.14078">
        <ele>554</ele>
        <time>2017-03-26T23:38:42Z</time>
      </trkpt>
      <trkpt lat="43.75544" lon="6.1408">
        <ele>555</ele>
        <time>2017-03-26T23:38:53Z</time>
      </trkpt>
      <trkpt lat="43.75553" lon="6.14072">
        <ele>557</ele>
        <time>2017-03-26T23:38:58Z</time>
      </trkpt>
      <trkpt lat="43.7557" lon="6.14033">
        <ele>556</ele>
        <time>2017-03-26T23:39:02Z</time>
      </trkpt>
      <trkpt lat="43.75576" lon="6.14024">
        <ele>556</ele>
        <time>2017-03-26T23:39:18Z</time>
      </trkpt>
      <trkpt lat="43.75586" lon="6.14018">
        <ele>561</ele>
        <time>2017-03-26T23:39:24Z</time>
      </trkpt>
      <trkpt lat="43.75601" lon="6.14016">
        <ele>561</ele>
        <time>2017-03-26T23:39:31Z</time>
      </trkpt>
      <trkpt lat="43.75611" lon="6.1402">
        <ele>561</ele>
        <time>2017-03-26T23:39:50Z</time>
      </trkpt>
      <trkpt lat="43.75626" lon="6.14031">
        <ele>562</ele>
        <time>2017-03-26T23:39:55Z</time>
      </trkpt>
      <trkpt lat="43.75654" lon="6.14056">
        <ele>565</ele>
        <time>2017-03-26T23:40:14Z</time>
      </trkpt>
      <trkpt lat="43.75697" lon="6.14105">
        <ele>572</ele>
        <time>2017-03-26T23:40:24Z</time>
      </trkpt>
      <trkpt lat="43.75724" lon="6.14134">
        <ele>573</ele>
        <time>2017-03-26T23:40:44Z</time>
      </trkpt>
      <trkpt lat="43.75738" lon="6.14159">
        <ele>577</ele>
        <time>2017-03-26T23:40:53Z</time>
      </trkpt>
      <trkpt lat="43.75769" lon="6.14218">
        <ele>576</ele>
        <time>2017-03-26T23:41:07Z</time>
      </trkpt>
      <trkpt lat="43.75793" lon="6.14251">
        <ele>576</ele>
        <time>2017-03-26T23:41:15Z</time>
      </trkpt>
      <trkpt lat="43.75811" lon="6.14274">
        <ele>575</ele>
        <time>2017-03-26T23:41:27Z</time>
      </trkpt>
      <trkpt lat="43.75839" lon="6.14313">
        <ele>576</ele>
        <time>2017-03-26T23:41:44Z</time>
      </trkpt>
      <trkpt lat="43.75862" lon="6.14348">
        <ele>579</ele>
        <time>2017-03-26T23:41:47Z</time>
      </trkpt>
      <trkpt lat="43.75876" lon="6.1438">
        <ele>579</ele>
        <time>2017-03-26T23:41:49Z</time>
      </trkpt>
      <trkpt lat="43.75886" lon="6.14412">
        <ele>580</ele>
        <time>2017-03-26T23:42:06Z</time>
      </trkpt>
      <trkpt lat="43.75913" lon="6.1451">
        <ele>579</ele>
        <time>2017-03-26T23:42:14Z</time>
      </trkpt>
      <trkpt lat="43.75923" lon="6.14531">
        <ele>585</ele>
        <time>2017-03-26T23:42:24Z</time>
      </trkpt>
      <trkpt lat="43.75956" lon="6.1458">
        <ele>585</ele>
        <time>2017-03-26T23:42:30Z</time>
      </trkpt>
      <trkpt lat="43.75987" lon="6.14611">
        <ele>581</ele>
        <time>2017-03-26T23:42:39Z</time>
      </trkpt>
      <trkpt lat="43.76006" lon="6.14631">
        <ele>595</ele>
        <time>2017-03-26T23:42:49Z</time>
      </trkpt>
      <trkpt lat="43.76012" lon="6.14642">
        <ele>593</ele>
        <time>2017-03-26T23:42:52Z</time>
      </trkpt>
      <trkpt lat="43.76016" lon="6.14653">
        <ele>592</ele>
        <time>2017-03-26T23:43:03Z</time>
      </trkpt>
      <trkpt lat="43.76018" lon="6.14674">
        <ele>586</ele>
        <time>2017-03-26T23:43:08Z</time>
      </trkpt>
      <trkpt lat="43.76016" lon="6.14691">
        <ele>587</ele>
        <time>2017-03-26T23:43:23Z</time>
      </trkpt>
      <trkpt lat="43.7601" lon="6.14699">
        <ele>587</ele>
        <time>2017-03-26T23:43:39Z</time>
      </trkpt>
      <trkpt lat="43.76001" lon="6.14727">
        <ele>584</ele>
        <time>2017-03-26T23:43:56Z</time>
      </trkpt>
      <trkpt lat="43.76001" lon="6.14747">
        <ele>578</ele>
        <time>2017-03-26T23:44:05Z</time>
      </trkpt>
      <trkpt lat="43.76006" lon="6.14761">
        <ele>579</ele>
        <time>2017-03-26T23:44:23Z</time>
      </trkpt>
      <trkpt lat="43.76019" lon="6.14777">
        <ele>582</ele>
        <time>2017-03-26T23:44:34Z</time>
      </trkpt>
      <trkpt lat="43.76028" lon="6.14782">
        <ele>583</ele>
        <time>2017-03-26T23:44:40Z</time>
      </trkpt>
      <trkpt lat="43.7604" lon="6.14791">
        <ele>584</ele>
        <time>2017-03-26T23:44:48Z</time>
      </trkpt>
      <trkpt lat="43.76055" lon="6.14808">
        <ele>585</ele>
        <time>2017-03-26T23:44:59Z</time>
      </trkpt>
      <trkpt lat="43.76068" lon="6.1484">
        <ele>581</ele>
        <time>2017-03-26T23:45:03Z</time>
      </trkpt>
      <trkpt lat="43.7608" lon="6.14853">
        <ele>580</ele>
        <time>2017-03-26T23:45:22Z</time>
      </trkpt>
      <trkpt lat="43.76088" lon="6.14856">
        <ele>585</ele>
        <time>2017-03-26T23:45:28Z</time>
      </trkpt>
      <trkpt lat="43.76095" lon="6.14851">
        <ele>585</ele>
        <time>2017-03-26T23:45:35Z</time>
      </trkpt>
      <trkpt lat="43.76097" lon="6.14838">
        <ele>586</ele>
        <time>2017-03-26T23:45:44Z</time>
      </trkpt>
      <trkpt lat="43.76052" lon="6.14748">
        <ele>593</ele>
        <time>2017-03-26T23:46:01Z</time>
      </trkpt>
      <trkpt lat="43.76044" lon="6.14727">
        <ele>592</ele>
        <time>2017-03-26T23:46:18Z</time>
      </trkpt>
      <trkpt lat="43.76044" lon="6.14719">
        <ele>592</ele>
        <time>2017-03-26T23:46:36Z</time>
      </trkpt>
      <trkpt lat="43.76047" lon="6.14712">
        <ele>593</ele>
        <time>2017-03-26T23:46:45Z</time>
      </trkpt>
      <trkpt lat="43.76053" lon="6.14709">
        <ele>594</ele>
        <time>2017-03-26T23:47:03Z</time>
      </trkpt>
      <trkpt lat="43.76059" lon="6.1471">
        <ele>595</ele>
        <time>2017-03-26T23:47:05Z</time>
      </trkpt>
      <trkpt lat="43.76064" lon="6.14717">
        <ele>595</ele>
        <time>2017-03-26T23:47:10Z</time>
      </trkpt>
      <trkpt lat="43.76066" lon="6.14729">
        <ele>595</ele>
        <time>2017-03-26T23:47:14Z</time>
      </trkpt>
      <trkpt lat="43.7607" lon="6.14748">
        <ele>598</ele>
        <time>2017-03-26T23:47:28Z</time>
      </trkpt>
      <trkpt lat="43.76077" lon="6.14762">
        <ele>594</ele>
        <time>2017-03-26T23:47:42Z</time>
      </trkpt>
      <trkpt lat="43.76092" lon="6.14776">
        <ele>601</ele>
        <time>2017-03-26T23:47:52Z</time>
      </trkpt>
      <trkpt lat="43.76132" lon="6.14799">
        <ele>601</ele>
        <time>2017-03-26T23:47:59Z</time>
      </trkpt>
      <trkpt lat="43.76145" lon="6.14799">
        <ele>602</ele>
        <time>2017-03-26T23:48:12Z</time>
      </trkpt>
      <trkpt lat="43.7615" lon="6.14792">
        <ele>603</ele>
        <time>2017-03-26T23:48:15Z</time>
      </trkpt>
      <trkpt lat="43.7615" lon="6.14781">
        <ele>605</ele>
        <time>2017-03-26T23:48:27Z</time>
      </trkpt>
      <trkpt lat="43.76142" lon="6.1477">
        <ele>606</ele>
        <time>2017-03-26T23:48:40Z</time>
      </trkpt>
      <trkpt lat="43.76126" lon="6.14764">
        <ele>604</ele>
        <time>2017-03-26T23:48:57Z</time>
      </trkpt>
      <trkpt lat="43.76117" lon="6.14761">
        <ele>604</ele>
        <time>2017-03-26T23:49:13Z</time>
      </trkpt>
      <trkpt lat="43.76108" lon="6.14753">
        <ele>603</ele>
        <time>2017-03-26T23:49:15Z</time>
      </trkpt>
      <trkpt lat="43.76095" lon="6.14731">
        <ele>610</ele>
        <time>2017-03-26T23:49:20Z</time>
      </trkpt>
      <trkpt lat="43.76092" lon="6.14706">
        <ele>613</ele>
        <time>2017-03-26T23:49:35Z</time>
      </trkpt>
      <trkpt lat="43.76092" lon="6.14638">
        <ele>620</ele>
        <time>2017-03-26T23:49:46Z</time>
      </trkpt>
      <trkpt lat="43.76086" lon="6.14609">
        <ele>622</ele>
        <time>2017-03-26T23:49:52Z</time>
      </trkpt>
      <trkpt lat="43.76076" lon="6.14575">
        <ele>616</ele>
        <time>2017-03-26T23:49:54Z</time>
      </trkpt>
      <trkpt lat="43.7607" lon="6.14552">
        <ele>612</ele>
        <time>2017-03-26T23:50:11Z</time>
      </trkpt>
      <trkpt lat="43.7607" lon="6.14536">
        <ele>612</ele>
        <time>2017-03-26T23:50:16Z</time>
      </trkpt>
      <trkpt lat="43.76074" lon="6.14527">
        <ele>613</ele>
        <time>2017-03-26T23:50:18Z</time>
      </trkpt>
      <trkpt lat="43.76077" lon="6.14523">
        <ele>613</ele>
        <time>2017-03-26T23:50:28Z</time>
      </trkpt>
      <trkpt lat="43.76084" lon="6.14522">
        <ele>623</ele>
        <time>2017-03-26T23:50:39Z</time>
      </trkpt>
      <trkpt lat="43.76089" lon="6.14526">
        <ele>624</ele>
        <time>2017-03-26T23:50:42Z</time>
      </trkpt>
      <trkpt lat="43.76094" lon="6.14534">
        <ele>625</ele>
        <time>2017-03-26T23:50:51Z</time>
      </trkpt>
      <trkpt lat="43.76095" lon="6.14543">
        <ele>625</ele>
        <time>2017-03-26T23:51:03Z</time>
      </trkpt>
      <trkpt lat="43.761" lon="6.1458">
        <ele>624</ele>
        <time>2017-03-26T23:51:10Z</time>
      </trkpt>
      <trkpt lat="43.76131" lon="6.1468">
        <ele>620</ele>
        <time>2017-03-26T23:51:21Z</time>
      </trkpt>
      <trkpt lat="43.76145" lon="6.147">
        <ele>620</ele>
        <time>2017-03-26T23:51:41Z</time>
      </trkpt>
      <trkpt lat="43.76173" lon="6.14708">
        <ele>630</ele>
        <time>2017-03-26T23:52:01Z</time>
      </trkpt>
      <trkpt lat="43.76209" lon="6.1472">
        <ele>631</ele>
        <time>2017-03-26T23:52:13Z</time>
      </trkpt>
      <trkpt lat="43.7623" lon="6.14735">
        <ele>632</ele>
        <time>2017-03-26T23:52:30Z</time>
      </trkpt>
      <trkpt lat="43.76258" lon="6.14763">
        <ele>631</ele>
        <time>2017-03-26T23:52:38Z</time>
      </trkpt>
      <trkpt lat="43.76284" lon="6.1478">
        <ele>629</ele>
        <time>2017-03-26T23:52:55Z</time>
      </trkpt>
      <trkpt lat="43.76304" lon="6.14786">
        <ele>629</ele>
        <time>2017-03-26T23:52:57Z</time>
      </trkpt>
      <trkpt lat="43.76326" lon="6.14785">
        <ele>631</ele>
        <time>2017-03-26T23:53:15Z</time>
      </trkpt>
      <trkpt lat="43.76333" lon="6.14783">
        <ele>631</ele>
        <time>2017-03-26T23:53:35Z</time>
      </trkpt>
      <trkpt lat="43.76338" lon="6.14792">
        <ele>635</ele>
        <time>2017-03-26T23:53:42Z</time>
      </trkpt>
      <trkpt lat="43.76343" lon="6.14798">
        <ele>635</ele>
        <time>2017-03-26T23:53:53Z</time>
      </trkpt>
      <trkpt lat="43.76349" lon="6.14803">
        <ele>635</ele>
        <time>2017-03-26T23:54:10Z</time>
      </trkpt>
      <trkpt lat="43.76361" lon="6.14809">
        <ele>635</ele>
        <time>2017-03-26T23:54:13Z</time>
      </trkpt>
      <trkpt lat="43.76448" lon="6.14838">
        <ele>633</ele>
        <time>2017-03-26T23:54:19Z</time>
      </trkpt>
      <trkpt lat="43.76474" lon="6.14845">
        <ele>633</ele>
        <time>2017-03-26T23:54:37Z</time>
      </trkpt>
      <trkpt lat="43.7652" lon="6.14856">
        <ele>636</ele>
        <time>2017-03-26T23:54:41Z</time>
      </trkpt>
      <trkpt lat="43.76535" lon="6.14861">
        <ele>636</ele>
        <time>2017-03-26T23:54:43Z</time>
      </trkpt>
      <trkpt lat="43.7655" lon="6.14883">
        <ele>635</ele>
        <time>2017-03-26T23:54:55Z</time>
      </trkpt>
      <trkpt lat="43.76573" lon="6.14931">
        <ele>632</ele>
        <time>2017-03-26T23:55:03Z</time>
      </trkpt>
      <trkpt lat="43.76589" lon="6.14958">
        <ele>638</ele>
        <time>2017-03-26T23:55:07Z</time>
      </trkpt>
      <trkpt lat="43.76631" lon="6.15017">
        <ele>635</ele>
        <time>2017-03-26T23:55:17Z</time>
      </trkpt>
      <trkpt lat="43.7666" lon="6.15061">
        <ele>634</ele>
        <time>2017-03-26T23:55:33Z</time>
      </trkpt>
      <trkpt lat="43.76711" lon="6.15146">
        <ele>637</ele>
        <time>2017-03-26T23:55:39Z</time>
      </trkpt>
      <trkpt lat="43.76723" lon="6.15164">
        <ele>639</ele>
        <time>2017-03-26T23:55:46Z</time>
      </trkpt>
      <trkpt lat="43.7674" lon="6.15177">
        <ele>640</ele>
        <time>2017-03-26T23:56:01Z</time>
      </trkpt>
      <trkpt lat="43.7675" lon="6.15185">
        <ele>640</ele>
        <time>2017-03-26T23:56:10Z</time>
      </trkpt>
      <trkpt lat="43.76756" lon="6.15194">
        <ele>643</ele>
        <time>2017-03-26T23:56:26Z</time>
      </trkpt>
      <trkpt lat="43.76776" lon="6.1524">
        <ele>643</ele>
        <time>2017-03-26T23:56:32Z</time>
      </trkpt>
      <trkpt lat="43.76811" lon="6.15298">
        <ele>644</ele>
        <time>2017-03-26T23:56:39Z</time>
      </trkpt>
      <trkpt lat="43.76844" lon="6.15358">
        <ele>646</ele>
        <time>2017-03-26T23:56:56Z</time>
      </trkpt>
      <trkpt lat="43.76862" lon="6.15401">
        <ele>646</ele>
        <time>2017-03-26T23:57:02Z</time>
      </trkpt>
      <trkpt lat="43.76873" lon="6.15431">
        <ele>645</ele>
        <time>2017-03-26T23:57:04Z</time>
      </trkpt>
      <trkpt lat="43.7688" lon="6.15462">
        <ele>645</ele>
        <time>2017-03-26T23:57:06Z</time>
      </trkpt>
      <trkpt lat="43.76901" lon="6.15572">
        <ele>647</ele>
        <time>2017-03-26T23:57:13Z</time>
      </trkpt>
      <trkpt lat="43.7693" lon="6.15711">
        <ele>648</ele>
        <time>2017-03-26T23:57:28Z</time>
      </trkpt>
      <trkpt lat="43.76953" lon="6.15799">
        <ele>648</ele>
        <time>2017-03-26T23:57:37Z</time>
      </trkpt>
      <trkpt lat="43.76969" lon="6.15855">
        <ele>647</ele>
        <time>2017-03-26T23:57:44Z</time>
      </trkpt>
      <trkpt lat="43.76986" lon="6.159">
        <ele>647</ele>
        <time>2017-03-26T23:58:03Z</time>
      </trkpt>
      <trkpt lat="43.77064" lon="6.16036">
        <ele>649</ele>
        <time>2017-03-26T23:58:22Z</time>
      </trkpt>
      <trkpt lat="43.77113" lon="6.16123">
        <ele>650</ele>
        <time>2017-03-26T23:58:38Z</time>
      </trkpt>
      <trkpt lat="43.77159" lon="6.16197">
        <ele>650</ele>
        <time>2017-03-26T23:58:50Z</time>
      </trkpt>
      <trkpt lat="43.77231" lon="6.16303">
        <ele>652</ele>
        <time>2017-03-26T23:58:58Z</time>
      </trkpt>
      <trkpt lat="43.77317" lon="6.16417">
        <ele>653</ele>
        <time>2017-03-26T23:59:14Z</time>
      </trkpt>
      <trkpt lat="43.774" lon="6.16524">
        <ele>656</ele>
        <time>2017-03-26T23:59:23Z</time>
      </trkpt>
      <trkpt lat="43.77612" lon="6.1677">
        <ele>661</ele>
        <time>2017-03-26T23:59:34Z</time>
      </trkpt>
      <trkpt lat="43.77686" lon="6.16864">
        <ele>662</ele>
        <time>2017-03-26T23:59:53Z</time>
      </trkpt>
      <trkpt lat="43.77739" lon="6.16931">
        <ele>662</ele>
        <time>2017-03-26T23:59:58Z</time>
      </trkpt>
      <trkpt lat="43.7781" lon="6.17016">
        <ele>664</ele>
        <time>2017-03-27T00:00:13Z</time>
      </trkpt>
      <trkpt lat="43.7787" lon="6.17094">
        <ele>664</ele>
        <time>2017-03-27T00:00:28Z</time>
      </trkpt>
      <trkpt lat="43.77928" lon="6.17177">
        <ele>664</ele>
        <time>2017-03-27T00:00:41Z</time>
      </trkpt>
      <trkpt lat="43.78073" lon="6.17417">
        <ele>666</ele>
        <time>2017-03-27T00:00:45Z</time>
      </trkpt>
      <trkpt lat="43.78128" lon="6.17507">
        <ele>664</ele>
        <time>2017-03-27T00:00:58Z</time>
      </trkpt>
      <trkpt lat="43.78171" lon="6.17572">
        <ele>666</ele>
        <time>2017-03-27T00:01:10Z</time>
      </trkpt>
      <trkpt lat="43.78207" lon="6.17621">
        <ele>661</ele>
        <time>2017-03-27T00:01:23Z</time>
      </trkpt>
      <trkpt lat="43.78252" lon="6.17684">
        <ele>667</ele>
        <time>2017-03-27T00:01:36Z</time>
      </trkpt>
      <trkpt lat="43.78302" lon="6.17752">
        <ele>669</ele>
        <time>2017-03-27T00:01:56Z</time>
      </trkpt>
      <trkpt lat="43.78346" lon="6.17805">
        <ele>672</ele>
        <time>2017-03-27T00:02:03Z</time>
      </trkpt>
      <trkpt lat="43.78483" lon="6.1797">
        <ele>672</ele>
        <time>2017-03-27T00:02:11Z</time>
      </trkpt>
      <trkpt lat="43.78574" lon="6.1808">
        <ele>674</ele>
        <time>2017-03-27T00:02:24Z</time>
      </trkpt>
      <trkpt lat="43.78817" lon="6.18368">
        <ele>675</ele>
        <time>2017-03-27T00:02:26Z</time>
      </trkpt>
      <trkpt lat="43.79058" lon="6.18656">
        <ele>681</ele>
        <time>2017-03-27T00:02:38Z</time>
      </trkpt>
      <trkpt lat="43.7907" lon="6.18666">
        <ele>681</ele>
        <time>2017-03-27T00:02:43Z</time>
      </trkpt>
      <trkpt lat="43.79087" lon="6.18672">
        <ele>680</ele>
        <time>2017-03-27T00:02:47Z</time>
      </trkpt>
      <trkpt lat="43.79283" lon="6.18695">
        <ele>682</ele>
        <time>2017-03-27T00:03:07Z</time>
      </trkpt>
      <trkpt lat="43.79302" lon="6.18699">
        <ele>682</ele>
        <time>2017-03-27T00:03:15Z</time>
      </trkpt>
      <trkpt lat="43.79313" lon="6.18706">
        <ele>682</ele>
        <time>2017-03-27T00:03:35Z</time>
      </trkpt>
      <trkpt lat="43.794" lon="6.18762">
        <ele>681</ele>
        <time>2017-03-27T00:03:39Z</time>
      </trkpt>
      <trkpt lat="43.79412" lon="6.18775">
        <ele>680</ele>
        <time>2017-03-27T00:03:59Z</time>
      </trkpt>
      <trkpt lat="43.79499" lon="6.18902">
        <ele>686</ele>
        <time>2017-03-27T00:04:02Z</time>
      </trkpt>
      <trkpt lat="43.79539" lon="6.18959">
        <ele>690</ele>
        <time>2017-03-27T00:04:06Z</time>
      </trkpt>
      <trkpt lat="43.79582" lon="6.19012">
        <ele>690</ele>
        <time>2017-03-27T00:04:19Z</time>
      </trkpt>
      <trkpt lat="43.79804" lon="6.19268">
        <ele>703</ele>
        <time>2017-03-27T00:04:31Z</time>
      </trkpt>
      <trkpt lat="43.79951" lon="6.19439">
        <ele>708</ele>
        <time>2017-03-27T00:04:41Z</time>
      </trkpt>
      <trkpt lat="43.79972" lon="6.1946">
        <ele>708</ele>
        <time>2017-03-27T00:04:46Z</time>
      </trkpt>
      <trkpt lat="43.80024" lon="6.19503">
        <ele>709</ele>
        <time>2017-03-27T00:05:03Z</time>
      </trkpt>
      <trkpt lat="43.80094" lon="6.1956">
        <ele>711</ele>
        <time>2017-03-27T00:05:11Z</time>
      </trkpt>
      <trkpt lat="43.80108" lon="6.19566">
        <ele>711</ele>
        <time>2017-03-27T00:05:30Z</time>
      </trkpt>
      <trkpt lat="43.80123" lon="6.19565">
        <ele>711</ele>
        <time>2017-03-27T00:05:33Z</time>
      </trkpt>
      <trkpt lat="43.80187" lon="6.19551">
        <ele>713</ele>
        <time>2017-03-27T00:05:50Z</time>
      </trkpt>
      <trkpt lat="43.8032" lon="6.19519">
        <ele>715</ele>
        <time>2017-03-27T00:06:01Z</time>
      </trkpt>
      <trkpt lat="43.8057" lon="6.1946">
        <ele>720</ele>
        <time>2017-03-27T00:06:11Z</time>
      </trkpt>
      <trkpt lat="43.80773" lon="6.19411">
        <ele>720</ele>
        <time>2017-03-27T00:06:29Z</time>
      </trkpt>
      <trkpt lat="43.8081" lon="6.19401">
        <ele>720</ele>
        <time>2017-03-27T00:06:46Z</time>
      </trkpt>
      <trkpt lat="43.8083" lon="6.19393">
        <ele>720</ele>
        <time>2017-03-27T00:06:53Z</time>
      </trkpt>
      <trkpt lat="43.80847" lon="6.19379">
        <ele>721</ele>
        <time>2017-03-27T00:07:13Z</time>
      </trkpt>
      <trkpt lat="43.80884" lon="6.19339">
        <ele>721</ele>
        <time>2017-03-27T00:07:31Z</time>
      </trkpt>
      <trkpt lat="43.80896" lon="6.1933">
        <ele>722</ele>
        <time>2017-03-27T00:07:48Z</time>
      </trkpt>
      <trkpt lat="43.80901" lon="6.1933">
        <ele>722</ele>
        <time>2017-03-27T00:08:00Z</time>
      </trkpt>
      <trkpt lat="43.80915" lon="6.19334">
        <ele>724</ele>
        <time>2017-03-27T00:08:02Z</time>
      </trkpt>
      <trkpt lat="43.80941" lon="6.19359">
        <ele>724</ele>
        <time>2017-03-27T00:08:08Z</time>
      </trkpt>
      <trkpt lat="43.8095" lon="6.19364">
        <ele>724</ele>
        <time>2017-03-27T00:08:25Z</time>
      </trkpt>
      <trkpt lat="43.81011" lon="6.19391">
        <ele>727</ele>
        <time>2017-03-27T00:08:43Z</time>
      </trkpt>
      <trkpt lat="43.81124" lon="6.19434">
        <ele>731</ele>
        <time>2017-03-27T00:08:48Z</time>
      </trkpt>
      <trkpt lat="43.81157" lon="6.19451">
        <ele>731</ele>
        <time>2017-03-27T00:08:59Z</time>
      </trkpt>
      <trkpt lat="43.81195" lon="6.19477">
        <ele>734</ele>
        <time>2017-03-27T00:09:03Z</time>
      </trkpt>
      <trkpt lat="43.81267" lon="6.19523">
        <ele>739</ele>
        <time>2017-03-27T00:09:15Z</time>
      </trkpt>
      <trkpt lat="43.81284" lon="6.19531">
        <ele>739</ele>
        <time>2017-03-27T00:09:23Z</time>
      </trkpt>
      <trkpt lat="43.813" lon="6.19532">
        <ele>739</ele>
        <time>2017-03-27T00:09:25Z</time>
      </trkpt>
      <trkpt lat="43.81361" lon="6.19515">
        <ele>744</ele>
        <time>2017-03-27T00:09:31Z</time>
      </trkpt>
      <trkpt lat="43.81377" lon="6.19515">
        <ele>744</ele>
        <time>2017-03-27T00:09:46Z</time>
      </trkpt>
      <trkpt lat="43.81389" lon="6.19521">
        <ele>744</ele>
        <time>2017-03-27T00:09:53Z</time>
      </trkpt>
      <trkpt lat="43.8148" lon="6.196">
        <ele>748</ele>
        <time>2017-03-27T00:10:01Z</time>
      </trkpt>
      <trkpt lat="43.81573" lon="6.19681">
        <ele>753</ele>
        <time>2017-03-27T00:10:19Z</time>
      </trkpt>
      <trkpt lat="43.81619" lon="6.1972">
        <ele>755</ele>
        <time>2017-03-27T00:10:24Z</time>
      </trkpt>
      <trkpt lat="43.8168" lon="6.19767">
        <ele>757</ele>
        <time>2017-03-27T00:10:39Z</time>
      </trkpt>
      <trkpt lat="43.81909" lon="6.19931">
        <ele>766</ele>
        <time>2017-03-27T00:10:44Z</time>
      </trkpt>
      <trkpt lat="43.81972" lon="6.19973">
        <ele>769</ele>
        <time>2017-03-27T00:10:53Z</time>
      </trkpt>
      <trkpt lat="43.82021" lon="6.19996">
        <ele>771</ele>
        <time>2017-03-27T00:11:08Z</time>
      </trkpt>
      <trkpt lat="43.82128" lon="6.20039">
        <ele>774</ele>
        <time>2017-03-27T00:11:19Z</time>
      </trkpt>
      <trkpt lat="43.8218" lon="6.20058">
        <ele>774</ele>
        <time>2017-03-27T00:11:34Z</time>
      </trkpt>
      <trkpt lat="43.82193" lon="6.20061">
        <ele>774</ele>
        <time>2017-03-27T00:11:43Z</time>
      </trkpt>
      <trkpt lat="43.82213" lon="6.20061">
        <ele>775</ele>
        <time>2017-03-27T00:11:57Z</time>
      </trkpt>
      <trkpt lat="43.82299" lon="6.2005">
        <ele>774</ele>
        <time>2017-03-27T00:12:03Z</time>
      </trkpt>
      <trkpt lat="43.82324" lon="6.20045">
        <ele>773</ele>
        <time>2017-03-27T00:12:08Z</time>
      </trkpt>
      <trkpt lat="43.82336" lon="6.2004">
        <ele>769</ele>
        <time>2017-03-27T00:12:17Z</time>
      </trkpt>
      <trkpt lat="43.8235" lon="6.20028">
        <ele>769</ele>
        <time>2017-03-27T00:12:27Z</time>
      </trkpt>
      <trkpt lat="43.82396" lon="6.19958">
        <ele>770</ele>
        <time>2017-03-27T00:12:31Z</time>
      </trkpt>
      <trkpt lat="43.8241" lon="6.19941">
        <ele>770</ele>
        <time>2017-03-27T00:12:41Z</time>
      </trkpt>
      <trkpt lat="43.82419" lon="6.19934">
        <ele>769</ele>
        <time>2017-03-27T00:12:44Z</time>
      </trkpt>
      <trkpt lat="43.82529" lon="6.19866">
        <ele>769</ele>
        <time>2017-03-27T00:12:47Z</time>
      </trkpt>
      <trkpt lat="43.82546" lon="6.19853">
        <ele>768</ele>
        <time>2017-03-27T00:12:57Z</time>
      </trkpt>
      <trkpt lat="43.82625" lon="6.19739">
        <ele>768</ele>
        <time>2017-03-27T00:13:07Z</time>
      </trkpt>
      <trkpt lat="43.82647" lon="6.19715">
        <ele>768</ele>
        <time>2017-03-27T00:13:22Z</time>
      </trkpt>
      <trkpt lat="43.82678" lon="6.197">
        <ele>765</ele>
        <time>2017-03-27T00:13:33Z</time>
      </trkpt>
      <trkpt lat="43.82816" lon="6.19644">
        <ele>762</ele>
        <time>2017-03-27T00:13:45Z</time>
      </trkpt>
      <trkpt lat="43.82829" lon="6.19639">
        <ele>762</ele>
        <time>2017-03-27T00:13:59Z</time>
      </trkpt>
      <trkpt lat="43.82839" lon="6.19631">
        <ele>758</ele>
        <time>2017-03-27T00:14:02Z</time>
      </trkpt>
      <trkpt lat="43.82847" lon="6.19624">
        <ele>758</ele>
        <time>2017-03-27T00:14:06Z</time>
      </trkpt>
      <trkpt lat="43.82857" lon="6.19611">
        <ele>758</ele>
        <time>2017-03-27T00:14:24Z</time>
      </trkpt>
      <trkpt lat="43.82874" lon="6.19585">
        <ele>758</ele>
        <time>2017-03-27T00:14:35Z</time>
      </trkpt>
      <trkpt lat="43.82881" lon="6.19578">
        <ele>760</ele>
        <time>2017-03-27T00:14:45Z</time>
      </trkpt>
      <trkpt lat="43.82903" lon="6.19562">
        <ele>760</ele>
        <time>2017-03-27T00:14:56Z</time>
      </trkpt>
      <trkpt lat="43.82967" lon="6.19517">
        <ele>762</ele>
        <time>2017-03-27T00:15:15Z</time>
      </trkpt>
      <trkpt lat="43.82983" lon="6.19507">
        <ele>763</ele>
        <time>2017-03-27T00:15:22Z</time>
      </trkpt>
      <trkpt lat="43.82996" lon="6.19502">
        <ele>764</ele>
        <time>2017-03-27T00:15:32Z</time>
      </trkpt>
      <trkpt lat="43.83012" lon="6.195">
        <ele>765</ele>
        <time>2017-03-27T00:15:46Z</time>
      </trkpt>
      <trkpt lat="43.83046" lon="6.19499">
        <ele>767</ele>
        <time>2017-03-27T00:16:02Z</time>
      </trkpt>
      <trkpt lat="43.83116" lon="6.195">
        <ele>769</ele>
        <time>2017-03-27T00:16:06Z</time>
      </trkpt>
      <trkpt lat="43.83169" lon="6.195">
        <ele>769</ele>
        <time>2017-03-27T00:16:12Z</time>
      </trkpt>
      <trkpt lat="43.83191" lon="6.19498">
        <ele>767</ele>
        <time>2017-03-27T00:16:16Z</time>
      </trkpt>
      <trkpt lat="43.83197" lon="6.19497">
        <ele>767</ele>
        <time>2017-03-27T00:16:20Z</time>
      </trkpt>
      <trkpt lat="43.83216" lon="6.19482">
        <ele>766</ele>
        <time>2017-03-27T00:16:25Z</time>
      </trkpt>
      <trkpt lat="43.83256" lon="6.19452">
        <ele>764</ele>
        <time>2017-03-27T00:16:31Z</time>
      </trkpt>
      <trkpt lat="43.83397" lon="6.19345">
        <ele>770</ele>
        <time>2017-03-27T00:16:39Z</time>
      </trkpt>
      <trkpt lat="43.83407" lon="6.19341">
        <ele>770</ele>
        <time>2017-03-27T00:16:43Z</time>
      </trkpt>
      <trkpt lat="43.83424" lon="6.19343">
        <ele>771</ele>
        <time>2017-03-27T00:16:54Z</time>
      </trkpt>
      <trkpt lat="43.83492" lon="6.19366">
        <ele>771</ele>
        <time>2017-03-27T00:16:58Z</time>
      </trkpt>
      <trkpt lat="43.83544" lon="6.19385">
        <ele>774</ele>
        <time>2017-03-27T00:17:13Z</time>
      </trkpt>
      <trkpt lat="43.83598" lon="6.1941">
        <ele>777</ele>
        <time>2017-03-27T00:17:30Z</time>
      </trkpt>
      <trkpt lat="43.83649" lon="6.1944">
        <ele>774</ele>
        <time>2017-03-27T00:17:50Z</time>
      </trkpt>
      <trkpt lat="43.83664" lon="6.19444">
        <ele>774</ele>
        <time>2017-03-27T00:18:05Z</time>
      </trkpt>
      <trkpt lat="43.83681" lon="6.19443">
        <ele>775</ele>
        <time>2017-03-27T00:18:15Z</time>
      </trkpt>
      <trkpt lat="43.83733" lon="6.19427">
        <ele>776</ele>
        <time>2017-03-27T00:18:29Z</time>
      </trkpt>
      <trkpt lat="43.83791" lon="6.19401">
        <ele>779</ele>
        <time>2017-03-27T00:18:42Z</time>
      </trkpt>
      <trkpt lat="43.83841" lon="6.19372">
        <ele>779</ele>
        <time>2017-03-27T00:18:46Z</time>
      </trkpt>
      <trkpt lat="43.83854" lon="6.19363">
        <ele>779</ele>
        <time>2017-03-27T00:18:55Z</time>
      </trkpt>
      <trkpt lat="43.83859" lon="6.1936">
        <ele>779</ele>
        <time>2017-03-27T00:19:00Z</time>
      </trkpt>
      <trkpt lat="43.83865" lon="6.19362">
        <ele>779</ele>
        <time>2017-03-27T00:19:11Z</time>
      </trkpt>
      <trkpt lat="43.83871" lon="6.19369">
        <ele>779</ele>
        <time>2017-03-27T00:19:27Z</time>
      </trkpt>
      <trkpt lat="43.83881" lon="6.19393">
        <ele>779</ele>
        <time>2017-03-27T00:19:31Z</time>
      </trkpt>
      <trkpt lat="43.83913" lon="6.19479">
        <ele>769</ele>
        <time>2017-03-27T00:19:44Z</time>
      </trkpt>
      <trkpt lat="43.83937" lon="6.19547">
        <ele>755</ele>
        <time>2017-03-27T00:19:54Z</time>
      </trkpt>
      <trkpt lat="43.83941" lon="6.19553">
        <ele>755</ele>
        <time>2017-03-27T00:20:10Z</time>
      </trkpt>
      <trkpt lat="43.83945" lon="6.19555">
        <ele>754</ele>
        <time>2017-03-27T00:20:24Z</time>
      </trkpt>
      <trkpt lat="43.83951" lon="6.19554">
        <ele>755</ele>
        <time>2017-03-27T00:20:39Z</time>
      </trkpt>
      <trkpt lat="43.83961" lon="6.19547">
        <ele>755</ele>
        <time>2017-03-27T00:20:56Z</time>
      </trkpt>
      <trkpt lat="43.83989" lon="6.19517">
        <ele>757</ele>
        <time>2017-03-27T00:21:02Z</time>
      </trkpt>
      <trkpt lat="43.83994" lon="6.19515">
        <ele>758</ele>
        <time>2017-03-27T00:21:04Z</time>
      </trkpt>
      <trkpt lat="43.83998" lon="6.19516">
        <ele>758</ele>
        <time>2017-03-27T00:21:11Z</time>
      </trkpt>
      <trkpt lat="43.84" lon="6.19522">
        <ele>752</ele>
        <time>2017-03-27T00:21:31Z</time>
      </trkpt>
      <trkpt lat="43.83999" lon="6.19529">
        <ele>756</ele>
        <time>2017-03-27T00:21:33Z</time>
      </trkpt>
      <trkpt lat="43.83992" lon="6.19542">
        <ele>755</ele>
        <time>2017-03-27T00:21:36Z</time>
      </trkpt>
      <trkpt lat="43.83976" lon="6.19572">
        <ele>752</ele>
        <time>2017-03-27T00:21:40Z</time>
      </trkpt>
      <trkpt lat="43.8397" lon="6.19605">
        <ele>743</ele>
        <time>2017-03-27T00:21:47Z</time>
      </trkpt>
      <trkpt lat="43.83968" lon="6.19624">
        <ele>742</ele>
        <time>2017-03-27T00:21:58Z</time>
      </trkpt>
      <trkpt lat="43.83969" lon="6.19669">
        <ele>733</ele>
        <time>2017-03-27T00:22:10Z</time>
      </trkpt>
      <trkpt lat="43.83972" lon="6.19723">
        <ele>730</ele>
        <time>2017-03-27T00:22:27Z</time>
      </trkpt>
      <trkpt lat="43.83976" lon="6.19737">
        <ele>728</ele>
        <time>2017-03-27T00:22:43Z</time>
      </trkpt>
      <trkpt lat="43.83983" lon="6.19749">
        <ele>727</ele>
        <time>2017-03-27T00:22:51Z</time>
      </trkpt>
      <trkpt lat="43.83994" lon="6.19762">
        <ele>721</ele>
        <time>2017-03-27T00:23:06Z</time>
      </trkpt>
      <trkpt lat="43.84002" lon="6.19773">
        <ele>714</ele>
        <time>2017-03-27T00:23:16Z</time>
      </trkpt>
      <trkpt lat="43.84006" lon="6.19781">
        <ele>711</ele>
        <time>2017-03-27T00:23:28Z</time>
      </trkpt>
      <trkpt lat="43.84007" lon="6.19798">
        <ele>709</ele>
        <time>2017-03-27T00:23:31Z</time>
      </trkpt>
      <trkpt lat="43.84004" lon="6.19808">
        <ele>709</ele>
        <time>2017-03-27T00:23:51Z</time>
      </trkpt>
      <trkpt lat="43.83996" lon="6.19818">
        <ele>714</ele>
        <time>2017-03-27T00:24:05Z</time>
      </trkpt>
      <trkpt lat="43.8398" lon="6.19829">
        <ele>714</ele>
        <time>2017-03-27T00:24:18Z</time>
      </trkpt>
      <trkpt lat="43.83977" lon="6.19835">
        <ele>705</ele>
        <time>2017-03-27T00:24:31Z</time>
      </trkpt>
      <trkpt lat="43.83977" lon="6.19839">
        <ele>705</ele>
        <time>2017-03-27T00:24:46Z</time>
      </trkpt>
      <trkpt lat="43.8398" lon="6.19845">
        <ele>705</ele>
        <time>2017-03-27T00:25:05Z</time>
      </trkpt>
      <trkpt lat="43.83986" lon="6.19847">
        <ele>705</ele>
        <time>2017-03-27T00:25:09Z</time>
      </trkpt>
      <trkpt lat="43.83993" lon="6.19847">
        <ele>706</ele>
        <time>2017-03-27T00:25:21Z</time>
      </trkpt>
      <trkpt lat="43.84006" lon="6.19842">
        <ele>705</ele>
        <time>2017-03-27T00:25:31Z</time>
      </trkpt>
      <trkpt lat="43.84019" lon="6.19835">
        <ele>702</ele>
        <time>2017-03-27T00:25:45Z</time>
      </trkpt>
      <trkpt lat="43.84022" lon="6.19835">
        <ele>701</ele>
        <time>2017-03-27T00:26:02Z</time>
      </trkpt>
      <trkpt lat="43.84024" lon="6.19838">
        <ele>700</ele>
        <time>2017-03-27T00:26:04Z</time>
      </trkpt>
      <trkpt lat="43.84023" lon="6.19847">
        <ele>699</ele>
        <time>2017-03-27T00:26:15Z</time>
      </trkpt>
      <trkpt lat="43.84015" lon="6.19858">
        <ele>699</ele>
        <time>2017-03-27T00:26:20Z</time>
      </trkpt>
      <trkpt lat="43.83993" lon="6.19876">
        <ele>701</ele>
        <time>2017-03-27T00:26:35Z</time>
      </trkpt>
      <trkpt lat="43.83991" lon="6.19884">
        <ele>700</ele>
        <time>2017-03-27T00:26:50Z</time>
      </trkpt>
      <trkpt lat="43.83992" lon="6.19889">
        <ele>699</ele>
        <time>2017-03-27T00:27:01Z</time>
      </trkpt>
      <trkpt lat="43.83995" lon="6.1989">
        <ele>699</ele>
        <time>2017-03-27T00:27:16Z</time>
      </trkpt>
      <trkpt lat="43.84025" lon="6.19873">
        <ele>695</ele>
        <time>2017-03-27T00:27:24Z</time>
      </trkpt>
      <trkpt lat="43.84037" lon="6.19872">
        <ele>694</ele>
        <time>2017-03-27T00:27:38Z</time>
      </trkpt>
      <trkpt lat="43.8404" lon="6.19874">
        <ele>694</ele>
        <time>2017-03-27T00:27:54Z</time>
      </trkpt>
      <trkpt lat="43.8404" lon="6.19878">
        <ele>693</ele>
        <time>2017-03-27T00:28:07Z</time>
      </trkpt>
      <trkpt lat="43.8403" lon="6.19903">
        <ele>693</ele>
        <time>2017-03-27T00:28:21Z</time>
      </trkpt>
      <trkpt lat="43.84019" lon="6.1992">
        <ele>686</ele>
        <time>2017-03-27T00:28:39Z</time>
      </trkpt>
      <trkpt lat="43.8401" lon="6.19933">
        <ele>686</ele>
        <time>2017-03-27T00:28:52Z</time>
      </trkpt>
      <trkpt lat="43.84002" lon="6.19948">
        <ele>683</ele>
        <time>2017-03-27T00:29:04Z</time>
      </trkpt>
      <trkpt lat="43.84002" lon="6.19954">
        <ele>682</ele>
        <time>2017-03-27T00:29:20Z</time>
      </trkpt>
      <trkpt lat="43.84007" lon="6.19962">
        <ele>681</ele>
        <time>2017-03-27T00:29:40Z</time>
      </trkpt>
      <trkpt lat="43.84018" lon="6.19961">
        <ele>680</ele>
        <time>2017-03-27T00:29:44Z</time>
      </trkpt>
      <trkpt lat="43.84071" lon="6.19933">
        <ele>680</ele>
        <time>2017-03-27T00:30:01Z</time>
      </trkpt>
      <trkpt lat="43.84095" lon="6.19918">
        <ele>674</ele>
        <time>2017-03-27T00:30:19Z</time>
      </trkpt>
      <trkpt lat="43.84099" lon="6.19916">
        <ele>677</ele>
        <time>2017-03-27T00:30:23Z</time>
      </trkpt>
      <trkpt lat="43.84104" lon="6.19919">
        <ele>670</ele>
        <time>2017-03-27T00:30:33Z</time>
      </trkpt>
      <trkpt lat="43.84106" lon="6.19928">
        <ele>669</ele>
        <time>2017-03-27T00:30:35Z</time>
      </trkpt>
      <trkpt lat="43.84104" lon="6.19941">
        <ele>667</ele>
        <time>2017-03-27T00:30:39Z</time>
      </trkpt>
      <trkpt lat="43.8409" lon="6.19971">
        <ele>665</ele>
        <time>2017-03-27T00:30:56Z</time>
      </trkpt>
      <trkpt lat="43.84084" lon="6.19988">
        <ele>665</ele>
        <time>2017-03-27T00:31:07Z</time>
      </trkpt>
      <trkpt lat="43.84081" lon="6.20007">
        <ele>665</ele>
        <time>2017-03-27T00:31:21Z</time>
      </trkpt>
      <trkpt lat="43.84078" lon="6.20051">
        <ele>660</ele>
        <time>2017-03-27T00:31:27Z</time>
      </trkpt>
      <trkpt lat="43.84075" lon="6.20069">
        <ele>657</ele>
        <time>2017-03-27T00:31:47Z</time>
      </trkpt>
      <trkpt lat="43.8407" lon="6.20081">
        <ele>657</ele>
        <time>2017-03-27T00:31:49Z</time>
      </trkpt>
      <trkpt lat="43.84048" lon="6.201">
        <ele>649</ele>
        <time>2017-03-27T00:31:53Z</time>
      </trkpt>
      <trkpt lat="43.84017" lon="6.2013">
        <ele>647</ele>
        <time>2017-03-27T00:31:55Z</time>
      </trkpt>
      <trkpt lat="43.84003" lon="6.20152">
        <ele>644</ele>
        <time>2017-03-27T00:32:11Z</time>
      </trkpt>
      <trkpt lat="43.83996" lon="6.2016">
        <ele>643</ele>
        <time>2017-03-27T00:32:24Z</time>
      </trkpt>
      <trkpt lat="43.83987" lon="6.20164">
        <ele>644</ele>
        <time>2017-03-27T00:32:35Z</time>
      </trkpt>
      <trkpt lat="43.83966" lon="6.20168">
        <ele>637</ele>
        <time>2017-03-27T00:32:49Z</time>
      </trkpt>
      <trkpt lat="43.83956" lon="6.20175">
        <ele>637</ele>
        <time>2017-03-27T00:33:02Z</time>
      </trkpt>
      <trkpt lat="43.83948" lon="6.20187">
        <ele>636</ele>
        <time>2017-03-27T00:33:13Z</time>
      </trkpt>
      <trkpt lat="43.83938" lon="6.20211">
        <ele>634</ele>
        <time>2017-03-27T00:33:17Z</time>
      </trkpt>
      <trkpt lat="43.83932" lon="6.20252">
        <ele>626</ele>
        <time>2017-03-27T00:33:34Z</time>
      </trkpt>
      <trkpt lat="43.83933" lon="6.20298">
        <ele>623</ele>
        <time>2017-03-27T00:33:40Z</time>
      </trkpt>
      <trkpt lat="43.83937" lon="6.20343">
        <ele>617</ele>
        <time>2017-03-27T00:33:58Z</time>
      </trkpt>
      <trkpt lat="43.83941" lon="6.20399">
        <ele>615</ele>
        <time>2017-03-27T00:34:03Z</time>
      </trkpt>
      <trkpt lat="43.83944" lon="6.20448">
        <ele>614</ele>
        <time>2017-03-27T00:34:06Z</time>
      </trkpt>
      <trkpt lat="43.83958" lon="6.20511">
        <ele>614</ele>
        <time>2017-03-27T00:34:09Z</time>
      </trkpt>
      <trkpt lat="43.83964" lon="6.2056">
        <ele>614</ele>
        <time>2017-03-27T00:34:19Z</time>
      </trkpt>
      <trkpt lat="43.83964" lon="6.20574">
        <ele>614</ele>
        <time>2017-03-27T00:34:25Z</time>
      </trkpt>
      <trkpt lat="43.83958" lon="6.20589">
        <ele>611</ele>
        <time>2017-03-27T00:34:44Z</time>
      </trkpt>
      <trkpt lat="43.83924" lon="6.20636">
        <ele>609</ele>
        <time>2017-03-27T00:35:02Z</time>
      </trkpt>
      <trkpt lat="43.83914" lon="6.2065">
        <ele>605</ele>
        <time>2017-03-27T00:35:20Z</time>
      </trkpt>
      <trkpt lat="43.83912" lon="6.20656">
        <ele>605</ele>
        <time>2017-03-27T00:35:29Z</time>
      </trkpt>
      <trkpt lat="43.83913" lon="6.20664">
        <ele>605</ele>
        <time>2017-03-27T00:35:38Z</time>
      </trkpt>
      <trkpt lat="43.83919" lon="6.20667">
        <ele>605</ele>
        <time>2017-03-27T00:35:55Z</time>
      </trkpt>
      <trkpt lat="43.83966" lon="6.20677">
        <ele>601</ele>
        <time>2017-03-27T00:36:08Z</time>
      </trkpt>
      <trkpt lat="43.83985" lon="6.20678">
        <ele>601</ele>
        <time>2017-03-27T00:36:10Z</time>
      </trkpt>
      <trkpt lat="43.84007" lon="6.20684">
        <ele>599</ele>
        <time>2017-03-27T00:36:12Z</time>
      </trkpt>
      <trkpt lat="43.84014" lon="6.20687">
        <ele>598</ele>
        <time>2017-03-27T00:36:19Z</time>
      </trkpt>
      <trkpt lat="43.84017" lon="6.20691">
        <ele>597</ele>
        <time>2017-03-27T00:36:38Z</time>
      </trkpt>
      <trkpt lat="43.84016" lon="6.20697">
        <ele>597</ele>
        <time>2017-03-27T00:36:51Z</time>
      </trkpt>
      <trkpt lat="43.84012" lon="6.20704">
        <ele>596</ele>
        <time>2017-03-27T00:36:59Z</time>
      </trkpt>
      <trkpt lat="43.83979" lon="6.20739">
        <ele>597</ele>
        <time>2017-03-27T00:37:19Z</time>
      </trkpt>
      <trkpt lat="43.83969" lon="6.2075">
        <ele>597</ele>
        <time>2017-03-27T00:37:39Z</time>
      </trkpt>
      <trkpt lat="43.83966" lon="6.20756">
        <ele>591</ele>
        <time>2017-03-27T00:37:53Z</time>
      </trkpt>
      <trkpt lat="43.83968" lon="6.20765">
        <ele>590</ele>
        <time>2017-03-27T00:38:12Z</time>
      </trkpt>
      <trkpt lat="43.83977" lon="6.20772">
        <ele>590</ele>
        <time>2017-03-27T00:38:31Z</time>
      </trkpt>
      <trkpt lat="43.83998" lon="6.20775">
        <ele>590</ele>
        <time>2017-03-27T00:38:49Z</time>
      </trkpt>
      <trkpt lat="43.84031" lon="6.20776">
        <ele>587</ele>
        <time>2017-03-27T00:38:55Z</time>
      </trkpt>
      <trkpt lat="43.84059" lon="6.20777">
        <ele>586</ele>
        <time>2017-03-27T00:39:14Z</time>
      </trkpt>
      <trkpt lat="43.84082" lon="6.20781">
        <ele>585</ele>
        <time>2017-03-27T00:39:22Z</time>
      </trkpt>
      <trkpt lat="43.84106" lon="6.20783">
        <ele>580</ele>
        <time>2017-03-27T00:39:39Z</time>
      </trkpt>
      <trkpt lat="43.84128" lon="6.20782">
        <ele>578</ele>
        <time>2017-03-27T00:39:45Z</time>
      </trkpt>
      <trkpt lat="43.84133" lon="6.20784">
        <ele>578</ele>
        <time>2017-03-27T00:40:05Z</time>
      </trkpt>
      <trkpt lat="43.84135" lon="6.20789">
        <ele>578</ele>
        <time>2017-03-27T00:40:13Z</time>
      </trkpt>
      <trkpt lat="43.84133" lon="6.20802">
        <ele>577</ele>
        <time>2017-03-27T00:40:29Z</time>
      </trkpt>
      <trkpt lat="43.84088" lon="6.20895">
        <ele>570</ele>
        <time>2017-03-27T00:40:31Z</time>
      </trkpt>
      <trkpt lat="43.84077" lon="6.2092">
        <ele>568</ele>
        <time>2017-03-27T00:40:43Z</time>
      </trkpt>
      <trkpt lat="43.84073" lon="6.20941">
        <ele>567</ele>
        <time>2017-03-27T00:41:01Z</time>
      </trkpt>
      <trkpt lat="43.84073" lon="6.20965">
        <ele>566</ele>
        <time>2017-03-27T00:41:20Z</time>
      </trkpt>
      <trkpt lat="43.84078" lon="6.2099">
        <ele>564</ele>
        <time>2017-03-27T00:41:23Z</time>
      </trkpt>
      <trkpt lat="43.84095" lon="6.21044">
        <ele>561</ele>
        <time>2017-03-27T00:41:34Z</time>
      </trkpt>
      <trkpt lat="43.84104" lon="6.21074">
        <ele>560</ele>
        <time>2017-03-27T00:41:53Z</time>
      </trkpt>
      <trkpt lat="43.84115" lon="6.21132">
        <ele>559</ele>
        <time>2017-03-27T00:42:12Z</time>
      </trkpt>
      <trkpt lat="43.84148" lon="6.21262">
        <ele>560</ele>
        <time>2017-03-27T00:42:26Z</time>
      </trkpt>
      <trkpt lat="43.84164" lon="6.21322">
        <ele>561</ele>
        <time>2017-03-27T00:42:32Z</time>
      </trkpt>
      <trkpt lat="43.84174" lon="6.21346">
        <ele>565</ele>
        <time>2017-03-27T00:42:48Z</time>
      </trkpt>
      <trkpt lat="43.84187" lon="6.21364">
        <ele>567</ele>
        <time>2017-03-27T00:43:04Z</time>
      </trkpt>
      <trkpt lat="43.84197" lon="6.2137">
        <ele>567</ele>
        <time>2017-03-27T00:43:10Z</time>
      </trkpt>
      <trkpt lat="43.8421" lon="6.21382">
        <ele>568</ele>
        <time>2017-03-27T00:43:20Z</time>
      </trkpt>
      <trkpt lat="43.84216" lon="6.21386">
        <ele>568</ele>
        <time>2017-03-27T00:43:39Z</time>
      </trkpt>
      <trkpt lat="43.84223" lon="6.21397">
        <ele>569</ele>
        <time>2017-03-27T00:43:42Z</time>
      </trkpt>
      <trkpt lat="43.84232" lon="6.21406">
        <ele>569</ele>
        <time>2017-03-27T00:43:54Z</time>
      </trkpt>
      <trkpt lat="43.84237" lon="6.21409">
        <ele>570</ele>
        <time>2017-03-27T00:44:09Z</time>
      </trkpt>
      <trkpt lat="43.84268" lon="6.21426">
        <ele>571</ele>
        <time>2017-03-27T00:44:25Z</time>
      </trkpt>
      <trkpt lat="43.84306" lon="6.21444">
        <ele>571</ele>
        <time>2017-03-27T00:44:31Z</time>
      </trkpt>
      <trkpt lat="43.84326" lon="6.2145">
        <ele>571</ele>
        <time>2017-03-27T00:44:42Z</time>
      </trkpt>
      <trkpt lat="43.84352" lon="6.21458">
        <ele>572</ele>
        <time>2017-03-27T00:44:46Z</time>
      </trkpt>
      <trkpt lat="43.84377" lon="6.21471">
        <ele>572</ele>
        <time>2017-03-27T00:44:55Z</time>
      </trkpt>
      <trkpt lat="43.84396" lon="6.21491">
        <ele>572</ele>
        <time>2017-03-27T00:45:10Z</time>
      </trkpt>
      <trkpt lat="43.84419" lon="6.21522">
        <ele>572</ele>
        <time>2017-03-27T00:45:24Z</time>
      </trkpt>
      <trkpt lat="43.84439" lon="6.21552">
        <ele>572</ele>
        <time>2017-03-27T00:45:29Z</time>
      </trkpt>
      <trkpt lat="43.84444" lon="6.21564">
        <ele>571</ele>
        <time>2017-03-27T00:45:48Z</time>
      </trkpt>
      <trkpt lat="43.84447" lon="6.21575">
        <ele>571</ele>
        <time>2017-03-27T00:46:02Z</time>
      </trkpt>
      <trkpt lat="43.84446" lon="6.21577">
        <ele>571</ele>
        <time>2017-03-27T00:46:19Z</time>
      </trkpt>
      <trkpt lat="43.84446" lon="6.21579">
        <ele>571</ele>
        <time>2017-03-27T00:46:25Z</time>
      </trkpt>
      <trkpt lat="43.84446" lon="6.21582">
        <ele>571</ele>
        <time>2017-03-27T00:46:40Z</time>
      </trkpt>
      <trkpt lat="43.8445" lon="6.21588">
        <ele>570</ele>
        <time>2017-03-27T00:46:45Z</time>
      </trkpt>
      <trkpt lat="43.84452" lon="6.2159">
        <ele>570</ele>
        <time>2017-03-27T00:46:56Z</time>
      </trkpt>
      <trkpt lat="43.84471" lon="6.21611">
        <ele>570</ele>
        <time>2017-03-27T00:47:15Z</time>
      </trkpt>
    </trkseg>
  </trk>
</gpx>